<?xml version="1.0" encoding="UTF-8" ?>
<gpx xmlns="http://www.topografix.com/GPX/1/1" version="1.1" creator="RouteGadget GPS Tracking" xmlns:xsi="http://www.w3.org/2001/XMLSchema-instance" xmlns:tp1="http://www.garmin.com/xmlschemas/TrackPointExtension/v1" xsi:schemaLocation="http://www.topografix.com/GPX/1/1 http://www.topografix.com/GPX/1/1/gpx.xsd http://www.garmin.com/xmlschemas/TrackPointExtension/v1 http://www.garmin.com/xmlschemas/TrackPointExtensionv1.xsd">
<trk>
<trkseg><trkpt lat="61.111918" lon="26.008401">
<time>2020-09-12T11:55:24Z</time>
</trkpt>
<trkpt lat="61.111918" lon="26.008401">
<time>2020-09-12T11:55:25Z</time>
</trkpt>
<trkpt lat="61.111918" lon="26.008401">
<time>2020-09-12T11:55:26Z</time>
</trkpt>
<trkpt lat="61.111918" lon="26.008401">
<time>2020-09-12T11:55:27Z</time>
</trkpt>
<trkpt lat="61.111918" lon="26.008401">
<time>2020-09-12T11:55:28Z</time>
</trkpt>
<trkpt lat="61.111918" lon="26.008401">
<time>2020-09-12T11:55:29Z</time>
</trkpt>
<trkpt lat="61.111918" lon="26.008401">
<time>2020-09-12T11:55:30Z</time>
</trkpt>
<trkpt lat="61.111918" lon="26.008401">
<time>2020-09-12T11:55:31Z</time>
</trkpt>
<trkpt lat="61.111918" lon="26.008401">
<time>2020-09-12T11:55:32Z</time>
</trkpt>
<trkpt lat="61.111918" lon="26.008401">
<time>2020-09-12T11:55:33Z</time>
</trkpt>
<trkpt lat="61.111918" lon="26.008401">
<time>2020-09-12T11:55:34Z</time>
</trkpt>
<trkpt lat="61.111918" lon="26.008401">
<time>2020-09-12T11:55:35Z</time>
</trkpt>
<trkpt lat="61.111918" lon="26.008401">
<time>2020-09-12T11:55:36Z</time>
</trkpt>
<trkpt lat="61.111918" lon="26.008401">
<time>2020-09-12T11:55:37Z</time>
</trkpt>
<trkpt lat="61.111918" lon="26.008401">
<time>2020-09-12T11:55:38Z</time>
</trkpt>
<trkpt lat="61.111918" lon="26.008403">
<time>2020-09-12T11:55:39Z</time>
</trkpt>
<trkpt lat="61.111918" lon="26.008406">
<time>2020-09-12T11:55:40Z</time>
</trkpt>
<trkpt lat="61.111918" lon="26.008408">
<time>2020-09-12T11:55:41Z</time>
</trkpt>
<trkpt lat="61.111916" lon="26.008411">
<time>2020-09-12T11:55:42Z</time>
</trkpt>
<trkpt lat="61.111915" lon="26.008411">
<time>2020-09-12T11:55:43Z</time>
</trkpt>
<trkpt lat="61.111913" lon="26.008415">
<time>2020-09-12T11:55:44Z</time>
</trkpt>
<trkpt lat="61.111913" lon="26.008415">
<time>2020-09-12T11:55:45Z</time>
</trkpt>
<trkpt lat="61.111913" lon="26.008416">
<time>2020-09-12T11:55:46Z</time>
</trkpt>
<trkpt lat="61.111911" lon="26.008418">
<time>2020-09-12T11:55:47Z</time>
</trkpt>
<trkpt lat="61.111911" lon="26.008421">
<time>2020-09-12T11:55:48Z</time>
</trkpt>
<trkpt lat="61.111911" lon="26.008423">
<time>2020-09-12T11:55:49Z</time>
</trkpt>
<trkpt lat="61.11191" lon="26.008423">
<time>2020-09-12T11:55:50Z</time>
</trkpt>
<trkpt lat="61.11191" lon="26.008425">
<time>2020-09-12T11:55:51Z</time>
</trkpt>
<trkpt lat="61.11191" lon="26.008425">
<time>2020-09-12T11:55:52Z</time>
</trkpt>
<trkpt lat="61.111908" lon="26.008433">
<time>2020-09-12T11:55:53Z</time>
</trkpt>
<trkpt lat="61.111905" lon="26.008448">
<time>2020-09-12T11:55:54Z</time>
</trkpt>
<trkpt lat="61.111901" lon="26.008456">
<time>2020-09-12T11:55:55Z</time>
</trkpt>
<trkpt lat="61.1119" lon="26.008463">
<time>2020-09-12T11:55:56Z</time>
</trkpt>
<trkpt lat="61.111895" lon="26.008465">
<time>2020-09-12T11:55:57Z</time>
</trkpt>
<trkpt lat="61.111893" lon="26.008465">
<time>2020-09-12T11:55:58Z</time>
</trkpt>
<trkpt lat="61.11189" lon="26.008466">
<time>2020-09-12T11:55:59Z</time>
</trkpt>
<trkpt lat="61.111888" lon="26.008475">
<time>2020-09-12T11:56:00Z</time>
</trkpt>
<trkpt lat="61.111866" lon="26.008548">
<time>2020-09-12T11:56:01Z</time>
</trkpt>
<trkpt lat="61.111835" lon="26.008646">
<time>2020-09-12T11:56:02Z</time>
</trkpt>
<trkpt lat="61.111798" lon="26.008758">
<time>2020-09-12T11:56:03Z</time>
</trkpt>
<trkpt lat="61.111758" lon="26.00888">
<time>2020-09-12T11:56:04Z</time>
</trkpt>
<trkpt lat="61.111718" lon="26.009015">
<time>2020-09-12T11:56:05Z</time>
</trkpt>
<trkpt lat="61.111681" lon="26.009155">
<time>2020-09-12T11:56:06Z</time>
</trkpt>
<trkpt lat="61.11165" lon="26.009305">
<time>2020-09-12T11:56:07Z</time>
</trkpt>
<trkpt lat="61.111616" lon="26.009446">
<time>2020-09-12T11:56:08Z</time>
</trkpt>
<trkpt lat="61.111578" lon="26.009571">
<time>2020-09-12T11:56:09Z</time>
</trkpt>
<trkpt lat="61.111535" lon="26.009671">
<time>2020-09-12T11:56:10Z</time>
</trkpt>
<trkpt lat="61.111485" lon="26.009758">
<time>2020-09-12T11:56:11Z</time>
</trkpt>
<trkpt lat="61.11143" lon="26.009833">
<time>2020-09-12T11:56:12Z</time>
</trkpt>
<trkpt lat="61.111373" lon="26.009906">
<time>2020-09-12T11:56:13Z</time>
</trkpt>
<trkpt lat="61.111318" lon="26.009985">
<time>2020-09-12T11:56:14Z</time>
</trkpt>
<trkpt lat="61.111268" lon="26.010075">
<time>2020-09-12T11:56:15Z</time>
</trkpt>
<trkpt lat="61.111216" lon="26.010176">
<time>2020-09-12T11:56:16Z</time>
</trkpt>
<trkpt lat="61.111163" lon="26.010285">
<time>2020-09-12T11:56:17Z</time>
</trkpt>
<trkpt lat="61.11111" lon="26.010401">
<time>2020-09-12T11:56:18Z</time>
</trkpt>
<trkpt lat="61.111053" lon="26.01053">
<time>2020-09-12T11:56:19Z</time>
</trkpt>
<trkpt lat="61.110991" lon="26.010656">
<time>2020-09-12T11:56:20Z</time>
</trkpt>
<trkpt lat="61.110916" lon="26.010778">
<time>2020-09-12T11:56:21Z</time>
</trkpt>
<trkpt lat="61.110833" lon="26.010888">
<time>2020-09-12T11:56:22Z</time>
</trkpt>
<trkpt lat="61.110743" lon="26.010993">
<time>2020-09-12T11:56:23Z</time>
</trkpt>
<trkpt lat="61.110653" lon="26.011091">
<time>2020-09-12T11:56:24Z</time>
</trkpt>
<trkpt lat="61.110563" lon="26.011178">
<time>2020-09-12T11:56:25Z</time>
</trkpt>
<trkpt lat="61.110481" lon="26.011248">
<time>2020-09-12T11:56:26Z</time>
</trkpt>
<trkpt lat="61.1104" lon="26.011326">
<time>2020-09-12T11:56:27Z</time>
</trkpt>
<trkpt lat="61.110318" lon="26.011393">
<time>2020-09-12T11:56:28Z</time>
</trkpt>
<trkpt lat="61.110236" lon="26.011433">
<time>2020-09-12T11:56:29Z</time>
</trkpt>
<trkpt lat="61.110158" lon="26.011425">
<time>2020-09-12T11:56:30Z</time>
</trkpt>
<trkpt lat="61.110086" lon="26.011371">
<time>2020-09-12T11:56:31Z</time>
</trkpt>
<trkpt lat="61.110021" lon="26.011293">
<time>2020-09-12T11:56:32Z</time>
</trkpt>
<trkpt lat="61.109958" lon="26.0112">
<time>2020-09-12T11:56:33Z</time>
</trkpt>
<trkpt lat="61.109898" lon="26.01111">
<time>2020-09-12T11:56:34Z</time>
</trkpt>
<trkpt lat="61.109843" lon="26.011026">
<time>2020-09-12T11:56:35Z</time>
</trkpt>
<trkpt lat="61.109786" lon="26.010918">
<time>2020-09-12T11:56:36Z</time>
</trkpt>
<trkpt lat="61.109723" lon="26.010808">
<time>2020-09-12T11:56:37Z</time>
</trkpt>
<trkpt lat="61.109663" lon="26.010716">
<time>2020-09-12T11:56:38Z</time>
</trkpt>
<trkpt lat="61.109603" lon="26.010618">
<time>2020-09-12T11:56:39Z</time>
</trkpt>
<trkpt lat="61.109543" lon="26.010523">
<time>2020-09-12T11:56:40Z</time>
</trkpt>
<trkpt lat="61.109478" lon="26.010433">
<time>2020-09-12T11:56:41Z</time>
</trkpt>
<trkpt lat="61.109408" lon="26.010345">
<time>2020-09-12T11:56:42Z</time>
</trkpt>
<trkpt lat="61.109343" lon="26.010251">
<time>2020-09-12T11:56:43Z</time>
</trkpt>
<trkpt lat="61.10928" lon="26.010158">
<time>2020-09-12T11:56:44Z</time>
</trkpt>
<trkpt lat="61.109213" lon="26.01007">
<time>2020-09-12T11:56:45Z</time>
</trkpt>
<trkpt lat="61.109145" lon="26.009976">
<time>2020-09-12T11:56:46Z</time>
</trkpt>
<trkpt lat="61.109075" lon="26.00988">
<time>2020-09-12T11:56:47Z</time>
</trkpt>
<trkpt lat="61.109005" lon="26.009783">
<time>2020-09-12T11:56:48Z</time>
</trkpt>
<trkpt lat="61.10893" lon="26.009688">
<time>2020-09-12T11:56:49Z</time>
</trkpt>
<trkpt lat="61.108858" lon="26.009595">
<time>2020-09-12T11:56:50Z</time>
</trkpt>
<trkpt lat="61.108788" lon="26.00951">
<time>2020-09-12T11:56:51Z</time>
</trkpt>
<trkpt lat="61.10872" lon="26.009436">
<time>2020-09-12T11:56:52Z</time>
</trkpt>
<trkpt lat="61.108646" lon="26.009376">
<time>2020-09-12T11:56:53Z</time>
</trkpt>
<trkpt lat="61.10857" lon="26.009328">
<time>2020-09-12T11:56:54Z</time>
</trkpt>
<trkpt lat="61.108488" lon="26.009283">
<time>2020-09-12T11:56:55Z</time>
</trkpt>
<trkpt lat="61.108401" lon="26.00922">
<time>2020-09-12T11:56:56Z</time>
</trkpt>
<trkpt lat="61.108318" lon="26.00913">
<time>2020-09-12T11:56:57Z</time>
</trkpt>
<trkpt lat="61.108238" lon="26.009015">
<time>2020-09-12T11:56:58Z</time>
</trkpt>
<trkpt lat="61.10816" lon="26.008898">
<time>2020-09-12T11:56:59Z</time>
</trkpt>
<trkpt lat="61.108086" lon="26.008805">
<time>2020-09-12T11:57:00Z</time>
</trkpt>
<trkpt lat="61.10802" lon="26.008746">
<time>2020-09-12T11:57:01Z</time>
</trkpt>
<trkpt lat="61.107956" lon="26.00872">
<time>2020-09-12T11:57:02Z</time>
</trkpt>
<trkpt lat="61.107898" lon="26.00873">
<time>2020-09-12T11:57:03Z</time>
</trkpt>
<trkpt lat="61.107841" lon="26.008761">
<time>2020-09-12T11:57:04Z</time>
</trkpt>
<trkpt lat="61.107786" lon="26.00881">
<time>2020-09-12T11:57:05Z</time>
</trkpt>
<trkpt lat="61.10773" lon="26.008866">
<time>2020-09-12T11:57:06Z</time>
</trkpt>
<trkpt lat="61.107668" lon="26.008951">
<time>2020-09-12T11:57:07Z</time>
</trkpt>
<trkpt lat="61.107613" lon="26.00903">
<time>2020-09-12T11:57:08Z</time>
</trkpt>
<trkpt lat="61.107558" lon="26.009123">
<time>2020-09-12T11:57:09Z</time>
</trkpt>
<trkpt lat="61.107503" lon="26.00923">
<time>2020-09-12T11:57:10Z</time>
</trkpt>
<trkpt lat="61.107448" lon="26.00935">
<time>2020-09-12T11:57:11Z</time>
</trkpt>
<trkpt lat="61.107408" lon="26.009488">
<time>2020-09-12T11:57:12Z</time>
</trkpt>
<trkpt lat="61.107383" lon="26.009638">
<time>2020-09-12T11:57:13Z</time>
</trkpt>
<trkpt lat="61.107373" lon="26.009783">
<time>2020-09-12T11:57:14Z</time>
</trkpt>
<trkpt lat="61.107368" lon="26.00992">
<time>2020-09-12T11:57:15Z</time>
</trkpt>
<trkpt lat="61.107361" lon="26.01005">
<time>2020-09-12T11:57:16Z</time>
</trkpt>
<trkpt lat="61.107355" lon="26.010168">
<time>2020-09-12T11:57:17Z</time>
</trkpt>
<trkpt lat="61.10735" lon="26.010291">
<time>2020-09-12T11:57:18Z</time>
</trkpt>
<trkpt lat="61.107346" lon="26.010418">
<time>2020-09-12T11:57:19Z</time>
</trkpt>
<trkpt lat="61.107346" lon="26.01055">
<time>2020-09-12T11:57:20Z</time>
</trkpt>
<trkpt lat="61.107348" lon="26.01069">
<time>2020-09-12T11:57:21Z</time>
</trkpt>
<trkpt lat="61.107356" lon="26.010836">
<time>2020-09-12T11:57:22Z</time>
</trkpt>
<trkpt lat="61.107365" lon="26.010993">
<time>2020-09-12T11:57:23Z</time>
</trkpt>
<trkpt lat="61.107376" lon="26.011151">
<time>2020-09-12T11:57:24Z</time>
</trkpt>
<trkpt lat="61.107391" lon="26.01131">
<time>2020-09-12T11:57:25Z</time>
</trkpt>
<trkpt lat="61.107408" lon="26.011466">
<time>2020-09-12T11:57:26Z</time>
</trkpt>
<trkpt lat="61.107416" lon="26.011616">
<time>2020-09-12T11:57:27Z</time>
</trkpt>
<trkpt lat="61.107418" lon="26.01176">
<time>2020-09-12T11:57:28Z</time>
</trkpt>
<trkpt lat="61.107426" lon="26.01189">
<time>2020-09-12T11:57:29Z</time>
</trkpt>
<trkpt lat="61.107441" lon="26.012006">
<time>2020-09-12T11:57:30Z</time>
</trkpt>
<trkpt lat="61.107473" lon="26.012111">
<time>2020-09-12T11:57:31Z</time>
</trkpt>
<trkpt lat="61.107511" lon="26.012215">
<time>2020-09-12T11:57:32Z</time>
</trkpt>
<trkpt lat="61.10756" lon="26.012316">
<time>2020-09-12T11:57:33Z</time>
</trkpt>
<trkpt lat="61.10761" lon="26.012408">
<time>2020-09-12T11:57:34Z</time>
</trkpt>
<trkpt lat="61.107666" lon="26.012496">
<time>2020-09-12T11:57:35Z</time>
</trkpt>
<trkpt lat="61.107725" lon="26.012586">
<time>2020-09-12T11:57:36Z</time>
</trkpt>
<trkpt lat="61.107783" lon="26.012683">
<time>2020-09-12T11:57:37Z</time>
</trkpt>
<trkpt lat="61.107838" lon="26.012793">
<time>2020-09-12T11:57:38Z</time>
</trkpt>
<trkpt lat="61.107885" lon="26.012918">
<time>2020-09-12T11:57:39Z</time>
</trkpt>
<trkpt lat="61.107913" lon="26.01306">
<time>2020-09-12T11:57:40Z</time>
</trkpt>
<trkpt lat="61.107931" lon="26.013206">
<time>2020-09-12T11:57:41Z</time>
</trkpt>
<trkpt lat="61.107943" lon="26.013361">
<time>2020-09-12T11:57:42Z</time>
</trkpt>
<trkpt lat="61.107951" lon="26.013525">
<time>2020-09-12T11:57:43Z</time>
</trkpt>
<trkpt lat="61.107955" lon="26.013691">
<time>2020-09-12T11:57:44Z</time>
</trkpt>
<trkpt lat="61.107958" lon="26.013856">
<time>2020-09-12T11:57:45Z</time>
</trkpt>
<trkpt lat="61.107958" lon="26.014021">
<time>2020-09-12T11:57:46Z</time>
</trkpt>
<trkpt lat="61.107956" lon="26.01418">
<time>2020-09-12T11:57:47Z</time>
</trkpt>
<trkpt lat="61.10795" lon="26.014336">
<time>2020-09-12T11:57:48Z</time>
</trkpt>
<trkpt lat="61.107938" lon="26.014486">
<time>2020-09-12T11:57:49Z</time>
</trkpt>
<trkpt lat="61.107921" lon="26.01463">
<time>2020-09-12T11:57:50Z</time>
</trkpt>
<trkpt lat="61.1079" lon="26.014771">
<time>2020-09-12T11:57:51Z</time>
</trkpt>
<trkpt lat="61.107878" lon="26.014913">
<time>2020-09-12T11:57:52Z</time>
</trkpt>
<trkpt lat="61.107855" lon="26.015055">
<time>2020-09-12T11:57:53Z</time>
</trkpt>
<trkpt lat="61.107833" lon="26.015203">
<time>2020-09-12T11:57:54Z</time>
</trkpt>
<trkpt lat="61.107818" lon="26.015355">
<time>2020-09-12T11:57:55Z</time>
</trkpt>
<trkpt lat="61.107813" lon="26.01551">
<time>2020-09-12T11:57:56Z</time>
</trkpt>
<trkpt lat="61.107818" lon="26.015665">
<time>2020-09-12T11:57:57Z</time>
</trkpt>
<trkpt lat="61.107828" lon="26.015818">
<time>2020-09-12T11:57:58Z</time>
</trkpt>
<trkpt lat="61.107841" lon="26.015975">
<time>2020-09-12T11:57:59Z</time>
</trkpt>
<trkpt lat="61.107861" lon="26.016121">
<time>2020-09-12T11:58:00Z</time>
</trkpt>
<trkpt lat="61.107883" lon="26.016265">
<time>2020-09-12T11:58:01Z</time>
</trkpt>
<trkpt lat="61.107898" lon="26.016406">
<time>2020-09-12T11:58:02Z</time>
</trkpt>
<trkpt lat="61.107916" lon="26.016536">
<time>2020-09-12T11:58:03Z</time>
</trkpt>
<trkpt lat="61.107938" lon="26.016658">
<time>2020-09-12T11:58:04Z</time>
</trkpt>
<trkpt lat="61.107968" lon="26.016776">
<time>2020-09-12T11:58:05Z</time>
</trkpt>
<trkpt lat="61.108" lon="26.016888">
<time>2020-09-12T11:58:06Z</time>
</trkpt>
<trkpt lat="61.108031" lon="26.017">
<time>2020-09-12T11:58:07Z</time>
</trkpt>
<trkpt lat="61.108066" lon="26.017118">
<time>2020-09-12T11:58:08Z</time>
</trkpt>
<trkpt lat="61.1081" lon="26.017243">
<time>2020-09-12T11:58:09Z</time>
</trkpt>
<trkpt lat="61.108135" lon="26.017361">
<time>2020-09-12T11:58:10Z</time>
</trkpt>
<trkpt lat="61.108156" lon="26.017478">
<time>2020-09-12T11:58:11Z</time>
</trkpt>
<trkpt lat="61.108175" lon="26.01761">
<time>2020-09-12T11:58:12Z</time>
</trkpt>
<trkpt lat="61.108183" lon="26.017741">
<time>2020-09-12T11:58:13Z</time>
</trkpt>
<trkpt lat="61.108191" lon="26.017875">
<time>2020-09-12T11:58:14Z</time>
</trkpt>
<trkpt lat="61.108196" lon="26.018008">
<time>2020-09-12T11:58:15Z</time>
</trkpt>
<trkpt lat="61.108198" lon="26.018145">
<time>2020-09-12T11:58:16Z</time>
</trkpt>
<trkpt lat="61.108201" lon="26.018278">
<time>2020-09-12T11:58:17Z</time>
</trkpt>
<trkpt lat="61.108201" lon="26.01841">
<time>2020-09-12T11:58:18Z</time>
</trkpt>
<trkpt lat="61.1082" lon="26.018538">
<time>2020-09-12T11:58:19Z</time>
</trkpt>
<trkpt lat="61.108195" lon="26.018666">
<time>2020-09-12T11:58:20Z</time>
</trkpt>
<trkpt lat="61.108188" lon="26.018795">
<time>2020-09-12T11:58:21Z</time>
</trkpt>
<trkpt lat="61.10818" lon="26.018923">
<time>2020-09-12T11:58:22Z</time>
</trkpt>
<trkpt lat="61.10817" lon="26.019051">
<time>2020-09-12T11:58:23Z</time>
</trkpt>
<trkpt lat="61.108168" lon="26.019175">
<time>2020-09-12T11:58:24Z</time>
</trkpt>
<trkpt lat="61.108176" lon="26.019293">
<time>2020-09-12T11:58:25Z</time>
</trkpt>
<trkpt lat="61.108191" lon="26.019411">
<time>2020-09-12T11:58:26Z</time>
</trkpt>
<trkpt lat="61.108215" lon="26.019525">
<time>2020-09-12T11:58:27Z</time>
</trkpt>
<trkpt lat="61.108246" lon="26.019628">
<time>2020-09-12T11:58:28Z</time>
</trkpt>
<trkpt lat="61.108286" lon="26.01972">
<time>2020-09-12T11:58:29Z</time>
</trkpt>
<trkpt lat="61.108333" lon="26.019806">
<time>2020-09-12T11:58:30Z</time>
</trkpt>
<trkpt lat="61.108381" lon="26.01989">
<time>2020-09-12T11:58:31Z</time>
</trkpt>
<trkpt lat="61.108423" lon="26.019976">
<time>2020-09-12T11:58:32Z</time>
</trkpt>
<trkpt lat="61.108463" lon="26.020065">
<time>2020-09-12T11:58:33Z</time>
</trkpt>
<trkpt lat="61.108496" lon="26.020158">
<time>2020-09-12T11:58:34Z</time>
</trkpt>
<trkpt lat="61.108525" lon="26.02025">
<time>2020-09-12T11:58:35Z</time>
</trkpt>
<trkpt lat="61.108548" lon="26.020341">
<time>2020-09-12T11:58:36Z</time>
</trkpt>
<trkpt lat="61.108573" lon="26.020431">
<time>2020-09-12T11:58:37Z</time>
</trkpt>
<trkpt lat="61.108598" lon="26.02053">
<time>2020-09-12T11:58:38Z</time>
</trkpt>
<trkpt lat="61.108618" lon="26.020636">
<time>2020-09-12T11:58:39Z</time>
</trkpt>
<trkpt lat="61.108633" lon="26.020755">
<time>2020-09-12T11:58:40Z</time>
</trkpt>
<trkpt lat="61.108643" lon="26.020881">
<time>2020-09-12T11:58:41Z</time>
</trkpt>
<trkpt lat="61.10865" lon="26.021015">
<time>2020-09-12T11:58:42Z</time>
</trkpt>
<trkpt lat="61.108658" lon="26.021153">
<time>2020-09-12T11:58:43Z</time>
</trkpt>
<trkpt lat="61.10866" lon="26.021293">
<time>2020-09-12T11:58:44Z</time>
</trkpt>
<trkpt lat="61.108656" lon="26.021436">
<time>2020-09-12T11:58:45Z</time>
</trkpt>
<trkpt lat="61.108651" lon="26.02158">
<time>2020-09-12T11:58:46Z</time>
</trkpt>
<trkpt lat="61.108646" lon="26.021716">
<time>2020-09-12T11:58:47Z</time>
</trkpt>
<trkpt lat="61.108636" lon="26.021851">
<time>2020-09-12T11:58:48Z</time>
</trkpt>
<trkpt lat="61.10862" lon="26.021988">
<time>2020-09-12T11:58:49Z</time>
</trkpt>
<trkpt lat="61.108596" lon="26.022121">
<time>2020-09-12T11:58:50Z</time>
</trkpt>
<trkpt lat="61.108563" lon="26.022243">
<time>2020-09-12T11:58:51Z</time>
</trkpt>
<trkpt lat="61.108523" lon="26.022356">
<time>2020-09-12T11:58:52Z</time>
</trkpt>
<trkpt lat="61.108486" lon="26.02247">
<time>2020-09-12T11:58:53Z</time>
</trkpt>
<trkpt lat="61.108455" lon="26.022585">
<time>2020-09-12T11:58:54Z</time>
</trkpt>
<trkpt lat="61.108426" lon="26.022701">
<time>2020-09-12T11:58:55Z</time>
</trkpt>
<trkpt lat="61.108403" lon="26.022815">
<time>2020-09-12T11:58:56Z</time>
</trkpt>
<trkpt lat="61.108381" lon="26.02293">
<time>2020-09-12T11:58:57Z</time>
</trkpt>
<trkpt lat="61.108365" lon="26.023046">
<time>2020-09-12T11:58:58Z</time>
</trkpt>
<trkpt lat="61.108356" lon="26.023161">
<time>2020-09-12T11:58:59Z</time>
</trkpt>
<trkpt lat="61.108353" lon="26.023271">
<time>2020-09-12T11:59:00Z</time>
</trkpt>
<trkpt lat="61.108355" lon="26.023385">
<time>2020-09-12T11:59:01Z</time>
</trkpt>
<trkpt lat="61.108366" lon="26.023495">
<time>2020-09-12T11:59:02Z</time>
</trkpt>
<trkpt lat="61.108376" lon="26.023608">
<time>2020-09-12T11:59:03Z</time>
</trkpt>
<trkpt lat="61.108388" lon="26.023726">
<time>2020-09-12T11:59:04Z</time>
</trkpt>
<trkpt lat="61.108406" lon="26.023843">
<time>2020-09-12T11:59:05Z</time>
</trkpt>
<trkpt lat="61.108426" lon="26.023961">
<time>2020-09-12T11:59:06Z</time>
</trkpt>
<trkpt lat="61.108446" lon="26.024083">
<time>2020-09-12T11:59:07Z</time>
</trkpt>
<trkpt lat="61.108463" lon="26.02421">
<time>2020-09-12T11:59:08Z</time>
</trkpt>
<trkpt lat="61.108471" lon="26.024336">
<time>2020-09-12T11:59:09Z</time>
</trkpt>
<trkpt lat="61.108471" lon="26.024468">
<time>2020-09-12T11:59:10Z</time>
</trkpt>
<trkpt lat="61.108463" lon="26.024595">
<time>2020-09-12T11:59:11Z</time>
</trkpt>
<trkpt lat="61.108446" lon="26.02472">
<time>2020-09-12T11:59:12Z</time>
</trkpt>
<trkpt lat="61.108426" lon="26.024841">
<time>2020-09-12T11:59:13Z</time>
</trkpt>
<trkpt lat="61.1084" lon="26.024965">
<time>2020-09-12T11:59:14Z</time>
</trkpt>
<trkpt lat="61.10837" lon="26.025085">
<time>2020-09-12T11:59:15Z</time>
</trkpt>
<trkpt lat="61.108333" lon="26.025193">
<time>2020-09-12T11:59:16Z</time>
</trkpt>
<trkpt lat="61.10829" lon="26.025286">
<time>2020-09-12T11:59:17Z</time>
</trkpt>
<trkpt lat="61.108243" lon="26.025375">
<time>2020-09-12T11:59:18Z</time>
</trkpt>
<trkpt lat="61.108191" lon="26.025461">
<time>2020-09-12T11:59:19Z</time>
</trkpt>
<trkpt lat="61.108141" lon="26.025545">
<time>2020-09-12T11:59:20Z</time>
</trkpt>
<trkpt lat="61.108086" lon="26.02563">
<time>2020-09-12T11:59:21Z</time>
</trkpt>
<trkpt lat="61.108031" lon="26.025718">
<time>2020-09-12T11:59:22Z</time>
</trkpt>
<trkpt lat="61.107976" lon="26.025803">
<time>2020-09-12T11:59:23Z</time>
</trkpt>
<trkpt lat="61.107923" lon="26.025895">
<time>2020-09-12T11:59:24Z</time>
</trkpt>
<trkpt lat="61.107866" lon="26.026006">
<time>2020-09-12T11:59:25Z</time>
</trkpt>
<trkpt lat="61.10781" lon="26.026125">
<time>2020-09-12T11:59:26Z</time>
</trkpt>
<trkpt lat="61.10775" lon="26.02624">
<time>2020-09-12T11:59:27Z</time>
</trkpt>
<trkpt lat="61.107686" lon="26.026353">
<time>2020-09-12T11:59:28Z</time>
</trkpt>
<trkpt lat="61.107621" lon="26.026451">
<time>2020-09-12T11:59:29Z</time>
</trkpt>
<trkpt lat="61.107555" lon="26.026543">
<time>2020-09-12T11:59:30Z</time>
</trkpt>
<trkpt lat="61.107485" lon="26.026628">
<time>2020-09-12T11:59:31Z</time>
</trkpt>
<trkpt lat="61.107411" lon="26.026698">
<time>2020-09-12T11:59:32Z</time>
</trkpt>
<trkpt lat="61.107341" lon="26.026753">
<time>2020-09-12T11:59:33Z</time>
</trkpt>
<trkpt lat="61.10727" lon="26.026788">
<time>2020-09-12T11:59:34Z</time>
</trkpt>
<trkpt lat="61.107193" lon="26.026806">
<time>2020-09-12T11:59:35Z</time>
</trkpt>
<trkpt lat="61.107115" lon="26.026818">
<time>2020-09-12T11:59:36Z</time>
</trkpt>
<trkpt lat="61.107036" lon="26.026813">
<time>2020-09-12T11:59:37Z</time>
</trkpt>
<trkpt lat="61.106958" lon="26.026785">
<time>2020-09-12T11:59:38Z</time>
</trkpt>
<trkpt lat="61.106878" lon="26.026746">
<time>2020-09-12T11:59:39Z</time>
</trkpt>
<trkpt lat="61.1068" lon="26.026698">
<time>2020-09-12T11:59:40Z</time>
</trkpt>
<trkpt lat="61.106726" lon="26.026653">
<time>2020-09-12T11:59:41Z</time>
</trkpt>
<trkpt lat="61.106653" lon="26.026598">
<time>2020-09-12T11:59:42Z</time>
</trkpt>
<trkpt lat="61.106583" lon="26.026528">
<time>2020-09-12T11:59:43Z</time>
</trkpt>
<trkpt lat="61.106515" lon="26.026433">
<time>2020-09-12T11:59:44Z</time>
</trkpt>
<trkpt lat="61.106446" lon="26.026321">
<time>2020-09-12T11:59:45Z</time>
</trkpt>
<trkpt lat="61.106385" lon="26.026206">
<time>2020-09-12T11:59:46Z</time>
</trkpt>
<trkpt lat="61.106321" lon="26.026095">
<time>2020-09-12T11:59:47Z</time>
</trkpt>
<trkpt lat="61.106256" lon="26.025985">
<time>2020-09-12T11:59:48Z</time>
</trkpt>
<trkpt lat="61.10619" lon="26.025883">
<time>2020-09-12T11:59:49Z</time>
</trkpt>
<trkpt lat="61.106123" lon="26.025788">
<time>2020-09-12T11:59:50Z</time>
</trkpt>
<trkpt lat="61.106046" lon="26.025701">
<time>2020-09-12T11:59:51Z</time>
</trkpt>
<trkpt lat="61.105975" lon="26.02563">
<time>2020-09-12T11:59:52Z</time>
</trkpt>
<trkpt lat="61.105913" lon="26.0256">
<time>2020-09-12T11:59:53Z</time>
</trkpt>
<trkpt lat="61.105855" lon="26.025615">
<time>2020-09-12T11:59:54Z</time>
</trkpt>
<trkpt lat="61.105805" lon="26.025661">
<time>2020-09-12T11:59:55Z</time>
</trkpt>
<trkpt lat="61.105763" lon="26.025738">
<time>2020-09-12T11:59:56Z</time>
</trkpt>
<trkpt lat="61.105738" lon="26.025823">
<time>2020-09-12T11:59:57Z</time>
</trkpt>
<trkpt lat="61.105723" lon="26.02595">
<time>2020-09-12T11:59:58Z</time>
</trkpt>
<trkpt lat="61.10573" lon="26.026101">
<time>2020-09-12T11:59:59Z</time>
</trkpt>
<trkpt lat="61.105745" lon="26.026263">
<time>2020-09-12T12:00:00Z</time>
</trkpt>
<trkpt lat="61.105765" lon="26.026435">
<time>2020-09-12T12:00:01Z</time>
</trkpt>
<trkpt lat="61.10578" lon="26.026611">
<time>2020-09-12T12:00:02Z</time>
</trkpt>
<trkpt lat="61.105798" lon="26.026778">
<time>2020-09-12T12:00:03Z</time>
</trkpt>
<trkpt lat="61.105818" lon="26.02695">
<time>2020-09-12T12:00:04Z</time>
</trkpt>
<trkpt lat="61.105835" lon="26.02712">
<time>2020-09-12T12:00:05Z</time>
</trkpt>
<trkpt lat="61.105853" lon="26.027286">
<time>2020-09-12T12:00:06Z</time>
</trkpt>
<trkpt lat="61.105871" lon="26.027445">
<time>2020-09-12T12:00:07Z</time>
</trkpt>
<trkpt lat="61.105898" lon="26.027596">
<time>2020-09-12T12:00:08Z</time>
</trkpt>
<trkpt lat="61.105928" lon="26.02774">
<time>2020-09-12T12:00:09Z</time>
</trkpt>
<trkpt lat="61.105965" lon="26.027876">
<time>2020-09-12T12:00:10Z</time>
</trkpt>
<trkpt lat="61.106006" lon="26.028005">
<time>2020-09-12T12:00:11Z</time>
</trkpt>
<trkpt lat="61.106053" lon="26.02812">
<time>2020-09-12T12:00:12Z</time>
</trkpt>
<trkpt lat="61.106093" lon="26.028223">
<time>2020-09-12T12:00:13Z</time>
</trkpt>
<trkpt lat="61.10613" lon="26.028325">
<time>2020-09-12T12:00:14Z</time>
</trkpt>
<trkpt lat="61.106166" lon="26.028418">
<time>2020-09-12T12:00:15Z</time>
</trkpt>
<trkpt lat="61.106201" lon="26.028508">
<time>2020-09-12T12:00:16Z</time>
</trkpt>
<trkpt lat="61.106236" lon="26.02859">
<time>2020-09-12T12:00:17Z</time>
</trkpt>
<trkpt lat="61.106273" lon="26.028675">
<time>2020-09-12T12:00:18Z</time>
</trkpt>
<trkpt lat="61.1063" lon="26.028755">
<time>2020-09-12T12:00:19Z</time>
</trkpt>
<trkpt lat="61.10632" lon="26.028816">
<time>2020-09-12T12:00:20Z</time>
</trkpt>
<trkpt lat="61.106333" lon="26.028843">
<time>2020-09-12T12:00:21Z</time>
</trkpt>
<trkpt lat="61.106333" lon="26.028838">
<time>2020-09-12T12:00:22Z</time>
</trkpt>
<trkpt lat="61.106325" lon="26.02881">
<time>2020-09-12T12:00:23Z</time>
</trkpt>
<trkpt lat="61.10631" lon="26.028758">
<time>2020-09-12T12:00:24Z</time>
</trkpt>
<trkpt lat="61.10629" lon="26.028691">
<time>2020-09-12T12:00:25Z</time>
</trkpt>
<trkpt lat="61.106261" lon="26.028586">
<time>2020-09-12T12:00:26Z</time>
</trkpt>
<trkpt lat="61.106226" lon="26.028491">
<time>2020-09-12T12:00:27Z</time>
</trkpt>
<trkpt lat="61.106181" lon="26.028383">
<time>2020-09-12T12:00:28Z</time>
</trkpt>
<trkpt lat="61.10613" lon="26.028263">
<time>2020-09-12T12:00:29Z</time>
</trkpt>
<trkpt lat="61.106075" lon="26.028136">
<time>2020-09-12T12:00:30Z</time>
</trkpt>
<trkpt lat="61.106021" lon="26.027996">
<time>2020-09-12T12:00:31Z</time>
</trkpt>
<trkpt lat="61.105971" lon="26.027848">
<time>2020-09-12T12:00:32Z</time>
</trkpt>
<trkpt lat="61.105935" lon="26.02769">
<time>2020-09-12T12:00:33Z</time>
</trkpt>
<trkpt lat="61.105911" lon="26.027525">
<time>2020-09-12T12:00:34Z</time>
</trkpt>
<trkpt lat="61.10589" lon="26.027368">
<time>2020-09-12T12:00:35Z</time>
</trkpt>
<trkpt lat="61.10587" lon="26.027213">
<time>2020-09-12T12:00:36Z</time>
</trkpt>
<trkpt lat="61.105853" lon="26.027061">
<time>2020-09-12T12:00:37Z</time>
</trkpt>
<trkpt lat="61.105848" lon="26.026928">
<time>2020-09-12T12:00:38Z</time>
</trkpt>
<trkpt lat="61.105846" lon="26.0268">
<time>2020-09-12T12:00:39Z</time>
</trkpt>
<trkpt lat="61.105841" lon="26.026668">
<time>2020-09-12T12:00:40Z</time>
</trkpt>
<trkpt lat="61.105835" lon="26.026533">
<time>2020-09-12T12:00:41Z</time>
</trkpt>
<trkpt lat="61.105823" lon="26.026395">
<time>2020-09-12T12:00:42Z</time>
</trkpt>
<trkpt lat="61.105808" lon="26.02626">
<time>2020-09-12T12:00:43Z</time>
</trkpt>
<trkpt lat="61.105793" lon="26.026128">
<time>2020-09-12T12:00:44Z</time>
</trkpt>
<trkpt lat="61.105781" lon="26.026001">
<time>2020-09-12T12:00:45Z</time>
</trkpt>
<trkpt lat="61.105781" lon="26.025885">
<time>2020-09-12T12:00:46Z</time>
</trkpt>
<trkpt lat="61.105791" lon="26.025776">
<time>2020-09-12T12:00:47Z</time>
</trkpt>
<trkpt lat="61.105815" lon="26.025678">
<time>2020-09-12T12:00:48Z</time>
</trkpt>
<trkpt lat="61.105843" lon="26.025596">
<time>2020-09-12T12:00:49Z</time>
</trkpt>
<trkpt lat="61.105865" lon="26.02552">
<time>2020-09-12T12:00:50Z</time>
</trkpt>
<trkpt lat="61.105878" lon="26.025451">
<time>2020-09-12T12:00:51Z</time>
</trkpt>
<trkpt lat="61.105875" lon="26.0254">
<time>2020-09-12T12:00:52Z</time>
</trkpt>
<trkpt lat="61.105848" lon="26.025371">
<time>2020-09-12T12:00:53Z</time>
</trkpt>
<trkpt lat="61.105813" lon="26.025338">
<time>2020-09-12T12:00:54Z</time>
</trkpt>
<trkpt lat="61.105751" lon="26.025308">
<time>2020-09-12T12:00:55Z</time>
</trkpt>
<trkpt lat="61.105688" lon="26.025271">
<time>2020-09-12T12:00:56Z</time>
</trkpt>
<trkpt lat="61.10562" lon="26.025253">
<time>2020-09-12T12:00:57Z</time>
</trkpt>
<trkpt lat="61.105548" lon="26.025256">
<time>2020-09-12T12:00:58Z</time>
</trkpt>
<trkpt lat="61.105476" lon="26.025266">
<time>2020-09-12T12:00:59Z</time>
</trkpt>
<trkpt lat="61.105405" lon="26.025295">
<time>2020-09-12T12:01:00Z</time>
</trkpt>
<trkpt lat="61.105338" lon="26.02534">
<time>2020-09-12T12:01:01Z</time>
</trkpt>
<trkpt lat="61.105271" lon="26.025398">
<time>2020-09-12T12:01:02Z</time>
</trkpt>
<trkpt lat="61.105201" lon="26.025483">
<time>2020-09-12T12:01:03Z</time>
</trkpt>
<trkpt lat="61.105135" lon="26.025576">
<time>2020-09-12T12:01:04Z</time>
</trkpt>
<trkpt lat="61.105068" lon="26.025663">
<time>2020-09-12T12:01:05Z</time>
</trkpt>
<trkpt lat="61.105" lon="26.025753">
<time>2020-09-12T12:01:06Z</time>
</trkpt>
<trkpt lat="61.10494" lon="26.025798">
<time>2020-09-12T12:01:07Z</time>
</trkpt>
<trkpt lat="61.104875" lon="26.025835">
<time>2020-09-12T12:01:08Z</time>
</trkpt>
<trkpt lat="61.104813" lon="26.025853">
<time>2020-09-12T12:01:09Z</time>
</trkpt>
<trkpt lat="61.104758" lon="26.025858">
<time>2020-09-12T12:01:10Z</time>
</trkpt>
<trkpt lat="61.104701" lon="26.02586">
<time>2020-09-12T12:01:11Z</time>
</trkpt>
<trkpt lat="61.104655" lon="26.025838">
<time>2020-09-12T12:01:12Z</time>
</trkpt>
<trkpt lat="61.104596" lon="26.025798">
<time>2020-09-12T12:01:13Z</time>
</trkpt>
<trkpt lat="61.10454" lon="26.025723">
<time>2020-09-12T12:01:14Z</time>
</trkpt>
<trkpt lat="61.104493" lon="26.025661">
<time>2020-09-12T12:01:15Z</time>
</trkpt>
<trkpt lat="61.10445" lon="26.025595">
<time>2020-09-12T12:01:16Z</time>
</trkpt>
<trkpt lat="61.104408" lon="26.025531">
<time>2020-09-12T12:01:17Z</time>
</trkpt>
<trkpt lat="61.104365" lon="26.025471">
<time>2020-09-12T12:01:18Z</time>
</trkpt>
<trkpt lat="61.104316" lon="26.02543">
<time>2020-09-12T12:01:19Z</time>
</trkpt>
<trkpt lat="61.104265" lon="26.025395">
<time>2020-09-12T12:01:20Z</time>
</trkpt>
<trkpt lat="61.104213" lon="26.025375">
<time>2020-09-12T12:01:21Z</time>
</trkpt>
<trkpt lat="61.10416" lon="26.025358">
<time>2020-09-12T12:01:22Z</time>
</trkpt>
<trkpt lat="61.104108" lon="26.02535">
<time>2020-09-12T12:01:23Z</time>
</trkpt>
<trkpt lat="61.104063" lon="26.02534">
<time>2020-09-12T12:01:24Z</time>
</trkpt>
<trkpt lat="61.104018" lon="26.025323">
<time>2020-09-12T12:01:25Z</time>
</trkpt>
<trkpt lat="61.10398" lon="26.025301">
<time>2020-09-12T12:01:26Z</time>
</trkpt>
<trkpt lat="61.10394" lon="26.025278">
<time>2020-09-12T12:01:27Z</time>
</trkpt>
<trkpt lat="61.103896" lon="26.02525">
<time>2020-09-12T12:01:28Z</time>
</trkpt>
<trkpt lat="61.103855" lon="26.025218">
<time>2020-09-12T12:01:29Z</time>
</trkpt>
<trkpt lat="61.103815" lon="26.025176">
<time>2020-09-12T12:01:30Z</time>
</trkpt>
<trkpt lat="61.103773" lon="26.025141">
<time>2020-09-12T12:01:31Z</time>
</trkpt>
<trkpt lat="61.10373" lon="26.025103">
<time>2020-09-12T12:01:32Z</time>
</trkpt>
<trkpt lat="61.103681" lon="26.025061">
<time>2020-09-12T12:01:33Z</time>
</trkpt>
<trkpt lat="61.103636" lon="26.025021">
<time>2020-09-12T12:01:34Z</time>
</trkpt>
<trkpt lat="61.103591" lon="26.024978">
<time>2020-09-12T12:01:35Z</time>
</trkpt>
<trkpt lat="61.103545" lon="26.02494">
<time>2020-09-12T12:01:36Z</time>
</trkpt>
<trkpt lat="61.103501" lon="26.024903">
<time>2020-09-12T12:01:37Z</time>
</trkpt>
<trkpt lat="61.10346" lon="26.024868">
<time>2020-09-12T12:01:38Z</time>
</trkpt>
<trkpt lat="61.103416" lon="26.024831">
<time>2020-09-12T12:01:39Z</time>
</trkpt>
<trkpt lat="61.103373" lon="26.02479">
<time>2020-09-12T12:01:40Z</time>
</trkpt>
<trkpt lat="61.103326" lon="26.024756">
<time>2020-09-12T12:01:41Z</time>
</trkpt>
<trkpt lat="61.10328" lon="26.024726">
<time>2020-09-12T12:01:42Z</time>
</trkpt>
<trkpt lat="61.103233" lon="26.024698">
<time>2020-09-12T12:01:43Z</time>
</trkpt>
<trkpt lat="61.103183" lon="26.024671">
<time>2020-09-12T12:01:44Z</time>
</trkpt>
<trkpt lat="61.103133" lon="26.02465">
<time>2020-09-12T12:01:45Z</time>
</trkpt>
<trkpt lat="61.103083" lon="26.024631">
<time>2020-09-12T12:01:46Z</time>
</trkpt>
<trkpt lat="61.103031" lon="26.024608">
<time>2020-09-12T12:01:47Z</time>
</trkpt>
<trkpt lat="61.102985" lon="26.024585">
<time>2020-09-12T12:01:48Z</time>
</trkpt>
<trkpt lat="61.102938" lon="26.024561">
<time>2020-09-12T12:01:49Z</time>
</trkpt>
<trkpt lat="61.102886" lon="26.024545">
<time>2020-09-12T12:01:50Z</time>
</trkpt>
<trkpt lat="61.102838" lon="26.02453">
<time>2020-09-12T12:01:51Z</time>
</trkpt>
<trkpt lat="61.102791" lon="26.024515">
<time>2020-09-12T12:01:52Z</time>
</trkpt>
<trkpt lat="61.102748" lon="26.02449">
<time>2020-09-12T12:01:53Z</time>
</trkpt>
<trkpt lat="61.102706" lon="26.02444">
<time>2020-09-12T12:01:54Z</time>
</trkpt>
<trkpt lat="61.102673" lon="26.024368">
<time>2020-09-12T12:01:55Z</time>
</trkpt>
<trkpt lat="61.102645" lon="26.024288">
<time>2020-09-12T12:01:56Z</time>
</trkpt>
<trkpt lat="61.10262" lon="26.02421">
<time>2020-09-12T12:01:57Z</time>
</trkpt>
<trkpt lat="61.102601" lon="26.024148">
<time>2020-09-12T12:01:58Z</time>
</trkpt>
<trkpt lat="61.10258" lon="26.024081">
<time>2020-09-12T12:01:59Z</time>
</trkpt>
<trkpt lat="61.102553" lon="26.024006">
<time>2020-09-12T12:02:00Z</time>
</trkpt>
<trkpt lat="61.102528" lon="26.023926">
<time>2020-09-12T12:02:01Z</time>
</trkpt>
<trkpt lat="61.102505" lon="26.023856">
<time>2020-09-12T12:02:02Z</time>
</trkpt>
<trkpt lat="61.102483" lon="26.023803">
<time>2020-09-12T12:02:03Z</time>
</trkpt>
<trkpt lat="61.102455" lon="26.023735">
<time>2020-09-12T12:02:04Z</time>
</trkpt>
<trkpt lat="61.102426" lon="26.02367">
<time>2020-09-12T12:02:05Z</time>
</trkpt>
<trkpt lat="61.102388" lon="26.023595">
<time>2020-09-12T12:02:06Z</time>
</trkpt>
<trkpt lat="61.102355" lon="26.023543">
<time>2020-09-12T12:02:07Z</time>
</trkpt>
<trkpt lat="61.102326" lon="26.023525">
<time>2020-09-12T12:02:08Z</time>
</trkpt>
<trkpt lat="61.102305" lon="26.02353">
<time>2020-09-12T12:02:09Z</time>
</trkpt>
<trkpt lat="61.102288" lon="26.023563">
<time>2020-09-12T12:02:10Z</time>
</trkpt>
<trkpt lat="61.102276" lon="26.023636">
<time>2020-09-12T12:02:11Z</time>
</trkpt>
<trkpt lat="61.10227" lon="26.023728">
<time>2020-09-12T12:02:12Z</time>
</trkpt>
<trkpt lat="61.10226" lon="26.02383">
<time>2020-09-12T12:02:13Z</time>
</trkpt>
<trkpt lat="61.102233" lon="26.02393">
<time>2020-09-12T12:02:14Z</time>
</trkpt>
<trkpt lat="61.102196" lon="26.024011">
<time>2020-09-12T12:02:15Z</time>
</trkpt>
<trkpt lat="61.102145" lon="26.0241">
<time>2020-09-12T12:02:16Z</time>
</trkpt>
<trkpt lat="61.102095" lon="26.024155">
<time>2020-09-12T12:02:17Z</time>
</trkpt>
<trkpt lat="61.102045" lon="26.024193">
<time>2020-09-12T12:02:18Z</time>
</trkpt>
<trkpt lat="61.101993" lon="26.024215">
<time>2020-09-12T12:02:19Z</time>
</trkpt>
<trkpt lat="61.101945" lon="26.024218">
<time>2020-09-12T12:02:20Z</time>
</trkpt>
<trkpt lat="61.101896" lon="26.024196">
<time>2020-09-12T12:02:21Z</time>
</trkpt>
<trkpt lat="61.10185" lon="26.024165">
<time>2020-09-12T12:02:22Z</time>
</trkpt>
<trkpt lat="61.101811" lon="26.024133">
<time>2020-09-12T12:02:23Z</time>
</trkpt>
<trkpt lat="61.101755" lon="26.02409">
<time>2020-09-12T12:02:24Z</time>
</trkpt>
<trkpt lat="61.101716" lon="26.02405">
<time>2020-09-12T12:02:25Z</time>
</trkpt>
<trkpt lat="61.101665" lon="26.024005">
<time>2020-09-12T12:02:26Z</time>
</trkpt>
<trkpt lat="61.101615" lon="26.02396">
<time>2020-09-12T12:02:27Z</time>
</trkpt>
<trkpt lat="61.10157" lon="26.023926">
<time>2020-09-12T12:02:28Z</time>
</trkpt>
<trkpt lat="61.10151" lon="26.023895">
<time>2020-09-12T12:02:29Z</time>
</trkpt>
<trkpt lat="61.101436" lon="26.02386">
<time>2020-09-12T12:02:30Z</time>
</trkpt>
<trkpt lat="61.101375" lon="26.023838">
<time>2020-09-12T12:02:31Z</time>
</trkpt>
<trkpt lat="61.10131" lon="26.023818">
<time>2020-09-12T12:02:32Z</time>
</trkpt>
<trkpt lat="61.101243" lon="26.023803">
<time>2020-09-12T12:02:33Z</time>
</trkpt>
<trkpt lat="61.101178" lon="26.023796">
<time>2020-09-12T12:02:34Z</time>
</trkpt>
<trkpt lat="61.101116" lon="26.023803">
<time>2020-09-12T12:02:35Z</time>
</trkpt>
<trkpt lat="61.101053" lon="26.023818">
<time>2020-09-12T12:02:36Z</time>
</trkpt>
<trkpt lat="61.100988" lon="26.02385">
<time>2020-09-12T12:02:37Z</time>
</trkpt>
<trkpt lat="61.100918" lon="26.02389">
<time>2020-09-12T12:02:38Z</time>
</trkpt>
<trkpt lat="61.100846" lon="26.023923">
<time>2020-09-12T12:02:39Z</time>
</trkpt>
<trkpt lat="61.100795" lon="26.02394">
<time>2020-09-12T12:02:40Z</time>
</trkpt>
<trkpt lat="61.100715" lon="26.023961">
<time>2020-09-12T12:02:41Z</time>
</trkpt>
<trkpt lat="61.10065" lon="26.023968">
<time>2020-09-12T12:02:42Z</time>
</trkpt>
<trkpt lat="61.100595" lon="26.02398">
<time>2020-09-12T12:02:43Z</time>
</trkpt>
<trkpt lat="61.100518" lon="26.024008">
<time>2020-09-12T12:02:44Z</time>
</trkpt>
<trkpt lat="61.100456" lon="26.024043">
<time>2020-09-12T12:02:45Z</time>
</trkpt>
<trkpt lat="61.100396" lon="26.024076">
<time>2020-09-12T12:02:46Z</time>
</trkpt>
<trkpt lat="61.100335" lon="26.024103">
<time>2020-09-12T12:02:47Z</time>
</trkpt>
<trkpt lat="61.10027" lon="26.024123">
<time>2020-09-12T12:02:48Z</time>
</trkpt>
<trkpt lat="61.100201" lon="26.024145">
<time>2020-09-12T12:02:49Z</time>
</trkpt>
<trkpt lat="61.100131" lon="26.024168">
<time>2020-09-12T12:02:50Z</time>
</trkpt>
<trkpt lat="61.10006" lon="26.02418">
<time>2020-09-12T12:02:51Z</time>
</trkpt>
<trkpt lat="61.099985" lon="26.024185">
<time>2020-09-12T12:02:52Z</time>
</trkpt>
<trkpt lat="61.099923" lon="26.024193">
<time>2020-09-12T12:02:53Z</time>
</trkpt>
<trkpt lat="61.099835" lon="26.024223">
<time>2020-09-12T12:02:54Z</time>
</trkpt>
<trkpt lat="61.09977" lon="26.024286">
<time>2020-09-12T12:02:55Z</time>
</trkpt>
<trkpt lat="61.099723" lon="26.024358">
<time>2020-09-12T12:02:56Z</time>
</trkpt>
<trkpt lat="61.09968" lon="26.024441">
<time>2020-09-12T12:02:57Z</time>
</trkpt>
<trkpt lat="61.099638" lon="26.024535">
<time>2020-09-12T12:02:58Z</time>
</trkpt>
<trkpt lat="61.099603" lon="26.02462">
<time>2020-09-12T12:02:59Z</time>
</trkpt>
<trkpt lat="61.099563" lon="26.02473">
<time>2020-09-12T12:03:00Z</time>
</trkpt>
<trkpt lat="61.099508" lon="26.02487">
<time>2020-09-12T12:03:01Z</time>
</trkpt>
<trkpt lat="61.099458" lon="26.024983">
<time>2020-09-12T12:03:02Z</time>
</trkpt>
<trkpt lat="61.099405" lon="26.025078">
<time>2020-09-12T12:03:03Z</time>
</trkpt>
<trkpt lat="61.099343" lon="26.025166">
<time>2020-09-12T12:03:04Z</time>
</trkpt>
<trkpt lat="61.09929" lon="26.025233">
<time>2020-09-12T12:03:05Z</time>
</trkpt>
<trkpt lat="61.09921" lon="26.025331">
<time>2020-09-12T12:03:06Z</time>
</trkpt>
<trkpt lat="61.099143" lon="26.025421">
<time>2020-09-12T12:03:07Z</time>
</trkpt>
<trkpt lat="61.099078" lon="26.025518">
<time>2020-09-12T12:03:08Z</time>
</trkpt>
<trkpt lat="61.099028" lon="26.025601">
<time>2020-09-12T12:03:09Z</time>
</trkpt>
<trkpt lat="61.098965" lon="26.025743">
<time>2020-09-12T12:03:10Z</time>
</trkpt>
<trkpt lat="61.09892" lon="26.025885">
<time>2020-09-12T12:03:11Z</time>
</trkpt>
<trkpt lat="61.098881" lon="26.026028">
<time>2020-09-12T12:03:12Z</time>
</trkpt>
<trkpt lat="61.098846" lon="26.026178">
<time>2020-09-12T12:03:13Z</time>
</trkpt>
<trkpt lat="61.098811" lon="26.026338">
<time>2020-09-12T12:03:14Z</time>
</trkpt>
<trkpt lat="61.098783" lon="26.026503">
<time>2020-09-12T12:03:15Z</time>
</trkpt>
<trkpt lat="61.09877" lon="26.026655">
<time>2020-09-12T12:03:16Z</time>
</trkpt>
<trkpt lat="61.09877" lon="26.026801">
<time>2020-09-12T12:03:17Z</time>
</trkpt>
<trkpt lat="61.098775" lon="26.026945">
<time>2020-09-12T12:03:18Z</time>
</trkpt>
<trkpt lat="61.098781" lon="26.02706">
<time>2020-09-12T12:03:19Z</time>
</trkpt>
<trkpt lat="61.098795" lon="26.027223">
<time>2020-09-12T12:03:20Z</time>
</trkpt>
<trkpt lat="61.098806" lon="26.027358">
<time>2020-09-12T12:03:21Z</time>
</trkpt>
<trkpt lat="61.09882" lon="26.027495">
<time>2020-09-12T12:03:22Z</time>
</trkpt>
<trkpt lat="61.09884" lon="26.027635">
<time>2020-09-12T12:03:23Z</time>
</trkpt>
<trkpt lat="61.098858" lon="26.027746">
<time>2020-09-12T12:03:24Z</time>
</trkpt>
<trkpt lat="61.09888" lon="26.0279">
<time>2020-09-12T12:03:25Z</time>
</trkpt>
<trkpt lat="61.098915" lon="26.028088">
<time>2020-09-12T12:03:26Z</time>
</trkpt>
<trkpt lat="61.098955" lon="26.028241">
<time>2020-09-12T12:03:27Z</time>
</trkpt>
<trkpt lat="61.099003" lon="26.02838">
<time>2020-09-12T12:03:28Z</time>
</trkpt>
<trkpt lat="61.099048" lon="26.028485">
<time>2020-09-12T12:03:29Z</time>
</trkpt>
<trkpt lat="61.0991" lon="26.028611">
<time>2020-09-12T12:03:30Z</time>
</trkpt>
<trkpt lat="61.099151" lon="26.028736">
<time>2020-09-12T12:03:31Z</time>
</trkpt>
<trkpt lat="61.099208" lon="26.028888">
<time>2020-09-12T12:03:32Z</time>
</trkpt>
<trkpt lat="61.099253" lon="26.029016">
<time>2020-09-12T12:03:33Z</time>
</trkpt>
<trkpt lat="61.099291" lon="26.029155">
<time>2020-09-12T12:03:34Z</time>
</trkpt>
<trkpt lat="61.099326" lon="26.029291">
<time>2020-09-12T12:03:35Z</time>
</trkpt>
<trkpt lat="61.09935" lon="26.029401">
<time>2020-09-12T12:03:36Z</time>
</trkpt>
<trkpt lat="61.099368" lon="26.029573">
<time>2020-09-12T12:03:37Z</time>
</trkpt>
<trkpt lat="61.099371" lon="26.029718">
<time>2020-09-12T12:03:38Z</time>
</trkpt>
<trkpt lat="61.099383" lon="26.02985">
<time>2020-09-12T12:03:39Z</time>
</trkpt>
<trkpt lat="61.099398" lon="26.029981">
<time>2020-09-12T12:03:40Z</time>
</trkpt>
<trkpt lat="61.099428" lon="26.030103">
<time>2020-09-12T12:03:41Z</time>
</trkpt>
<trkpt lat="61.099473" lon="26.03022">
<time>2020-09-12T12:03:42Z</time>
</trkpt>
<trkpt lat="61.099521" lon="26.030336">
<time>2020-09-12T12:03:43Z</time>
</trkpt>
<trkpt lat="61.099566" lon="26.030428">
<time>2020-09-12T12:03:44Z</time>
</trkpt>
<trkpt lat="61.09962" lon="26.030541">
<time>2020-09-12T12:03:45Z</time>
</trkpt>
<trkpt lat="61.099685" lon="26.030668">
<time>2020-09-12T12:03:46Z</time>
</trkpt>
<trkpt lat="61.099741" lon="26.03077">
<time>2020-09-12T12:03:47Z</time>
</trkpt>
<trkpt lat="61.099796" lon="26.03088">
<time>2020-09-12T12:03:48Z</time>
</trkpt>
<trkpt lat="61.099835" lon="26.030976">
<time>2020-09-12T12:03:49Z</time>
</trkpt>
<trkpt lat="61.099888" lon="26.031125">
<time>2020-09-12T12:03:50Z</time>
</trkpt>
<trkpt lat="61.09992" lon="26.031226">
<time>2020-09-12T12:03:51Z</time>
</trkpt>
<trkpt lat="61.099971" lon="26.031368">
<time>2020-09-12T12:03:52Z</time>
</trkpt>
<trkpt lat="61.10002" lon="26.031483">
<time>2020-09-12T12:03:53Z</time>
</trkpt>
<trkpt lat="61.100061" lon="26.031601">
<time>2020-09-12T12:03:54Z</time>
</trkpt>
<trkpt lat="61.100098" lon="26.031693">
<time>2020-09-12T12:03:55Z</time>
</trkpt>
<trkpt lat="61.100145" lon="26.031808">
<time>2020-09-12T12:03:56Z</time>
</trkpt>
<trkpt lat="61.1002" lon="26.031945">
<time>2020-09-12T12:03:57Z</time>
</trkpt>
<trkpt lat="61.100246" lon="26.032055">
<time>2020-09-12T12:03:58Z</time>
</trkpt>
<trkpt lat="61.100285" lon="26.032156">
<time>2020-09-12T12:03:59Z</time>
</trkpt>
<trkpt lat="61.100313" lon="26.032236">
<time>2020-09-12T12:04:00Z</time>
</trkpt>
<trkpt lat="61.100331" lon="26.03229">
<time>2020-09-12T12:04:01Z</time>
</trkpt>
<trkpt lat="61.100363" lon="26.032371">
<time>2020-09-12T12:04:02Z</time>
</trkpt>
<trkpt lat="61.100393" lon="26.032443">
<time>2020-09-12T12:04:03Z</time>
</trkpt>
<trkpt lat="61.10042" lon="26.032526">
<time>2020-09-12T12:04:04Z</time>
</trkpt>
<trkpt lat="61.10045" lon="26.032616">
<time>2020-09-12T12:04:05Z</time>
</trkpt>
<trkpt lat="61.100468" lon="26.03271">
<time>2020-09-12T12:04:06Z</time>
</trkpt>
<trkpt lat="61.10047" lon="26.032805">
<time>2020-09-12T12:04:07Z</time>
</trkpt>
<trkpt lat="61.100456" lon="26.032893">
<time>2020-09-12T12:04:08Z</time>
</trkpt>
<trkpt lat="61.100431" lon="26.032978">
<time>2020-09-12T12:04:09Z</time>
</trkpt>
<trkpt lat="61.1004" lon="26.03306">
<time>2020-09-12T12:04:10Z</time>
</trkpt>
<trkpt lat="61.100373" lon="26.033126">
<time>2020-09-12T12:04:11Z</time>
</trkpt>
<trkpt lat="61.100341" lon="26.033225">
<time>2020-09-12T12:04:12Z</time>
</trkpt>
<trkpt lat="61.100316" lon="26.03331">
<time>2020-09-12T12:04:13Z</time>
</trkpt>
<trkpt lat="61.100295" lon="26.033391">
<time>2020-09-12T12:04:14Z</time>
</trkpt>
<trkpt lat="61.100278" lon="26.033471">
<time>2020-09-12T12:04:15Z</time>
</trkpt>
<trkpt lat="61.100266" lon="26.033556">
<time>2020-09-12T12:04:16Z</time>
</trkpt>
<trkpt lat="61.100258" lon="26.033643">
<time>2020-09-12T12:04:17Z</time>
</trkpt>
<trkpt lat="61.10026" lon="26.033725">
<time>2020-09-12T12:04:18Z</time>
</trkpt>
<trkpt lat="61.100263" lon="26.033808">
<time>2020-09-12T12:04:19Z</time>
</trkpt>
<trkpt lat="61.100261" lon="26.033875">
<time>2020-09-12T12:04:20Z</time>
</trkpt>
<trkpt lat="61.100253" lon="26.033955">
<time>2020-09-12T12:04:21Z</time>
</trkpt>
<trkpt lat="61.10024" lon="26.03405">
<time>2020-09-12T12:04:22Z</time>
</trkpt>
<trkpt lat="61.100221" lon="26.034131">
<time>2020-09-12T12:04:23Z</time>
</trkpt>
<trkpt lat="61.100203" lon="26.034211">
<time>2020-09-12T12:04:24Z</time>
</trkpt>
<trkpt lat="61.100181" lon="26.034293">
<time>2020-09-12T12:04:25Z</time>
</trkpt>
<trkpt lat="61.100163" lon="26.034358">
<time>2020-09-12T12:04:26Z</time>
</trkpt>
<trkpt lat="61.100135" lon="26.034435">
<time>2020-09-12T12:04:27Z</time>
</trkpt>
<trkpt lat="61.100101" lon="26.034528">
<time>2020-09-12T12:04:28Z</time>
</trkpt>
<trkpt lat="61.100075" lon="26.034598">
<time>2020-09-12T12:04:29Z</time>
</trkpt>
<trkpt lat="61.10005" lon="26.034656">
<time>2020-09-12T12:04:30Z</time>
</trkpt>
<trkpt lat="61.100023" lon="26.034703">
<time>2020-09-12T12:04:31Z</time>
</trkpt>
<trkpt lat="61.099998" lon="26.034741">
<time>2020-09-12T12:04:32Z</time>
</trkpt>
<trkpt lat="61.099958" lon="26.034808">
<time>2020-09-12T12:04:33Z</time>
</trkpt>
<trkpt lat="61.09993" lon="26.034863">
<time>2020-09-12T12:04:34Z</time>
</trkpt>
<trkpt lat="61.099901" lon="26.034918">
<time>2020-09-12T12:04:35Z</time>
</trkpt>
<trkpt lat="61.09987" lon="26.034966">
<time>2020-09-12T12:04:36Z</time>
</trkpt>
<trkpt lat="61.099833" lon="26.034993">
<time>2020-09-12T12:04:37Z</time>
</trkpt>
<trkpt lat="61.099798" lon="26.034988">
<time>2020-09-12T12:04:38Z</time>
</trkpt>
<trkpt lat="61.09977" lon="26.034955">
<time>2020-09-12T12:04:39Z</time>
</trkpt>
<trkpt lat="61.099745" lon="26.034901">
<time>2020-09-12T12:04:40Z</time>
</trkpt>
<trkpt lat="61.09972" lon="26.034835">
<time>2020-09-12T12:04:41Z</time>
</trkpt>
<trkpt lat="61.099686" lon="26.034748">
<time>2020-09-12T12:04:42Z</time>
</trkpt>
<trkpt lat="61.099658" lon="26.034665">
<time>2020-09-12T12:04:43Z</time>
</trkpt>
<trkpt lat="61.099628" lon="26.034576">
<time>2020-09-12T12:04:44Z</time>
</trkpt>
<trkpt lat="61.099593" lon="26.034493">
<time>2020-09-12T12:04:45Z</time>
</trkpt>
<trkpt lat="61.099561" lon="26.034398">
<time>2020-09-12T12:04:46Z</time>
</trkpt>
<trkpt lat="61.099528" lon="26.034296">
<time>2020-09-12T12:04:47Z</time>
</trkpt>
<trkpt lat="61.099495" lon="26.034191">
<time>2020-09-12T12:04:48Z</time>
</trkpt>
<trkpt lat="61.099456" lon="26.03409">
<time>2020-09-12T12:04:49Z</time>
</trkpt>
<trkpt lat="61.099411" lon="26.033995">
<time>2020-09-12T12:04:50Z</time>
</trkpt>
<trkpt lat="61.09937" lon="26.03391">
<time>2020-09-12T12:04:51Z</time>
</trkpt>
<trkpt lat="61.099325" lon="26.033828">
<time>2020-09-12T12:04:52Z</time>
</trkpt>
<trkpt lat="61.099283" lon="26.033741">
<time>2020-09-12T12:04:53Z</time>
</trkpt>
<trkpt lat="61.099243" lon="26.033643">
<time>2020-09-12T12:04:54Z</time>
</trkpt>
<trkpt lat="61.099208" lon="26.03354">
<time>2020-09-12T12:04:55Z</time>
</trkpt>
<trkpt lat="61.099171" lon="26.033441">
<time>2020-09-12T12:04:56Z</time>
</trkpt>
<trkpt lat="61.09914" lon="26.033368">
<time>2020-09-12T12:04:57Z</time>
</trkpt>
<trkpt lat="61.099093" lon="26.033266">
<time>2020-09-12T12:04:58Z</time>
</trkpt>
<trkpt lat="61.099053" lon="26.033205">
<time>2020-09-12T12:04:59Z</time>
</trkpt>
<trkpt lat="61.099013" lon="26.033173">
<time>2020-09-12T12:05:00Z</time>
</trkpt>
<trkpt lat="61.098975" lon="26.033158">
<time>2020-09-12T12:05:01Z</time>
</trkpt>
<trkpt lat="61.098938" lon="26.033143">
<time>2020-09-12T12:05:02Z</time>
</trkpt>
<trkpt lat="61.098896" lon="26.033131">
<time>2020-09-12T12:05:03Z</time>
</trkpt>
<trkpt lat="61.098848" lon="26.03312">
<time>2020-09-12T12:05:04Z</time>
</trkpt>
<trkpt lat="61.098796" lon="26.033103">
<time>2020-09-12T12:05:05Z</time>
</trkpt>
<trkpt lat="61.098751" lon="26.033075">
<time>2020-09-12T12:05:06Z</time>
</trkpt>
<trkpt lat="61.098713" lon="26.033021">
<time>2020-09-12T12:05:07Z</time>
</trkpt>
<trkpt lat="61.098685" lon="26.032938">
<time>2020-09-12T12:05:08Z</time>
</trkpt>
<trkpt lat="61.09866" lon="26.032835">
<time>2020-09-12T12:05:09Z</time>
</trkpt>
<trkpt lat="61.09864" lon="26.032726">
<time>2020-09-12T12:05:10Z</time>
</trkpt>
<trkpt lat="61.098628" lon="26.032638">
<time>2020-09-12T12:05:11Z</time>
</trkpt>
<trkpt lat="61.098608" lon="26.032506">
<time>2020-09-12T12:05:12Z</time>
</trkpt>
<trkpt lat="61.09859" lon="26.032391">
<time>2020-09-12T12:05:13Z</time>
</trkpt>
<trkpt lat="61.098575" lon="26.032273">
<time>2020-09-12T12:05:14Z</time>
</trkpt>
<trkpt lat="61.098563" lon="26.032156">
<time>2020-09-12T12:05:15Z</time>
</trkpt>
<trkpt lat="61.098555" lon="26.032063">
<time>2020-09-12T12:05:16Z</time>
</trkpt>
<trkpt lat="61.098546" lon="26.031918">
<time>2020-09-12T12:05:17Z</time>
</trkpt>
<trkpt lat="61.098545" lon="26.031796">
<time>2020-09-12T12:05:18Z</time>
</trkpt>
<trkpt lat="61.098551" lon="26.03167">
<time>2020-09-12T12:05:19Z</time>
</trkpt>
<trkpt lat="61.098568" lon="26.031546">
<time>2020-09-12T12:05:20Z</time>
</trkpt>
<trkpt lat="61.098595" lon="26.03143">
<time>2020-09-12T12:05:21Z</time>
</trkpt>
<trkpt lat="61.098633" lon="26.031326">
<time>2020-09-12T12:05:22Z</time>
</trkpt>
<trkpt lat="61.09868" lon="26.031228">
<time>2020-09-12T12:05:23Z</time>
</trkpt>
<trkpt lat="61.098731" lon="26.03113">
<time>2020-09-12T12:05:24Z</time>
</trkpt>
<trkpt lat="61.098781" lon="26.031018">
<time>2020-09-12T12:05:25Z</time>
</trkpt>
<trkpt lat="61.098833" lon="26.0309">
<time>2020-09-12T12:05:26Z</time>
</trkpt>
<trkpt lat="61.09888" lon="26.030768">
<time>2020-09-12T12:05:27Z</time>
</trkpt>
<trkpt lat="61.098921" lon="26.030633">
<time>2020-09-12T12:05:28Z</time>
</trkpt>
<trkpt lat="61.098958" lon="26.030491">
<time>2020-09-12T12:05:29Z</time>
</trkpt>
<trkpt lat="61.098988" lon="26.030351">
<time>2020-09-12T12:05:30Z</time>
</trkpt>
<trkpt lat="61.099036" lon="26.030216">
<time>2020-09-12T12:05:31Z</time>
</trkpt>
<trkpt lat="61.09907" lon="26.030116">
<time>2020-09-12T12:05:32Z</time>
</trkpt>
<trkpt lat="61.099118" lon="26.029965">
<time>2020-09-12T12:05:33Z</time>
</trkpt>
<trkpt lat="61.09915" lon="26.029816">
<time>2020-09-12T12:05:34Z</time>
</trkpt>
<trkpt lat="61.099161" lon="26.029675">
<time>2020-09-12T12:05:35Z</time>
</trkpt>
<trkpt lat="61.099156" lon="26.029536">
<time>2020-09-12T12:05:36Z</time>
</trkpt>
<trkpt lat="61.099138" lon="26.029403">
<time>2020-09-12T12:05:37Z</time>
</trkpt>
<trkpt lat="61.099116" lon="26.02927">
<time>2020-09-12T12:05:38Z</time>
</trkpt>
<trkpt lat="61.099095" lon="26.029135">
<time>2020-09-12T12:05:39Z</time>
</trkpt>
<trkpt lat="61.099081" lon="26.028993">
<time>2020-09-12T12:05:40Z</time>
</trkpt>
<trkpt lat="61.099068" lon="26.028846">
<time>2020-09-12T12:05:41Z</time>
</trkpt>
<trkpt lat="61.099053" lon="26.028695">
<time>2020-09-12T12:05:42Z</time>
</trkpt>
<trkpt lat="61.099035" lon="26.028543">
<time>2020-09-12T12:05:43Z</time>
</trkpt>
<trkpt lat="61.099013" lon="26.0284">
<time>2020-09-12T12:05:44Z</time>
</trkpt>
<trkpt lat="61.098985" lon="26.028278">
<time>2020-09-12T12:05:45Z</time>
</trkpt>
<trkpt lat="61.098948" lon="26.028175">
<time>2020-09-12T12:05:46Z</time>
</trkpt>
<trkpt lat="61.098903" lon="26.028088">
<time>2020-09-12T12:05:47Z</time>
</trkpt>
<trkpt lat="61.09885" lon="26.028015">
<time>2020-09-12T12:05:48Z</time>
</trkpt>
<trkpt lat="61.098791" lon="26.027948">
<time>2020-09-12T12:05:49Z</time>
</trkpt>
<trkpt lat="61.098731" lon="26.027885">
<time>2020-09-12T12:05:50Z</time>
</trkpt>
<trkpt lat="61.098668" lon="26.027821">
<time>2020-09-12T12:05:51Z</time>
</trkpt>
<trkpt lat="61.098605" lon="26.027766">
<time>2020-09-12T12:05:52Z</time>
</trkpt>
<trkpt lat="61.098543" lon="26.027715">
<time>2020-09-12T12:05:53Z</time>
</trkpt>
<trkpt lat="61.098483" lon="26.027665">
<time>2020-09-12T12:05:54Z</time>
</trkpt>
<trkpt lat="61.098433" lon="26.027631">
<time>2020-09-12T12:05:55Z</time>
</trkpt>
<trkpt lat="61.098363" lon="26.027571">
<time>2020-09-12T12:05:56Z</time>
</trkpt>
<trkpt lat="61.09831" lon="26.027503">
<time>2020-09-12T12:05:57Z</time>
</trkpt>
<trkpt lat="61.098265" lon="26.027418">
<time>2020-09-12T12:05:58Z</time>
</trkpt>
<trkpt lat="61.098235" lon="26.027326">
<time>2020-09-12T12:05:59Z</time>
</trkpt>
<trkpt lat="61.09823" lon="26.027238">
<time>2020-09-12T12:06:00Z</time>
</trkpt>
<trkpt lat="61.098235" lon="26.02716">
<time>2020-09-12T12:06:01Z</time>
</trkpt>
<trkpt lat="61.098253" lon="26.027088">
<time>2020-09-12T12:06:02Z</time>
</trkpt>
<trkpt lat="61.098275" lon="26.027011">
<time>2020-09-12T12:06:03Z</time>
</trkpt>
<trkpt lat="61.098301" lon="26.02693">
<time>2020-09-12T12:06:04Z</time>
</trkpt>
<trkpt lat="61.098328" lon="26.026845">
<time>2020-09-12T12:06:05Z</time>
</trkpt>
<trkpt lat="61.098358" lon="26.026756">
<time>2020-09-12T12:06:06Z</time>
</trkpt>
<trkpt lat="61.098383" lon="26.026665">
<time>2020-09-12T12:06:07Z</time>
</trkpt>
<trkpt lat="61.098398" lon="26.026565">
<time>2020-09-12T12:06:08Z</time>
</trkpt>
<trkpt lat="61.09841" lon="26.026456">
<time>2020-09-12T12:06:09Z</time>
</trkpt>
<trkpt lat="61.09842" lon="26.026345">
<time>2020-09-12T12:06:10Z</time>
</trkpt>
<trkpt lat="61.098435" lon="26.026255">
<time>2020-09-12T12:06:11Z</time>
</trkpt>
<trkpt lat="61.098453" lon="26.02612">
<time>2020-09-12T12:06:12Z</time>
</trkpt>
<trkpt lat="61.098463" lon="26.026">
<time>2020-09-12T12:06:13Z</time>
</trkpt>
<trkpt lat="61.098468" lon="26.025871">
<time>2020-09-12T12:06:14Z</time>
</trkpt>
<trkpt lat="61.098473" lon="26.025741">
<time>2020-09-12T12:06:15Z</time>
</trkpt>
<trkpt lat="61.098481" lon="26.025641">
<time>2020-09-12T12:06:16Z</time>
</trkpt>
<trkpt lat="61.098508" lon="26.025508">
<time>2020-09-12T12:06:17Z</time>
</trkpt>
<trkpt lat="61.09854" lon="26.025413">
<time>2020-09-12T12:06:18Z</time>
</trkpt>
<trkpt lat="61.098575" lon="26.025325">
<time>2020-09-12T12:06:19Z</time>
</trkpt>
<trkpt lat="61.0986" lon="26.025231">
<time>2020-09-12T12:06:20Z</time>
</trkpt>
<trkpt lat="61.098611" lon="26.02515">
<time>2020-09-12T12:06:21Z</time>
</trkpt>
<trkpt lat="61.098621" lon="26.025023">
<time>2020-09-12T12:06:22Z</time>
</trkpt>
<trkpt lat="61.098635" lon="26.024925">
<time>2020-09-12T12:06:23Z</time>
</trkpt>
<trkpt lat="61.098641" lon="26.024811">
<time>2020-09-12T12:06:24Z</time>
</trkpt>
<trkpt lat="61.098646" lon="26.024705">
<time>2020-09-12T12:06:25Z</time>
</trkpt>
<trkpt lat="61.098646" lon="26.024593">
<time>2020-09-12T12:06:26Z</time>
</trkpt>
<trkpt lat="61.098638" lon="26.024486">
<time>2020-09-12T12:06:27Z</time>
</trkpt>
<trkpt lat="61.098625" lon="26.024383">
<time>2020-09-12T12:06:28Z</time>
</trkpt>
<trkpt lat="61.098608" lon="26.024283">
<time>2020-09-12T12:06:29Z</time>
</trkpt>
<trkpt lat="61.09859" lon="26.024181">
<time>2020-09-12T12:06:30Z</time>
</trkpt>
<trkpt lat="61.098573" lon="26.024096">
<time>2020-09-12T12:06:31Z</time>
</trkpt>
<trkpt lat="61.098545" lon="26.023971">
<time>2020-09-12T12:06:32Z</time>
</trkpt>
<trkpt lat="61.098518" lon="26.023875">
<time>2020-09-12T12:06:33Z</time>
</trkpt>
<trkpt lat="61.098488" lon="26.023788">
<time>2020-09-12T12:06:34Z</time>
</trkpt>
<trkpt lat="61.098461" lon="26.023725">
<time>2020-09-12T12:06:35Z</time>
</trkpt>
<trkpt lat="61.098423" lon="26.023635">
<time>2020-09-12T12:06:36Z</time>
</trkpt>
<trkpt lat="61.098395" lon="26.023558">
<time>2020-09-12T12:06:37Z</time>
</trkpt>
<trkpt lat="61.098365" lon="26.023488">
<time>2020-09-12T12:06:38Z</time>
</trkpt>
<trkpt lat="61.098328" lon="26.023425">
<time>2020-09-12T12:06:39Z</time>
</trkpt>
<trkpt lat="61.098283" lon="26.023361">
<time>2020-09-12T12:06:40Z</time>
</trkpt>
<trkpt lat="61.098238" lon="26.023293">
<time>2020-09-12T12:06:41Z</time>
</trkpt>
<trkpt lat="61.098186" lon="26.023221">
<time>2020-09-12T12:06:42Z</time>
</trkpt>
<trkpt lat="61.098131" lon="26.023148">
<time>2020-09-12T12:06:43Z</time>
</trkpt>
<trkpt lat="61.098078" lon="26.023068">
<time>2020-09-12T12:06:44Z</time>
</trkpt>
<trkpt lat="61.09805" lon="26.022991">
<time>2020-09-12T12:06:45Z</time>
</trkpt>
<trkpt lat="61.098008" lon="26.02286">
<time>2020-09-12T12:06:46Z</time>
</trkpt>
<trkpt lat="61.097988" lon="26.022738">
<time>2020-09-12T12:06:47Z</time>
</trkpt>
<trkpt lat="61.097975" lon="26.022613">
<time>2020-09-12T12:06:48Z</time>
</trkpt>
<trkpt lat="61.097966" lon="26.02248">
<time>2020-09-12T12:06:49Z</time>
</trkpt>
<trkpt lat="61.097958" lon="26.022373">
<time>2020-09-12T12:06:50Z</time>
</trkpt>
<trkpt lat="61.097948" lon="26.022235">
<time>2020-09-12T12:06:51Z</time>
</trkpt>
<trkpt lat="61.097938" lon="26.022071">
<time>2020-09-12T12:06:52Z</time>
</trkpt>
<trkpt lat="61.097936" lon="26.021941">
<time>2020-09-12T12:06:53Z</time>
</trkpt>
<trkpt lat="61.097933" lon="26.021816">
<time>2020-09-12T12:06:54Z</time>
</trkpt>
<trkpt lat="61.097925" lon="26.021695">
<time>2020-09-12T12:06:55Z</time>
</trkpt>
<trkpt lat="61.097918" lon="26.021571">
<time>2020-09-12T12:06:56Z</time>
</trkpt>
<trkpt lat="61.09791" lon="26.021446">
<time>2020-09-12T12:06:57Z</time>
</trkpt>
<trkpt lat="61.097898" lon="26.021321">
<time>2020-09-12T12:06:58Z</time>
</trkpt>
<trkpt lat="61.097886" lon="26.02119">
<time>2020-09-12T12:06:59Z</time>
</trkpt>
<trkpt lat="61.097876" lon="26.021056">
<time>2020-09-12T12:07:00Z</time>
</trkpt>
<trkpt lat="61.09787" lon="26.020923">
<time>2020-09-12T12:07:01Z</time>
</trkpt>
<trkpt lat="61.097861" lon="26.020795">
<time>2020-09-12T12:07:02Z</time>
</trkpt>
<trkpt lat="61.097855" lon="26.020671">
<time>2020-09-12T12:07:03Z</time>
</trkpt>
<trkpt lat="61.09785" lon="26.020561">
<time>2020-09-12T12:07:04Z</time>
</trkpt>
<trkpt lat="61.097848" lon="26.020478">
<time>2020-09-12T12:07:05Z</time>
</trkpt>
<trkpt lat="61.097853" lon="26.020361">
<time>2020-09-12T12:07:06Z</time>
</trkpt>
<trkpt lat="61.097863" lon="26.02027">
<time>2020-09-12T12:07:07Z</time>
</trkpt>
<trkpt lat="61.09786" lon="26.020185">
<time>2020-09-12T12:07:08Z</time>
</trkpt>
<trkpt lat="61.097843" lon="26.020108">
<time>2020-09-12T12:07:09Z</time>
</trkpt>
<trkpt lat="61.097813" lon="26.02004">
<time>2020-09-12T12:07:10Z</time>
</trkpt>
<trkpt lat="61.097773" lon="26.019971">
<time>2020-09-12T12:07:11Z</time>
</trkpt>
<trkpt lat="61.097731" lon="26.019903">
<time>2020-09-12T12:07:12Z</time>
</trkpt>
<trkpt lat="61.097685" lon="26.019835">
<time>2020-09-12T12:07:13Z</time>
</trkpt>
<trkpt lat="61.097641" lon="26.019763">
<time>2020-09-12T12:07:14Z</time>
</trkpt>
<trkpt lat="61.097596" lon="26.019691">
<time>2020-09-12T12:07:15Z</time>
</trkpt>
<trkpt lat="61.097553" lon="26.01962">
<time>2020-09-12T12:07:16Z</time>
</trkpt>
<trkpt lat="61.09751" lon="26.019545">
<time>2020-09-12T12:07:17Z</time>
</trkpt>
<trkpt lat="61.097468" lon="26.019461">
<time>2020-09-12T12:07:18Z</time>
</trkpt>
<trkpt lat="61.097426" lon="26.019373">
<time>2020-09-12T12:07:19Z</time>
</trkpt>
<trkpt lat="61.097383" lon="26.019286">
<time>2020-09-12T12:07:20Z</time>
</trkpt>
<trkpt lat="61.097343" lon="26.019221">
<time>2020-09-12T12:07:21Z</time>
</trkpt>
<trkpt lat="61.097285" lon="26.019128">
<time>2020-09-12T12:07:22Z</time>
</trkpt>
<trkpt lat="61.097236" lon="26.019051">
<time>2020-09-12T12:07:23Z</time>
</trkpt>
<trkpt lat="61.097198" lon="26.01897">
<time>2020-09-12T12:07:24Z</time>
</trkpt>
<trkpt lat="61.097163" lon="26.018878">
<time>2020-09-12T12:07:25Z</time>
</trkpt>
<trkpt lat="61.097131" lon="26.018778">
<time>2020-09-12T12:07:26Z</time>
</trkpt>
<trkpt lat="61.097106" lon="26.018695">
<time>2020-09-12T12:07:27Z</time>
</trkpt>
<trkpt lat="61.097063" lon="26.018561">
<time>2020-09-12T12:07:28Z</time>
</trkpt>
<trkpt lat="61.097025" lon="26.018451">
<time>2020-09-12T12:07:29Z</time>
</trkpt>
<trkpt lat="61.096981" lon="26.01834">
<time>2020-09-12T12:07:30Z</time>
</trkpt>
<trkpt lat="61.096935" lon="26.018225">
<time>2020-09-12T12:07:31Z</time>
</trkpt>
<trkpt lat="61.096888" lon="26.018108">
<time>2020-09-12T12:07:32Z</time>
</trkpt>
<trkpt lat="61.09684" lon="26.017991">
<time>2020-09-12T12:07:33Z</time>
</trkpt>
<trkpt lat="61.096793" lon="26.017878">
<time>2020-09-12T12:07:34Z</time>
</trkpt>
<trkpt lat="61.096741" lon="26.017773">
<time>2020-09-12T12:07:35Z</time>
</trkpt>
<trkpt lat="61.096686" lon="26.017683">
<time>2020-09-12T12:07:36Z</time>
</trkpt>
<trkpt lat="61.096628" lon="26.017611">
<time>2020-09-12T12:07:37Z</time>
</trkpt>
<trkpt lat="61.096566" lon="26.01755">
<time>2020-09-12T12:07:38Z</time>
</trkpt>
<trkpt lat="61.096505" lon="26.017493">
<time>2020-09-12T12:07:39Z</time>
</trkpt>
<trkpt lat="61.096458" lon="26.017441">
<time>2020-09-12T12:07:40Z</time>
</trkpt>
<trkpt lat="61.096391" lon="26.017348">
<time>2020-09-12T12:07:41Z</time>
</trkpt>
<trkpt lat="61.096341" lon="26.017256">
<time>2020-09-12T12:07:42Z</time>
</trkpt>
<trkpt lat="61.096296" lon="26.017153">
<time>2020-09-12T12:07:43Z</time>
</trkpt>
<trkpt lat="61.096251" lon="26.017045">
<time>2020-09-12T12:07:44Z</time>
</trkpt>
<trkpt lat="61.096208" lon="26.016933">
<time>2020-09-12T12:07:45Z</time>
</trkpt>
<trkpt lat="61.096163" lon="26.01682">
<time>2020-09-12T12:07:46Z</time>
</trkpt>
<trkpt lat="61.096121" lon="26.016708">
<time>2020-09-12T12:07:47Z</time>
</trkpt>
<trkpt lat="61.096078" lon="26.016598">
<time>2020-09-12T12:07:48Z</time>
</trkpt>
<trkpt lat="61.096036" lon="26.016488">
<time>2020-09-12T12:07:49Z</time>
</trkpt>
<trkpt lat="61.096" lon="26.016376">
<time>2020-09-12T12:07:50Z</time>
</trkpt>
<trkpt lat="61.095965" lon="26.01626">
<time>2020-09-12T12:07:51Z</time>
</trkpt>
<trkpt lat="61.095933" lon="26.01614">
<time>2020-09-12T12:07:52Z</time>
</trkpt>
<trkpt lat="61.095901" lon="26.01602">
<time>2020-09-12T12:07:53Z</time>
</trkpt>
<trkpt lat="61.095871" lon="26.015901">
<time>2020-09-12T12:07:54Z</time>
</trkpt>
<trkpt lat="61.095841" lon="26.015793">
<time>2020-09-12T12:07:55Z</time>
</trkpt>
<trkpt lat="61.095813" lon="26.015691">
<time>2020-09-12T12:07:56Z</time>
</trkpt>
<trkpt lat="61.095796" lon="26.015591">
<time>2020-09-12T12:07:57Z</time>
</trkpt>
<trkpt lat="61.095796" lon="26.015493">
<time>2020-09-12T12:07:58Z</time>
</trkpt>
<trkpt lat="61.095806" lon="26.0154">
<time>2020-09-12T12:07:59Z</time>
</trkpt>
<trkpt lat="61.095821" lon="26.015291">
<time>2020-09-12T12:08:00Z</time>
</trkpt>
<trkpt lat="61.095843" lon="26.015171">
<time>2020-09-12T12:08:01Z</time>
</trkpt>
<trkpt lat="61.095866" lon="26.015045">
<time>2020-09-12T12:08:02Z</time>
</trkpt>
<trkpt lat="61.095893" lon="26.014911">
<time>2020-09-12T12:08:03Z</time>
</trkpt>
<trkpt lat="61.09592" lon="26.014773">
<time>2020-09-12T12:08:04Z</time>
</trkpt>
<trkpt lat="61.095943" lon="26.01463">
<time>2020-09-12T12:08:05Z</time>
</trkpt>
<trkpt lat="61.095971" lon="26.014481">
<time>2020-09-12T12:08:06Z</time>
</trkpt>
<trkpt lat="61.096001" lon="26.014328">
<time>2020-09-12T12:08:07Z</time>
</trkpt>
<trkpt lat="61.09603" lon="26.014171">
<time>2020-09-12T12:08:08Z</time>
</trkpt>
<trkpt lat="61.096056" lon="26.01401">
<time>2020-09-12T12:08:09Z</time>
</trkpt>
<trkpt lat="61.096078" lon="26.013841">
<time>2020-09-12T12:08:10Z</time>
</trkpt>
<trkpt lat="61.096098" lon="26.01367">
<time>2020-09-12T12:08:11Z</time>
</trkpt>
<trkpt lat="61.096115" lon="26.013496">
<time>2020-09-12T12:08:12Z</time>
</trkpt>
<trkpt lat="61.09613" lon="26.013316">
<time>2020-09-12T12:08:13Z</time>
</trkpt>
<trkpt lat="61.096143" lon="26.013133">
<time>2020-09-12T12:08:14Z</time>
</trkpt>
<trkpt lat="61.096156" lon="26.012951">
<time>2020-09-12T12:08:15Z</time>
</trkpt>
<trkpt lat="61.09617" lon="26.012766">
<time>2020-09-12T12:08:16Z</time>
</trkpt>
<trkpt lat="61.09618" lon="26.012585">
<time>2020-09-12T12:08:17Z</time>
</trkpt>
<trkpt lat="61.096186" lon="26.012403">
<time>2020-09-12T12:08:18Z</time>
</trkpt>
<trkpt lat="61.096191" lon="26.012225">
<time>2020-09-12T12:08:19Z</time>
</trkpt>
<trkpt lat="61.096195" lon="26.01205">
<time>2020-09-12T12:08:20Z</time>
</trkpt>
<trkpt lat="61.096196" lon="26.011878">
<time>2020-09-12T12:08:21Z</time>
</trkpt>
<trkpt lat="61.096196" lon="26.011708">
<time>2020-09-12T12:08:22Z</time>
</trkpt>
<trkpt lat="61.096198" lon="26.01154">
<time>2020-09-12T12:08:23Z</time>
</trkpt>
<trkpt lat="61.096196" lon="26.011373">
<time>2020-09-12T12:08:24Z</time>
</trkpt>
<trkpt lat="61.096195" lon="26.011205">
<time>2020-09-12T12:08:25Z</time>
</trkpt>
<trkpt lat="61.09619" lon="26.011036">
<time>2020-09-12T12:08:26Z</time>
</trkpt>
<trkpt lat="61.096185" lon="26.010865">
<time>2020-09-12T12:08:27Z</time>
</trkpt>
<trkpt lat="61.09618" lon="26.010691">
<time>2020-09-12T12:08:28Z</time>
</trkpt>
<trkpt lat="61.096176" lon="26.010513">
<time>2020-09-12T12:08:29Z</time>
</trkpt>
<trkpt lat="61.096168" lon="26.010336">
<time>2020-09-12T12:08:30Z</time>
</trkpt>
<trkpt lat="61.096163" lon="26.010158">
<time>2020-09-12T12:08:31Z</time>
</trkpt>
<trkpt lat="61.096156" lon="26.00998">
<time>2020-09-12T12:08:32Z</time>
</trkpt>
<trkpt lat="61.096148" lon="26.009805">
<time>2020-09-12T12:08:33Z</time>
</trkpt>
<trkpt lat="61.096141" lon="26.00963">
<time>2020-09-12T12:08:34Z</time>
</trkpt>
<trkpt lat="61.096133" lon="26.009458">
<time>2020-09-12T12:08:35Z</time>
</trkpt>
<trkpt lat="61.096125" lon="26.009286">
<time>2020-09-12T12:08:36Z</time>
</trkpt>
<trkpt lat="61.096121" lon="26.009146">
<time>2020-09-12T12:08:37Z</time>
</trkpt>
<trkpt lat="61.096115" lon="26.008938">
<time>2020-09-12T12:08:38Z</time>
</trkpt>
<trkpt lat="61.09611" lon="26.008768">
<time>2020-09-12T12:08:39Z</time>
</trkpt>
<trkpt lat="61.096105" lon="26.0086">
<time>2020-09-12T12:08:40Z</time>
</trkpt>
<trkpt lat="61.0961" lon="26.008433">
<time>2020-09-12T12:08:41Z</time>
</trkpt>
<trkpt lat="61.096093" lon="26.008265">
<time>2020-09-12T12:08:42Z</time>
</trkpt>
<trkpt lat="61.096088" lon="26.008098">
<time>2020-09-12T12:08:43Z</time>
</trkpt>
<trkpt lat="61.096083" lon="26.007931">
<time>2020-09-12T12:08:44Z</time>
</trkpt>
<trkpt lat="61.096078" lon="26.007763">
<time>2020-09-12T12:08:45Z</time>
</trkpt>
<trkpt lat="61.096073" lon="26.007596">
<time>2020-09-12T12:08:46Z</time>
</trkpt>
<trkpt lat="61.096068" lon="26.007426">
<time>2020-09-12T12:08:47Z</time>
</trkpt>
<trkpt lat="61.096065" lon="26.00726">
<time>2020-09-12T12:08:48Z</time>
</trkpt>
<trkpt lat="61.09606" lon="26.007093">
<time>2020-09-12T12:08:49Z</time>
</trkpt>
<trkpt lat="61.096055" lon="26.006926">
<time>2020-09-12T12:08:50Z</time>
</trkpt>
<trkpt lat="61.096046" lon="26.006756">
<time>2020-09-12T12:08:51Z</time>
</trkpt>
<trkpt lat="61.096036" lon="26.006586">
<time>2020-09-12T12:08:52Z</time>
</trkpt>
<trkpt lat="61.096028" lon="26.006416">
<time>2020-09-12T12:08:53Z</time>
</trkpt>
<trkpt lat="61.096018" lon="26.006248">
<time>2020-09-12T12:08:54Z</time>
</trkpt>
<trkpt lat="61.096013" lon="26.00608">
<time>2020-09-12T12:08:55Z</time>
</trkpt>
<trkpt lat="61.096006" lon="26.00591">
<time>2020-09-12T12:08:56Z</time>
</trkpt>
<trkpt lat="61.096" lon="26.00574">
<time>2020-09-12T12:08:57Z</time>
</trkpt>
<trkpt lat="61.095995" lon="26.005571">
<time>2020-09-12T12:08:58Z</time>
</trkpt>
<trkpt lat="61.095985" lon="26.005408">
<time>2020-09-12T12:08:59Z</time>
</trkpt>
<trkpt lat="61.095975" lon="26.005248">
<time>2020-09-12T12:09:00Z</time>
</trkpt>
<trkpt lat="61.095975" lon="26.005101">
<time>2020-09-12T12:09:01Z</time>
</trkpt>
<trkpt lat="61.095991" lon="26.004985">
<time>2020-09-12T12:09:02Z</time>
</trkpt>
<trkpt lat="61.09602" lon="26.004896">
<time>2020-09-12T12:09:03Z</time>
</trkpt>
<trkpt lat="61.096073" lon="26.00484">
<time>2020-09-12T12:09:04Z</time>
</trkpt>
<trkpt lat="61.096141" lon="26.004815">
<time>2020-09-12T12:09:05Z</time>
</trkpt>
<trkpt lat="61.096221" lon="26.004815">
<time>2020-09-12T12:09:06Z</time>
</trkpt>
<trkpt lat="61.096298" lon="26.004803">
<time>2020-09-12T12:09:07Z</time>
</trkpt>
<trkpt lat="61.09638" lon="26.004796">
<time>2020-09-12T12:09:08Z</time>
</trkpt>
<trkpt lat="61.096466" lon="26.004791">
<time>2020-09-12T12:09:09Z</time>
</trkpt>
<trkpt lat="61.096555" lon="26.004785">
<time>2020-09-12T12:09:10Z</time>
</trkpt>
<trkpt lat="61.096646" lon="26.004778">
<time>2020-09-12T12:09:11Z</time>
</trkpt>
<trkpt lat="61.096738" lon="26.004763">
<time>2020-09-12T12:09:12Z</time>
</trkpt>
<trkpt lat="61.096831" lon="26.004746">
<time>2020-09-12T12:09:13Z</time>
</trkpt>
<trkpt lat="61.096923" lon="26.004728">
<time>2020-09-12T12:09:14Z</time>
</trkpt>
<trkpt lat="61.097013" lon="26.00471">
<time>2020-09-12T12:09:15Z</time>
</trkpt>
<trkpt lat="61.097105" lon="26.004695">
<time>2020-09-12T12:09:16Z</time>
</trkpt>
<trkpt lat="61.097191" lon="26.004675">
<time>2020-09-12T12:09:17Z</time>
</trkpt>
<trkpt lat="61.097293" lon="26.004653">
<time>2020-09-12T12:09:18Z</time>
</trkpt>
<trkpt lat="61.097363" lon="26.00464">
<time>2020-09-12T12:09:19Z</time>
</trkpt>
<trkpt lat="61.097448" lon="26.004623">
<time>2020-09-12T12:09:20Z</time>
</trkpt>
<trkpt lat="61.097536" lon="26.004603">
<time>2020-09-12T12:09:21Z</time>
</trkpt>
<trkpt lat="61.097623" lon="26.004588">
<time>2020-09-12T12:09:22Z</time>
</trkpt>
<trkpt lat="61.097708" lon="26.004571">
<time>2020-09-12T12:09:23Z</time>
</trkpt>
<trkpt lat="61.097795" lon="26.004555">
<time>2020-09-12T12:09:24Z</time>
</trkpt>
<trkpt lat="61.097881" lon="26.00454">
<time>2020-09-12T12:09:25Z</time>
</trkpt>
<trkpt lat="61.09797" lon="26.004523">
<time>2020-09-12T12:09:26Z</time>
</trkpt>
<trkpt lat="61.098058" lon="26.004506">
<time>2020-09-12T12:09:27Z</time>
</trkpt>
<trkpt lat="61.098148" lon="26.004488">
<time>2020-09-12T12:09:28Z</time>
</trkpt>
<trkpt lat="61.09824" lon="26.00447">
<time>2020-09-12T12:09:29Z</time>
</trkpt>
<trkpt lat="61.098331" lon="26.004451">
<time>2020-09-12T12:09:30Z</time>
</trkpt>
<trkpt lat="61.098425" lon="26.004433">
<time>2020-09-12T12:09:31Z</time>
</trkpt>
<trkpt lat="61.098516" lon="26.00441">
<time>2020-09-12T12:09:32Z</time>
</trkpt>
<trkpt lat="61.098608" lon="26.004386">
<time>2020-09-12T12:09:33Z</time>
</trkpt>
<trkpt lat="61.098701" lon="26.004363">
<time>2020-09-12T12:09:34Z</time>
</trkpt>
<trkpt lat="61.098793" lon="26.004341">
<time>2020-09-12T12:09:35Z</time>
</trkpt>
<trkpt lat="61.098883" lon="26.004321">
<time>2020-09-12T12:09:36Z</time>
</trkpt>
<trkpt lat="61.098971" lon="26.004301">
<time>2020-09-12T12:09:37Z</time>
</trkpt>
<trkpt lat="61.099061" lon="26.00428">
<time>2020-09-12T12:09:38Z</time>
</trkpt>
<trkpt lat="61.099151" lon="26.004258">
<time>2020-09-12T12:09:39Z</time>
</trkpt>
<trkpt lat="61.099241" lon="26.004238">
<time>2020-09-12T12:09:40Z</time>
</trkpt>
<trkpt lat="61.099333" lon="26.004213">
<time>2020-09-12T12:09:41Z</time>
</trkpt>
<trkpt lat="61.099426" lon="26.00419">
<time>2020-09-12T12:09:42Z</time>
</trkpt>
<trkpt lat="61.09952" lon="26.00417">
<time>2020-09-12T12:09:43Z</time>
</trkpt>
<trkpt lat="61.099613" lon="26.00415">
<time>2020-09-12T12:09:44Z</time>
</trkpt>
<trkpt lat="61.099706" lon="26.004131">
<time>2020-09-12T12:09:45Z</time>
</trkpt>
<trkpt lat="61.0998" lon="26.004111">
<time>2020-09-12T12:09:46Z</time>
</trkpt>
<trkpt lat="61.099891" lon="26.004093">
<time>2020-09-12T12:09:47Z</time>
</trkpt>
<trkpt lat="61.099985" lon="26.004071">
<time>2020-09-12T12:09:48Z</time>
</trkpt>
<trkpt lat="61.100078" lon="26.004051">
<time>2020-09-12T12:09:49Z</time>
</trkpt>
<trkpt lat="61.10017" lon="26.004035">
<time>2020-09-12T12:09:50Z</time>
</trkpt>
<trkpt lat="61.100261" lon="26.00402">
<time>2020-09-12T12:09:51Z</time>
</trkpt>
<trkpt lat="61.10035" lon="26.004003">
<time>2020-09-12T12:09:52Z</time>
</trkpt>
<trkpt lat="61.100438" lon="26.003981">
<time>2020-09-12T12:09:53Z</time>
</trkpt>
<trkpt lat="61.100525" lon="26.003953">
<time>2020-09-12T12:09:54Z</time>
</trkpt>
<trkpt lat="61.100608" lon="26.003925">
<time>2020-09-12T12:09:55Z</time>
</trkpt>
<trkpt lat="61.100691" lon="26.003895">
<time>2020-09-12T12:09:56Z</time>
</trkpt>
<trkpt lat="61.10077" lon="26.003868">
<time>2020-09-12T12:09:57Z</time>
</trkpt>
<trkpt lat="61.100836" lon="26.003858">
<time>2020-09-12T12:09:58Z</time>
</trkpt>
<trkpt lat="61.100926" lon="26.003883">
<time>2020-09-12T12:09:59Z</time>
</trkpt>
<trkpt lat="61.100995" lon="26.00395">
<time>2020-09-12T12:10:00Z</time>
</trkpt>
<trkpt lat="61.101051" lon="26.004056">
<time>2020-09-12T12:10:01Z</time>
</trkpt>
<trkpt lat="61.101101" lon="26.004171">
<time>2020-09-12T12:10:02Z</time>
</trkpt>
<trkpt lat="61.10115" lon="26.004288">
<time>2020-09-12T12:10:03Z</time>
</trkpt>
<trkpt lat="61.101195" lon="26.004398">
<time>2020-09-12T12:10:04Z</time>
</trkpt>
<trkpt lat="61.101236" lon="26.004528">
<time>2020-09-12T12:10:05Z</time>
</trkpt>
<trkpt lat="61.101271" lon="26.004656">
<time>2020-09-12T12:10:06Z</time>
</trkpt>
<trkpt lat="61.101308" lon="26.004778">
<time>2020-09-12T12:10:07Z</time>
</trkpt>
<trkpt lat="61.101348" lon="26.0049">
<time>2020-09-12T12:10:08Z</time>
</trkpt>
<trkpt lat="61.101385" lon="26.005005">
<time>2020-09-12T12:10:09Z</time>
</trkpt>
<trkpt lat="61.101426" lon="26.005101">
<time>2020-09-12T12:10:10Z</time>
</trkpt>
<trkpt lat="61.101475" lon="26.005183">
<time>2020-09-12T12:10:11Z</time>
</trkpt>
<trkpt lat="61.101516" lon="26.005263">
<time>2020-09-12T12:10:12Z</time>
</trkpt>
<trkpt lat="61.101556" lon="26.005345">
<time>2020-09-12T12:10:13Z</time>
</trkpt>
<trkpt lat="61.101593" lon="26.005428">
<time>2020-09-12T12:10:14Z</time>
</trkpt>
<trkpt lat="61.101623" lon="26.00552">
<time>2020-09-12T12:10:15Z</time>
</trkpt>
<trkpt lat="61.101655" lon="26.005623">
<time>2020-09-12T12:10:16Z</time>
</trkpt>
<trkpt lat="61.101691" lon="26.005733">
<time>2020-09-12T12:10:17Z</time>
</trkpt>
<trkpt lat="61.10173" lon="26.005841">
<time>2020-09-12T12:10:18Z</time>
</trkpt>
<trkpt lat="61.10177" lon="26.005938">
<time>2020-09-12T12:10:19Z</time>
</trkpt>
<trkpt lat="61.101808" lon="26.006018">
<time>2020-09-12T12:10:20Z</time>
</trkpt>
<trkpt lat="61.101845" lon="26.006063">
<time>2020-09-12T12:10:21Z</time>
</trkpt>
<trkpt lat="61.10188" lon="26.006065">
<time>2020-09-12T12:10:22Z</time>
</trkpt>
<trkpt lat="61.101916" lon="26.00605">
<time>2020-09-12T12:10:23Z</time>
</trkpt>
<trkpt lat="61.101956" lon="26.00603">
<time>2020-09-12T12:10:24Z</time>
</trkpt>
<trkpt lat="61.102" lon="26.005993">
<time>2020-09-12T12:10:25Z</time>
</trkpt>
<trkpt lat="61.10204" lon="26.005908">
<time>2020-09-12T12:10:26Z</time>
</trkpt>
<trkpt lat="61.102065" lon="26.005836">
<time>2020-09-12T12:10:27Z</time>
</trkpt>
<trkpt lat="61.102085" lon="26.005753">
<time>2020-09-12T12:10:28Z</time>
</trkpt>
<trkpt lat="61.102091" lon="26.005673">
<time>2020-09-12T12:10:29Z</time>
</trkpt>
<trkpt lat="61.1021" lon="26.005596">
<time>2020-09-12T12:10:30Z</time>
</trkpt>
<trkpt lat="61.102101" lon="26.005528">
<time>2020-09-12T12:10:31Z</time>
</trkpt>
<trkpt lat="61.1021" lon="26.005473">
<time>2020-09-12T12:10:32Z</time>
</trkpt>
<trkpt lat="61.1021" lon="26.005431">
<time>2020-09-12T12:10:33Z</time>
</trkpt>
<trkpt lat="61.102103" lon="26.005431">
<time>2020-09-12T12:10:34Z</time>
</trkpt>
<trkpt lat="61.102106" lon="26.005456">
<time>2020-09-12T12:10:35Z</time>
</trkpt>
<trkpt lat="61.102106" lon="26.005496">
<time>2020-09-12T12:10:36Z</time>
</trkpt>
<trkpt lat="61.102101" lon="26.00554">
<time>2020-09-12T12:10:37Z</time>
</trkpt>
<trkpt lat="61.10209" lon="26.005603">
<time>2020-09-12T12:10:38Z</time>
</trkpt>
<trkpt lat="61.102081" lon="26.005665">
<time>2020-09-12T12:10:39Z</time>
</trkpt>
<trkpt lat="61.102078" lon="26.005718">
<time>2020-09-12T12:10:40Z</time>
</trkpt>
<trkpt lat="61.10208" lon="26.005761">
<time>2020-09-12T12:10:41Z</time>
</trkpt>
<trkpt lat="61.102081" lon="26.005806">
<time>2020-09-12T12:10:42Z</time>
</trkpt>
<trkpt lat="61.102088" lon="26.005848">
<time>2020-09-12T12:10:43Z</time>
</trkpt>
<trkpt lat="61.102103" lon="26.00588">
<time>2020-09-12T12:10:44Z</time>
</trkpt>
<trkpt lat="61.102135" lon="26.005888">
<time>2020-09-12T12:10:45Z</time>
</trkpt>
<trkpt lat="61.102175" lon="26.005886">
<time>2020-09-12T12:10:46Z</time>
</trkpt>
<trkpt lat="61.102225" lon="26.005871">
<time>2020-09-12T12:10:47Z</time>
</trkpt>
<trkpt lat="61.102271" lon="26.005855">
<time>2020-09-12T12:10:48Z</time>
</trkpt>
<trkpt lat="61.102321" lon="26.005836">
<time>2020-09-12T12:10:49Z</time>
</trkpt>
<trkpt lat="61.102375" lon="26.00582">
<time>2020-09-12T12:10:50Z</time>
</trkpt>
<trkpt lat="61.102426" lon="26.005801">
<time>2020-09-12T12:10:51Z</time>
</trkpt>
<trkpt lat="61.102481" lon="26.005785">
<time>2020-09-12T12:10:52Z</time>
</trkpt>
<trkpt lat="61.102541" lon="26.005771">
<time>2020-09-12T12:10:53Z</time>
</trkpt>
<trkpt lat="61.102615" lon="26.00575">
<time>2020-09-12T12:10:54Z</time>
</trkpt>
<trkpt lat="61.102691" lon="26.00573">
<time>2020-09-12T12:10:55Z</time>
</trkpt>
<trkpt lat="61.102765" lon="26.005705">
<time>2020-09-12T12:10:56Z</time>
</trkpt>
<trkpt lat="61.102841" lon="26.005683">
<time>2020-09-12T12:10:57Z</time>
</trkpt>
<trkpt lat="61.102918" lon="26.005671">
<time>2020-09-12T12:10:58Z</time>
</trkpt>
<trkpt lat="61.102991" lon="26.005666">
<time>2020-09-12T12:10:59Z</time>
</trkpt>
<trkpt lat="61.103068" lon="26.005658">
<time>2020-09-12T12:11:00Z</time>
</trkpt>
<trkpt lat="61.103148" lon="26.005633">
<time>2020-09-12T12:11:01Z</time>
</trkpt>
<trkpt lat="61.103226" lon="26.005593">
<time>2020-09-12T12:11:02Z</time>
</trkpt>
<trkpt lat="61.103303" lon="26.00554">
<time>2020-09-12T12:11:03Z</time>
</trkpt>
<trkpt lat="61.103376" lon="26.005468">
<time>2020-09-12T12:11:04Z</time>
</trkpt>
<trkpt lat="61.103448" lon="26.005376">
<time>2020-09-12T12:11:05Z</time>
</trkpt>
<trkpt lat="61.103521" lon="26.005275">
<time>2020-09-12T12:11:06Z</time>
</trkpt>
<trkpt lat="61.1036" lon="26.005173">
<time>2020-09-12T12:11:07Z</time>
</trkpt>
<trkpt lat="61.103681" lon="26.005083">
<time>2020-09-12T12:11:08Z</time>
</trkpt>
<trkpt lat="61.103748" lon="26.005021">
<time>2020-09-12T12:11:09Z</time>
</trkpt>
<trkpt lat="61.103855" lon="26.004943">
<time>2020-09-12T12:11:10Z</time>
</trkpt>
<trkpt lat="61.103948" lon="26.004898">
<time>2020-09-12T12:11:11Z</time>
</trkpt>
<trkpt lat="61.104038" lon="26.004885">
<time>2020-09-12T12:11:12Z</time>
</trkpt>
<trkpt lat="61.104121" lon="26.00491">
<time>2020-09-12T12:11:13Z</time>
</trkpt>
<trkpt lat="61.104185" lon="26.004958">
<time>2020-09-12T12:11:14Z</time>
</trkpt>
<trkpt lat="61.104273" lon="26.005041">
<time>2020-09-12T12:11:15Z</time>
</trkpt>
<trkpt lat="61.104343" lon="26.005125">
<time>2020-09-12T12:11:16Z</time>
</trkpt>
<trkpt lat="61.104398" lon="26.00519">
<time>2020-09-12T12:11:17Z</time>
</trkpt>
<trkpt lat="61.10446" lon="26.005271">
<time>2020-09-12T12:11:18Z</time>
</trkpt>
<trkpt lat="61.104526" lon="26.005336">
<time>2020-09-12T12:11:19Z</time>
</trkpt>
<trkpt lat="61.104601" lon="26.005388">
<time>2020-09-12T12:11:20Z</time>
</trkpt>
<trkpt lat="61.104665" lon="26.005401">
<time>2020-09-12T12:11:21Z</time>
</trkpt>
<trkpt lat="61.104721" lon="26.005406">
<time>2020-09-12T12:11:22Z</time>
</trkpt>
<trkpt lat="61.104771" lon="26.005393">
<time>2020-09-12T12:11:23Z</time>
</trkpt>
<trkpt lat="61.104813" lon="26.005381">
<time>2020-09-12T12:11:24Z</time>
</trkpt>
<trkpt lat="61.104848" lon="26.005373">
<time>2020-09-12T12:11:25Z</time>
</trkpt>
<trkpt lat="61.104883" lon="26.005365">
<time>2020-09-12T12:11:26Z</time>
</trkpt>
<trkpt lat="61.104911" lon="26.005345">
<time>2020-09-12T12:11:27Z</time>
</trkpt>
<trkpt lat="61.104936" lon="26.00531">
<time>2020-09-12T12:11:28Z</time>
</trkpt>
<trkpt lat="61.104955" lon="26.005258">
<time>2020-09-12T12:11:29Z</time>
</trkpt>
<trkpt lat="61.104976" lon="26.005201">
<time>2020-09-12T12:11:30Z</time>
</trkpt>
<trkpt lat="61.105005" lon="26.005165">
<time>2020-09-12T12:11:31Z</time>
</trkpt>
<trkpt lat="61.105031" lon="26.005146">
<time>2020-09-12T12:11:32Z</time>
</trkpt>
<trkpt lat="61.10506" lon="26.005146">
<time>2020-09-12T12:11:33Z</time>
</trkpt>
<trkpt lat="61.105091" lon="26.005155">
<time>2020-09-12T12:11:34Z</time>
</trkpt>
<trkpt lat="61.105121" lon="26.005165">
<time>2020-09-12T12:11:35Z</time>
</trkpt>
<trkpt lat="61.105155" lon="26.005173">
<time>2020-09-12T12:11:36Z</time>
</trkpt>
<trkpt lat="61.105188" lon="26.005176">
<time>2020-09-12T12:11:37Z</time>
</trkpt>
<trkpt lat="61.105223" lon="26.005176">
<time>2020-09-12T12:11:38Z</time>
</trkpt>
<trkpt lat="61.105263" lon="26.005181">
<time>2020-09-12T12:11:39Z</time>
</trkpt>
<trkpt lat="61.105303" lon="26.00519">
<time>2020-09-12T12:11:40Z</time>
</trkpt>
<trkpt lat="61.105343" lon="26.005201">
<time>2020-09-12T12:11:41Z</time>
</trkpt>
<trkpt lat="61.105386" lon="26.005213">
<time>2020-09-12T12:11:42Z</time>
</trkpt>
<trkpt lat="61.105433" lon="26.005228">
<time>2020-09-12T12:11:43Z</time>
</trkpt>
<trkpt lat="61.10548" lon="26.005248">
<time>2020-09-12T12:11:44Z</time>
</trkpt>
<trkpt lat="61.105501" lon="26.005256">
<time>2020-09-12T12:11:45Z</time>
</trkpt>
<trkpt lat="61.105515" lon="26.00526">
<time>2020-09-12T12:11:46Z</time>
</trkpt>
<trkpt lat="61.105521" lon="26.005258">
<time>2020-09-12T12:11:47Z</time>
</trkpt>
<trkpt lat="61.105523" lon="26.005258">
<time>2020-09-12T12:11:48Z</time>
</trkpt>
<trkpt lat="61.105523" lon="26.005258">
<time>2020-09-12T12:11:49Z</time>
</trkpt>
<trkpt lat="61.10553" lon="26.005263">
<time>2020-09-12T12:11:50Z</time>
</trkpt>
<trkpt lat="61.105541" lon="26.005271">
<time>2020-09-12T12:11:51Z</time>
</trkpt>
<trkpt lat="61.105558" lon="26.005281">
<time>2020-09-12T12:11:52Z</time>
</trkpt>
<trkpt lat="61.105583" lon="26.00529">
<time>2020-09-12T12:11:53Z</time>
</trkpt>
<trkpt lat="61.105615" lon="26.005296">
<time>2020-09-12T12:11:54Z</time>
</trkpt>
<trkpt lat="61.105658" lon="26.005315">
<time>2020-09-12T12:11:55Z</time>
</trkpt>
<trkpt lat="61.10571" lon="26.005341">
<time>2020-09-12T12:11:56Z</time>
</trkpt>
<trkpt lat="61.105761" lon="26.005371">
<time>2020-09-12T12:11:57Z</time>
</trkpt>
<trkpt lat="61.105816" lon="26.00541">
<time>2020-09-12T12:11:58Z</time>
</trkpt>
<trkpt lat="61.10587" lon="26.005456">
<time>2020-09-12T12:11:59Z</time>
</trkpt>
<trkpt lat="61.105925" lon="26.005508">
<time>2020-09-12T12:12:00Z</time>
</trkpt>
<trkpt lat="61.105978" lon="26.00557">
<time>2020-09-12T12:12:01Z</time>
</trkpt>
<trkpt lat="61.106031" lon="26.005638">
<time>2020-09-12T12:12:02Z</time>
</trkpt>
<trkpt lat="61.106083" lon="26.005715">
<time>2020-09-12T12:12:03Z</time>
</trkpt>
<trkpt lat="61.106133" lon="26.005798">
<time>2020-09-12T12:12:04Z</time>
</trkpt>
<trkpt lat="61.10618" lon="26.0059">
<time>2020-09-12T12:12:05Z</time>
</trkpt>
<trkpt lat="61.106213" lon="26.006018">
<time>2020-09-12T12:12:06Z</time>
</trkpt>
<trkpt lat="61.10623" lon="26.006151">
<time>2020-09-12T12:12:07Z</time>
</trkpt>
<trkpt lat="61.106231" lon="26.0063">
<time>2020-09-12T12:12:08Z</time>
</trkpt>
<trkpt lat="61.106218" lon="26.006456">
<time>2020-09-12T12:12:09Z</time>
</trkpt>
<trkpt lat="61.10619" lon="26.00661">
<time>2020-09-12T12:12:10Z</time>
</trkpt>
<trkpt lat="61.106151" lon="26.006756">
<time>2020-09-12T12:12:11Z</time>
</trkpt>
<trkpt lat="61.106113" lon="26.006888">
<time>2020-09-12T12:12:12Z</time>
</trkpt>
<trkpt lat="61.106073" lon="26.007003">
<time>2020-09-12T12:12:13Z</time>
</trkpt>
<trkpt lat="61.106038" lon="26.00711">
<time>2020-09-12T12:12:14Z</time>
</trkpt>
<trkpt lat="61.106015" lon="26.007208">
<time>2020-09-12T12:12:15Z</time>
</trkpt>
<trkpt lat="61.105995" lon="26.007338">
<time>2020-09-12T12:12:16Z</time>
</trkpt>
<trkpt lat="61.105985" lon="26.00744">
<time>2020-09-12T12:12:17Z</time>
</trkpt>
<trkpt lat="61.105985" lon="26.007583">
<time>2020-09-12T12:12:18Z</time>
</trkpt>
<trkpt lat="61.105991" lon="26.007733">
<time>2020-09-12T12:12:19Z</time>
</trkpt>
<trkpt lat="61.106001" lon="26.007881">
<time>2020-09-12T12:12:20Z</time>
</trkpt>
<trkpt lat="61.106021" lon="26.00803">
<time>2020-09-12T12:12:21Z</time>
</trkpt>
<trkpt lat="61.106051" lon="26.008178">
<time>2020-09-12T12:12:22Z</time>
</trkpt>
<trkpt lat="61.106088" lon="26.008315">
<time>2020-09-12T12:12:23Z</time>
</trkpt>
<trkpt lat="61.106126" lon="26.008443">
<time>2020-09-12T12:12:24Z</time>
</trkpt>
<trkpt lat="61.10617" lon="26.00856">
<time>2020-09-12T12:12:25Z</time>
</trkpt>
<trkpt lat="61.106208" lon="26.008675">
<time>2020-09-12T12:12:26Z</time>
</trkpt>
<trkpt lat="61.106245" lon="26.008776">
<time>2020-09-12T12:12:27Z</time>
</trkpt>
<trkpt lat="61.106281" lon="26.008883">
<time>2020-09-12T12:12:28Z</time>
</trkpt>
<trkpt lat="61.106315" lon="26.008978">
<time>2020-09-12T12:12:29Z</time>
</trkpt>
<trkpt lat="61.106343" lon="26.00908">
<time>2020-09-12T12:12:30Z</time>
</trkpt>
<trkpt lat="61.106365" lon="26.009185">
<time>2020-09-12T12:12:31Z</time>
</trkpt>
<trkpt lat="61.106383" lon="26.009286">
<time>2020-09-12T12:12:32Z</time>
</trkpt>
<trkpt lat="61.106406" lon="26.009381">
<time>2020-09-12T12:12:33Z</time>
</trkpt>
<trkpt lat="61.106436" lon="26.009476">
<time>2020-09-12T12:12:34Z</time>
</trkpt>
<trkpt lat="61.106475" lon="26.009565">
<time>2020-09-12T12:12:35Z</time>
</trkpt>
<trkpt lat="61.106521" lon="26.009641">
<time>2020-09-12T12:12:36Z</time>
</trkpt>
<trkpt lat="61.106566" lon="26.009715">
<time>2020-09-12T12:12:37Z</time>
</trkpt>
<trkpt lat="61.106615" lon="26.009783">
<time>2020-09-12T12:12:38Z</time>
</trkpt>
<trkpt lat="61.106665" lon="26.00985">
<time>2020-09-12T12:12:39Z</time>
</trkpt>
<trkpt lat="61.10672" lon="26.009913">
<time>2020-09-12T12:12:40Z</time>
</trkpt>
<trkpt lat="61.106768" lon="26.009953">
<time>2020-09-12T12:12:41Z</time>
</trkpt>
<trkpt lat="61.106815" lon="26.009961">
<time>2020-09-12T12:12:42Z</time>
</trkpt>
<trkpt lat="61.106855" lon="26.009943">
<time>2020-09-12T12:12:43Z</time>
</trkpt>
<trkpt lat="61.106888" lon="26.009915">
<time>2020-09-12T12:12:44Z</time>
</trkpt>
<trkpt lat="61.106905" lon="26.009901">
<time>2020-09-12T12:12:45Z</time>
</trkpt>
<trkpt lat="61.106908" lon="26.009908">
<time>2020-09-12T12:12:46Z</time>
</trkpt>
<trkpt lat="61.106893" lon="26.009926">
<time>2020-09-12T12:12:47Z</time>
</trkpt>
<trkpt lat="61.10687" lon="26.009981">
<time>2020-09-12T12:12:48Z</time>
</trkpt>
<trkpt lat="61.106843" lon="26.010045">
<time>2020-09-12T12:12:49Z</time>
</trkpt>
<trkpt lat="61.106815" lon="26.010138">
<time>2020-09-12T12:12:50Z</time>
</trkpt>
<trkpt lat="61.1068" lon="26.010245">
<time>2020-09-12T12:12:51Z</time>
</trkpt>
<trkpt lat="61.106791" lon="26.010363">
<time>2020-09-12T12:12:52Z</time>
</trkpt>
<trkpt lat="61.10679" lon="26.010493">
<time>2020-09-12T12:12:53Z</time>
</trkpt>
<trkpt lat="61.106793" lon="26.01063">
<time>2020-09-12T12:12:54Z</time>
</trkpt>
<trkpt lat="61.106796" lon="26.010775">
<time>2020-09-12T12:12:55Z</time>
</trkpt>
<trkpt lat="61.1068" lon="26.01092">
<time>2020-09-12T12:12:56Z</time>
</trkpt>
<trkpt lat="61.106803" lon="26.011068">
<time>2020-09-12T12:12:57Z</time>
</trkpt>
<trkpt lat="61.106806" lon="26.011215">
<time>2020-09-12T12:12:58Z</time>
</trkpt>
<trkpt lat="61.106813" lon="26.011363">
<time>2020-09-12T12:12:59Z</time>
</trkpt>
<trkpt lat="61.106815" lon="26.01152">
<time>2020-09-12T12:13:00Z</time>
</trkpt>
<trkpt lat="61.106816" lon="26.011683">
<time>2020-09-12T12:13:01Z</time>
</trkpt>
<trkpt lat="61.106816" lon="26.011836">
<time>2020-09-12T12:13:02Z</time>
</trkpt>
<trkpt lat="61.106816" lon="26.011991">
<time>2020-09-12T12:13:03Z</time>
</trkpt>
<trkpt lat="61.106818" lon="26.012145">
<time>2020-09-12T12:13:04Z</time>
</trkpt>
<trkpt lat="61.106823" lon="26.012296">
<time>2020-09-12T12:13:05Z</time>
</trkpt>
<trkpt lat="61.106835" lon="26.012443">
<time>2020-09-12T12:13:06Z</time>
</trkpt>
<trkpt lat="61.10685" lon="26.012585">
<time>2020-09-12T12:13:07Z</time>
</trkpt>
<trkpt lat="61.106873" lon="26.012725">
<time>2020-09-12T12:13:08Z</time>
</trkpt>
<trkpt lat="61.106901" lon="26.012865">
<time>2020-09-12T12:13:09Z</time>
</trkpt>
<trkpt lat="61.106935" lon="26.013001">
<time>2020-09-12T12:13:10Z</time>
</trkpt>
<trkpt lat="61.10697" lon="26.013136">
<time>2020-09-12T12:13:11Z</time>
</trkpt>
<trkpt lat="61.106998" lon="26.01328">
<time>2020-09-12T12:13:12Z</time>
</trkpt>
<trkpt lat="61.107018" lon="26.013428">
<time>2020-09-12T12:13:13Z</time>
</trkpt>
<trkpt lat="61.107021" lon="26.013581">
<time>2020-09-12T12:13:14Z</time>
</trkpt>
<trkpt lat="61.107008" lon="26.013723">
<time>2020-09-12T12:13:15Z</time>
</trkpt>
<trkpt lat="61.106981" lon="26.013853">
<time>2020-09-12T12:13:16Z</time>
</trkpt>
<trkpt lat="61.106946" lon="26.013978">
<time>2020-09-12T12:13:17Z</time>
</trkpt>
<trkpt lat="61.106906" lon="26.014081">
<time>2020-09-12T12:13:18Z</time>
</trkpt>
<trkpt lat="61.106861" lon="26.014181">
<time>2020-09-12T12:13:19Z</time>
</trkpt>
<trkpt lat="61.106808" lon="26.014301">
<time>2020-09-12T12:13:20Z</time>
</trkpt>
<trkpt lat="61.106761" lon="26.014433">
<time>2020-09-12T12:13:21Z</time>
</trkpt>
<trkpt lat="61.10672" lon="26.014575">
<time>2020-09-12T12:13:22Z</time>
</trkpt>
<trkpt lat="61.106683" lon="26.014728">
<time>2020-09-12T12:13:23Z</time>
</trkpt>
<trkpt lat="61.10665" lon="26.014896">
<time>2020-09-12T12:13:24Z</time>
</trkpt>
<trkpt lat="61.106618" lon="26.015066">
<time>2020-09-12T12:13:25Z</time>
</trkpt>
<trkpt lat="61.106593" lon="26.015233">
<time>2020-09-12T12:13:26Z</time>
</trkpt>
<trkpt lat="61.10657" lon="26.0154">
<time>2020-09-12T12:13:27Z</time>
</trkpt>
<trkpt lat="61.106541" lon="26.015566">
<time>2020-09-12T12:13:28Z</time>
</trkpt>
<trkpt lat="61.106521" lon="26.015718">
<time>2020-09-12T12:13:29Z</time>
</trkpt>
<trkpt lat="61.1065" lon="26.015856">
<time>2020-09-12T12:13:30Z</time>
</trkpt>
<trkpt lat="61.106478" lon="26.015993">
<time>2020-09-12T12:13:31Z</time>
</trkpt>
<trkpt lat="61.10646" lon="26.016135">
<time>2020-09-12T12:13:32Z</time>
</trkpt>
<trkpt lat="61.10645" lon="26.016291">
<time>2020-09-12T12:13:33Z</time>
</trkpt>
<trkpt lat="61.106446" lon="26.016448">
<time>2020-09-12T12:13:34Z</time>
</trkpt>
<trkpt lat="61.106458" lon="26.01659">
<time>2020-09-12T12:13:35Z</time>
</trkpt>
<trkpt lat="61.106473" lon="26.01672">
<time>2020-09-12T12:13:36Z</time>
</trkpt>
<trkpt lat="61.10649" lon="26.016845">
<time>2020-09-12T12:13:37Z</time>
</trkpt>
<trkpt lat="61.106515" lon="26.016971">
<time>2020-09-12T12:13:38Z</time>
</trkpt>
<trkpt lat="61.106546" lon="26.017103">
<time>2020-09-12T12:13:39Z</time>
</trkpt>
<trkpt lat="61.106576" lon="26.01722">
<time>2020-09-12T12:13:40Z</time>
</trkpt>
<trkpt lat="61.106611" lon="26.017323">
<time>2020-09-12T12:13:41Z</time>
</trkpt>
<trkpt lat="61.106656" lon="26.017416">
<time>2020-09-12T12:13:42Z</time>
</trkpt>
<trkpt lat="61.106703" lon="26.017498">
<time>2020-09-12T12:13:43Z</time>
</trkpt>
<trkpt lat="61.106748" lon="26.017561">
<time>2020-09-12T12:13:44Z</time>
</trkpt>
<trkpt lat="61.106795" lon="26.017605">
<time>2020-09-12T12:13:45Z</time>
</trkpt>
<trkpt lat="61.106845" lon="26.017648">
<time>2020-09-12T12:13:46Z</time>
</trkpt>
<trkpt lat="61.106891" lon="26.017693">
<time>2020-09-12T12:13:47Z</time>
</trkpt>
<trkpt lat="61.106926" lon="26.017743">
<time>2020-09-12T12:13:48Z</time>
</trkpt>
<trkpt lat="61.106958" lon="26.017791">
<time>2020-09-12T12:13:49Z</time>
</trkpt>
<trkpt lat="61.106995" lon="26.017838">
<time>2020-09-12T12:13:50Z</time>
</trkpt>
<trkpt lat="61.10703" lon="26.017886">
<time>2020-09-12T12:13:51Z</time>
</trkpt>
<trkpt lat="61.107065" lon="26.017938">
<time>2020-09-12T12:13:52Z</time>
</trkpt>
<trkpt lat="61.1071" lon="26.017995">
<time>2020-09-12T12:13:53Z</time>
</trkpt>
<trkpt lat="61.107136" lon="26.018055">
<time>2020-09-12T12:13:54Z</time>
</trkpt>
<trkpt lat="61.107178" lon="26.018118">
<time>2020-09-12T12:13:55Z</time>
</trkpt>
<trkpt lat="61.107221" lon="26.018183">
<time>2020-09-12T12:13:56Z</time>
</trkpt>
<trkpt lat="61.107265" lon="26.018248">
<time>2020-09-12T12:13:57Z</time>
</trkpt>
<trkpt lat="61.10731" lon="26.018313">
<time>2020-09-12T12:13:58Z</time>
</trkpt>
<trkpt lat="61.107355" lon="26.018381">
<time>2020-09-12T12:13:59Z</time>
</trkpt>
<trkpt lat="61.1074" lon="26.018456">
<time>2020-09-12T12:14:00Z</time>
</trkpt>
<trkpt lat="61.107448" lon="26.018535">
<time>2020-09-12T12:14:01Z</time>
</trkpt>
<trkpt lat="61.1075" lon="26.018616">
<time>2020-09-12T12:14:02Z</time>
</trkpt>
<trkpt lat="61.107553" lon="26.0187">
<time>2020-09-12T12:14:03Z</time>
</trkpt>
<trkpt lat="61.1076" lon="26.018786">
<time>2020-09-12T12:14:04Z</time>
</trkpt>
<trkpt lat="61.107645" lon="26.01887">
<time>2020-09-12T12:14:05Z</time>
</trkpt>
<trkpt lat="61.107693" lon="26.018955">
<time>2020-09-12T12:14:06Z</time>
</trkpt>
<trkpt lat="61.10774" lon="26.019035">
<time>2020-09-12T12:14:07Z</time>
</trkpt>
<trkpt lat="61.107783" lon="26.019108">
<time>2020-09-12T12:14:08Z</time>
</trkpt>
<trkpt lat="61.107826" lon="26.019156">
<time>2020-09-12T12:14:09Z</time>
</trkpt>
<trkpt lat="61.107876" lon="26.01917">
<time>2020-09-12T12:14:10Z</time>
</trkpt>
<trkpt lat="61.107921" lon="26.01916">
<time>2020-09-12T12:14:11Z</time>
</trkpt>
<trkpt lat="61.107963" lon="26.019145">
<time>2020-09-12T12:14:12Z</time>
</trkpt>
<trkpt lat="61.108008" lon="26.019135">
<time>2020-09-12T12:14:13Z</time>
</trkpt>
<trkpt lat="61.108043" lon="26.019126">
<time>2020-09-12T12:14:14Z</time>
</trkpt>
<trkpt lat="61.108065" lon="26.019105">
<time>2020-09-12T12:14:15Z</time>
</trkpt>
<trkpt lat="61.108083" lon="26.019093">
<time>2020-09-12T12:14:16Z</time>
</trkpt>
<trkpt lat="61.108105" lon="26.019095">
<time>2020-09-12T12:14:17Z</time>
</trkpt>
<trkpt lat="61.108133" lon="26.01909">
<time>2020-09-12T12:14:18Z</time>
</trkpt>
<trkpt lat="61.108151" lon="26.019095">
<time>2020-09-12T12:14:19Z</time>
</trkpt>
<trkpt lat="61.108153" lon="26.019073">
<time>2020-09-12T12:14:20Z</time>
</trkpt>
<trkpt lat="61.108166" lon="26.019076">
<time>2020-09-12T12:14:21Z</time>
</trkpt>
<trkpt lat="61.108173" lon="26.019093">
<time>2020-09-12T12:14:22Z</time>
</trkpt>
<trkpt lat="61.108163" lon="26.01911">
<time>2020-09-12T12:14:23Z</time>
</trkpt>
<trkpt lat="61.108153" lon="26.019126">
<time>2020-09-12T12:14:24Z</time>
</trkpt>
<trkpt lat="61.108146" lon="26.019155">
<time>2020-09-12T12:14:25Z</time>
</trkpt>
<trkpt lat="61.108145" lon="26.0192">
<time>2020-09-12T12:14:26Z</time>
</trkpt>
<trkpt lat="61.108146" lon="26.01926">
<time>2020-09-12T12:14:27Z</time>
</trkpt>
<trkpt lat="61.108151" lon="26.019325">
<time>2020-09-12T12:14:28Z</time>
</trkpt>
<trkpt lat="61.108165" lon="26.019395">
<time>2020-09-12T12:14:29Z</time>
</trkpt>
<trkpt lat="61.108193" lon="26.019466">
<time>2020-09-12T12:14:30Z</time>
</trkpt>
<trkpt lat="61.108221" lon="26.019545">
<time>2020-09-12T12:14:31Z</time>
</trkpt>
<trkpt lat="61.10826" lon="26.019625">
<time>2020-09-12T12:14:32Z</time>
</trkpt>
<trkpt lat="61.108303" lon="26.019698">
<time>2020-09-12T12:14:33Z</time>
</trkpt>
<trkpt lat="61.108351" lon="26.019768">
<time>2020-09-12T12:14:34Z</time>
</trkpt>
<trkpt lat="61.108393" lon="26.019846">
<time>2020-09-12T12:14:35Z</time>
</trkpt>
<trkpt lat="61.108431" lon="26.019926">
<time>2020-09-12T12:14:36Z</time>
</trkpt>
<trkpt lat="61.108468" lon="26.020013">
<time>2020-09-12T12:14:37Z</time>
</trkpt>
<trkpt lat="61.108501" lon="26.020108">
<time>2020-09-12T12:14:38Z</time>
</trkpt>
<trkpt lat="61.108526" lon="26.020208">
<time>2020-09-12T12:14:39Z</time>
</trkpt>
<trkpt lat="61.108551" lon="26.020306">
<time>2020-09-12T12:14:40Z</time>
</trkpt>
<trkpt lat="61.108585" lon="26.020385">
<time>2020-09-12T12:14:41Z</time>
</trkpt>
<trkpt lat="61.108618" lon="26.020431">
<time>2020-09-12T12:14:42Z</time>
</trkpt>
<trkpt lat="61.108656" lon="26.020453">
<time>2020-09-12T12:14:43Z</time>
</trkpt>
<trkpt lat="61.108693" lon="26.020455">
<time>2020-09-12T12:14:44Z</time>
</trkpt>
<trkpt lat="61.108738" lon="26.020431">
<time>2020-09-12T12:14:45Z</time>
</trkpt>
<trkpt lat="61.108785" lon="26.020386">
<time>2020-09-12T12:14:46Z</time>
</trkpt>
<trkpt lat="61.10883" lon="26.02033">
<time>2020-09-12T12:14:47Z</time>
</trkpt>
<trkpt lat="61.108881" lon="26.020268">
<time>2020-09-12T12:14:48Z</time>
</trkpt>
<trkpt lat="61.108933" lon="26.020201">
<time>2020-09-12T12:14:49Z</time>
</trkpt>
<trkpt lat="61.108983" lon="26.020138">
<time>2020-09-12T12:14:50Z</time>
</trkpt>
<trkpt lat="61.109031" lon="26.020068">
<time>2020-09-12T12:14:51Z</time>
</trkpt>
<trkpt lat="61.109071" lon="26.02001">
<time>2020-09-12T12:14:52Z</time>
</trkpt>
<trkpt lat="61.109093" lon="26.019976">
<time>2020-09-12T12:14:53Z</time>
</trkpt>
<trkpt lat="61.109091" lon="26.019976">
<time>2020-09-12T12:14:54Z</time>
</trkpt>
<trkpt lat="61.109078" lon="26.019996">
<time>2020-09-12T12:14:55Z</time>
</trkpt>
<trkpt lat="61.109056" lon="26.020035">
<time>2020-09-12T12:14:56Z</time>
</trkpt>
<trkpt lat="61.109031" lon="26.020073">
<time>2020-09-12T12:14:57Z</time>
</trkpt>
<trkpt lat="61.109" lon="26.020115">
<time>2020-09-12T12:14:58Z</time>
</trkpt>
<trkpt lat="61.108963" lon="26.020156">
<time>2020-09-12T12:14:59Z</time>
</trkpt>
<trkpt lat="61.108921" lon="26.020201">
<time>2020-09-12T12:15:00Z</time>
</trkpt>
<trkpt lat="61.108875" lon="26.020245">
<time>2020-09-12T12:15:01Z</time>
</trkpt>
<trkpt lat="61.108826" lon="26.02029">
<time>2020-09-12T12:15:02Z</time>
</trkpt>
<trkpt lat="61.108776" lon="26.020336">
<time>2020-09-12T12:15:03Z</time>
</trkpt>
<trkpt lat="61.10873" lon="26.020395">
<time>2020-09-12T12:15:04Z</time>
</trkpt>
<trkpt lat="61.108693" lon="26.02047">
<time>2020-09-12T12:15:05Z</time>
</trkpt>
<trkpt lat="61.108668" lon="26.020575">
<time>2020-09-12T12:15:06Z</time>
</trkpt>
<trkpt lat="61.108658" lon="26.020695">
<time>2020-09-12T12:15:07Z</time>
</trkpt>
<trkpt lat="61.108653" lon="26.020841">
<time>2020-09-12T12:15:08Z</time>
</trkpt>
<trkpt lat="61.108655" lon="26.020986">
<time>2020-09-12T12:15:09Z</time>
</trkpt>
<trkpt lat="61.108661" lon="26.021138">
<time>2020-09-12T12:15:10Z</time>
</trkpt>
<trkpt lat="61.108666" lon="26.021293">
<time>2020-09-12T12:15:11Z</time>
</trkpt>
<trkpt lat="61.108668" lon="26.021445">
<time>2020-09-12T12:15:12Z</time>
</trkpt>
<trkpt lat="61.108671" lon="26.021606">
<time>2020-09-12T12:15:13Z</time>
</trkpt>
<trkpt lat="61.108665" lon="26.021771">
<time>2020-09-12T12:15:14Z</time>
</trkpt>
<trkpt lat="61.108653" lon="26.021938">
<time>2020-09-12T12:15:15Z</time>
</trkpt>
<trkpt lat="61.108628" lon="26.022086">
<time>2020-09-12T12:15:16Z</time>
</trkpt>
<trkpt lat="61.108596" lon="26.02222">
<time>2020-09-12T12:15:17Z</time>
</trkpt>
<trkpt lat="61.10856" lon="26.022341">
<time>2020-09-12T12:15:18Z</time>
</trkpt>
<trkpt lat="61.108521" lon="26.022448">
<time>2020-09-12T12:15:19Z</time>
</trkpt>
<trkpt lat="61.108481" lon="26.022558">
<time>2020-09-12T12:15:20Z</time>
</trkpt>
<trkpt lat="61.10845" lon="26.022663">
<time>2020-09-12T12:15:21Z</time>
</trkpt>
<trkpt lat="61.108423" lon="26.022773">
<time>2020-09-12T12:15:22Z</time>
</trkpt>
<trkpt lat="61.1084" lon="26.022883">
<time>2020-09-12T12:15:23Z</time>
</trkpt>
<trkpt lat="61.108381" lon="26.023">
<time>2020-09-12T12:15:24Z</time>
</trkpt>
<trkpt lat="61.108371" lon="26.02312">
<time>2020-09-12T12:15:25Z</time>
</trkpt>
<trkpt lat="61.108368" lon="26.023243">
<time>2020-09-12T12:15:26Z</time>
</trkpt>
<trkpt lat="61.108371" lon="26.02338">
<time>2020-09-12T12:15:27Z</time>
</trkpt>
<trkpt lat="61.108381" lon="26.023506">
<time>2020-09-12T12:15:28Z</time>
</trkpt>
<trkpt lat="61.108393" lon="26.023638">
<time>2020-09-12T12:15:29Z</time>
</trkpt>
<trkpt lat="61.108406" lon="26.023768">
<time>2020-09-12T12:15:30Z</time>
</trkpt>
<trkpt lat="61.108428" lon="26.023906">
<time>2020-09-12T12:15:31Z</time>
</trkpt>
<trkpt lat="61.108451" lon="26.024036">
<time>2020-09-12T12:15:32Z</time>
</trkpt>
<trkpt lat="61.108473" lon="26.02417">
<time>2020-09-12T12:15:33Z</time>
</trkpt>
<trkpt lat="61.108485" lon="26.024283">
<time>2020-09-12T12:15:34Z</time>
</trkpt>
<trkpt lat="61.108488" lon="26.024426">
<time>2020-09-12T12:15:35Z</time>
</trkpt>
<trkpt lat="61.108481" lon="26.024571">
<time>2020-09-12T12:15:36Z</time>
</trkpt>
<trkpt lat="61.108465" lon="26.024711">
<time>2020-09-12T12:15:37Z</time>
</trkpt>
<trkpt lat="61.10844" lon="26.024851">
<time>2020-09-12T12:15:38Z</time>
</trkpt>
<trkpt lat="61.1084" lon="26.025018">
<time>2020-09-12T12:15:39Z</time>
</trkpt>
<trkpt lat="61.10836" lon="26.025153">
<time>2020-09-12T12:15:40Z</time>
</trkpt>
<trkpt lat="61.108316" lon="26.025283">
<time>2020-09-12T12:15:41Z</time>
</trkpt>
<trkpt lat="61.108268" lon="26.025396">
<time>2020-09-12T12:15:42Z</time>
</trkpt>
<trkpt lat="61.108213" lon="26.025501">
<time>2020-09-12T12:15:43Z</time>
</trkpt>
<trkpt lat="61.108153" lon="26.0256">
<time>2020-09-12T12:15:44Z</time>
</trkpt>
<trkpt lat="61.108093" lon="26.025696">
<time>2020-09-12T12:15:45Z</time>
</trkpt>
<trkpt lat="61.108028" lon="26.025786">
<time>2020-09-12T12:15:46Z</time>
</trkpt>
<trkpt lat="61.107966" lon="26.025876">
<time>2020-09-12T12:15:47Z</time>
</trkpt>
<trkpt lat="61.107906" lon="26.025981">
<time>2020-09-12T12:15:48Z</time>
</trkpt>
<trkpt lat="61.107838" lon="26.026106">
<time>2020-09-12T12:15:49Z</time>
</trkpt>
<trkpt lat="61.10778" lon="26.02623">
<time>2020-09-12T12:15:50Z</time>
</trkpt>
<trkpt lat="61.107731" lon="26.026326">
<time>2020-09-12T12:15:51Z</time>
</trkpt>
<trkpt lat="61.10767" lon="26.026435">
<time>2020-09-12T12:15:52Z</time>
</trkpt>
<trkpt lat="61.107606" lon="26.026533">
<time>2020-09-12T12:15:53Z</time>
</trkpt>
<trkpt lat="61.10753" lon="26.026631">
<time>2020-09-12T12:15:54Z</time>
</trkpt>
<trkpt lat="61.107468" lon="26.026703">
<time>2020-09-12T12:15:55Z</time>
</trkpt>
<trkpt lat="61.107426" lon="26.026765">
<time>2020-09-12T12:15:56Z</time>
</trkpt>
<trkpt lat="61.107386" lon="26.026843">
<time>2020-09-12T12:15:57Z</time>
</trkpt>
<trkpt lat="61.10736" lon="26.026933">
<time>2020-09-12T12:15:58Z</time>
</trkpt>
<trkpt lat="61.107331" lon="26.02705">
<time>2020-09-12T12:15:59Z</time>
</trkpt>
<trkpt lat="61.10731" lon="26.027158">
<time>2020-09-12T12:16:00Z</time>
</trkpt>
<trkpt lat="61.107281" lon="26.027266">
<time>2020-09-12T12:16:01Z</time>
</trkpt>
<trkpt lat="61.107258" lon="26.027378">
<time>2020-09-12T12:16:02Z</time>
</trkpt>
<trkpt lat="61.107238" lon="26.027491">
<time>2020-09-12T12:16:03Z</time>
</trkpt>
<trkpt lat="61.107223" lon="26.027601">
<time>2020-09-12T12:16:04Z</time>
</trkpt>
<trkpt lat="61.107215" lon="26.027715">
<time>2020-09-12T12:16:05Z</time>
</trkpt>
<trkpt lat="61.107206" lon="26.02783">
<time>2020-09-12T12:16:06Z</time>
</trkpt>
<trkpt lat="61.107193" lon="26.027945">
<time>2020-09-12T12:16:07Z</time>
</trkpt>
<trkpt lat="61.10717" lon="26.028048">
<time>2020-09-12T12:16:08Z</time>
</trkpt>
<trkpt lat="61.107135" lon="26.028146">
<time>2020-09-12T12:16:09Z</time>
</trkpt>
<trkpt lat="61.107095" lon="26.028245">
<time>2020-09-12T12:16:10Z</time>
</trkpt>
<trkpt lat="61.107056" lon="26.028346">
<time>2020-09-12T12:16:11Z</time>
</trkpt>
<trkpt lat="61.107023" lon="26.028455">
<time>2020-09-12T12:16:12Z</time>
</trkpt>
<trkpt lat="61.106995" lon="26.028573">
<time>2020-09-12T12:16:13Z</time>
</trkpt>
<trkpt lat="61.10697" lon="26.028708">
<time>2020-09-12T12:16:14Z</time>
</trkpt>
<trkpt lat="61.10695" lon="26.028843">
<time>2020-09-12T12:16:15Z</time>
</trkpt>
<trkpt lat="61.106925" lon="26.028985">
<time>2020-09-12T12:16:16Z</time>
</trkpt>
<trkpt lat="61.106901" lon="26.02913">
<time>2020-09-12T12:16:17Z</time>
</trkpt>
<trkpt lat="61.106876" lon="26.029268">
<time>2020-09-12T12:16:18Z</time>
</trkpt>
<trkpt lat="61.106853" lon="26.029408">
<time>2020-09-12T12:16:19Z</time>
</trkpt>
<trkpt lat="61.10683" lon="26.029541">
<time>2020-09-12T12:16:20Z</time>
</trkpt>
<trkpt lat="61.10681" lon="26.02968">
<time>2020-09-12T12:16:21Z</time>
</trkpt>
<trkpt lat="61.106798" lon="26.02982">
<time>2020-09-12T12:16:22Z</time>
</trkpt>
<trkpt lat="61.106793" lon="26.029956">
<time>2020-09-12T12:16:23Z</time>
</trkpt>
<trkpt lat="61.10679" lon="26.030093">
<time>2020-09-12T12:16:24Z</time>
</trkpt>
<trkpt lat="61.106796" lon="26.030218">
<time>2020-09-12T12:16:25Z</time>
</trkpt>
<trkpt lat="61.106806" lon="26.030325">
<time>2020-09-12T12:16:26Z</time>
</trkpt>
<trkpt lat="61.106815" lon="26.030406">
<time>2020-09-12T12:16:27Z</time>
</trkpt>
<trkpt lat="61.106813" lon="26.030451">
<time>2020-09-12T12:16:28Z</time>
</trkpt>
<trkpt lat="61.106806" lon="26.030473">
<time>2020-09-12T12:16:29Z</time>
</trkpt>
<trkpt lat="61.106796" lon="26.030481">
<time>2020-09-12T12:16:30Z</time>
</trkpt>
<trkpt lat="61.106785" lon="26.030478">
<time>2020-09-12T12:16:31Z</time>
</trkpt>
<trkpt lat="61.10677" lon="26.030476">
<time>2020-09-12T12:16:32Z</time>
</trkpt>
<trkpt lat="61.106755" lon="26.030491">
<time>2020-09-12T12:16:33Z</time>
</trkpt>
<trkpt lat="61.106743" lon="26.030518">
<time>2020-09-12T12:16:34Z</time>
</trkpt>
<trkpt lat="61.106726" lon="26.030558">
<time>2020-09-12T12:16:35Z</time>
</trkpt>
<trkpt lat="61.106705" lon="26.030608">
<time>2020-09-12T12:16:36Z</time>
</trkpt>
<trkpt lat="61.106676" lon="26.03066">
<time>2020-09-12T12:16:37Z</time>
</trkpt>
<trkpt lat="61.10664" lon="26.030705">
<time>2020-09-12T12:16:38Z</time>
</trkpt>
<trkpt lat="61.106611" lon="26.030766">
<time>2020-09-12T12:16:39Z</time>
</trkpt>
<trkpt lat="61.106593" lon="26.030823">
<time>2020-09-12T12:16:40Z</time>
</trkpt>
<trkpt lat="61.10658" lon="26.030871">
<time>2020-09-12T12:16:41Z</time>
</trkpt>
<trkpt lat="61.106568" lon="26.030921">
<time>2020-09-12T12:16:42Z</time>
</trkpt>
<trkpt lat="61.106568" lon="26.030961">
<time>2020-09-12T12:16:43Z</time>
</trkpt>
<trkpt lat="61.106568" lon="26.031008">
<time>2020-09-12T12:16:44Z</time>
</trkpt>
<trkpt lat="61.106568" lon="26.031066">
<time>2020-09-12T12:16:45Z</time>
</trkpt>
<trkpt lat="61.106563" lon="26.031115">
<time>2020-09-12T12:16:46Z</time>
</trkpt>
<trkpt lat="61.10656" lon="26.031175">
<time>2020-09-12T12:16:47Z</time>
</trkpt>
<trkpt lat="61.106551" lon="26.03123">
<time>2020-09-12T12:16:48Z</time>
</trkpt>
<trkpt lat="61.106546" lon="26.031293">
<time>2020-09-12T12:16:49Z</time>
</trkpt>
<trkpt lat="61.106548" lon="26.03136">
<time>2020-09-12T12:16:50Z</time>
</trkpt>
<trkpt lat="61.106553" lon="26.031428">
<time>2020-09-12T12:16:51Z</time>
</trkpt>
<trkpt lat="61.106555" lon="26.031501">
<time>2020-09-12T12:16:52Z</time>
</trkpt>
<trkpt lat="61.106561" lon="26.03157">
<time>2020-09-12T12:16:53Z</time>
</trkpt>
<trkpt lat="61.106575" lon="26.031636">
<time>2020-09-12T12:16:54Z</time>
</trkpt>
<trkpt lat="61.106588" lon="26.031708">
<time>2020-09-12T12:16:55Z</time>
</trkpt>
<trkpt lat="61.106596" lon="26.031783">
<time>2020-09-12T12:16:56Z</time>
</trkpt>
<trkpt lat="61.106605" lon="26.031855">
<time>2020-09-12T12:16:57Z</time>
</trkpt>
<trkpt lat="61.106608" lon="26.031923">
<time>2020-09-12T12:16:58Z</time>
</trkpt>
<trkpt lat="61.106613" lon="26.031995">
<time>2020-09-12T12:16:59Z</time>
</trkpt>
<trkpt lat="61.10662" lon="26.032063">
<time>2020-09-12T12:17:00Z</time>
</trkpt>
<trkpt lat="61.106625" lon="26.032146">
<time>2020-09-12T12:17:01Z</time>
</trkpt>
<trkpt lat="61.106638" lon="26.03222">
<time>2020-09-12T12:17:02Z</time>
</trkpt>
<trkpt lat="61.106646" lon="26.032286">
<time>2020-09-12T12:17:03Z</time>
</trkpt>
<trkpt lat="61.106656" lon="26.032356">
<time>2020-09-12T12:17:04Z</time>
</trkpt>
<trkpt lat="61.106675" lon="26.032431">
<time>2020-09-12T12:17:05Z</time>
</trkpt>
<trkpt lat="61.106691" lon="26.032513">
<time>2020-09-12T12:17:06Z</time>
</trkpt>
<trkpt lat="61.10671" lon="26.032605">
<time>2020-09-12T12:17:07Z</time>
</trkpt>
<trkpt lat="61.106731" lon="26.032686">
<time>2020-09-12T12:17:08Z</time>
</trkpt>
<trkpt lat="61.106748" lon="26.032748">
<time>2020-09-12T12:17:09Z</time>
</trkpt>
<trkpt lat="61.10677" lon="26.032811">
<time>2020-09-12T12:17:10Z</time>
</trkpt>
<trkpt lat="61.10679" lon="26.032876">
<time>2020-09-12T12:17:11Z</time>
</trkpt>
<trkpt lat="61.106806" lon="26.032945">
<time>2020-09-12T12:17:12Z</time>
</trkpt>
<trkpt lat="61.106825" lon="26.03302">
<time>2020-09-12T12:17:13Z</time>
</trkpt>
<trkpt lat="61.106846" lon="26.033095">
<time>2020-09-12T12:17:14Z</time>
</trkpt>
<trkpt lat="61.106868" lon="26.033166">
<time>2020-09-12T12:17:15Z</time>
</trkpt>
<trkpt lat="61.106885" lon="26.03324">
<time>2020-09-12T12:17:16Z</time>
</trkpt>
<trkpt lat="61.106896" lon="26.033315">
<time>2020-09-12T12:17:17Z</time>
</trkpt>
<trkpt lat="61.106906" lon="26.033393">
<time>2020-09-12T12:17:18Z</time>
</trkpt>
<trkpt lat="61.106913" lon="26.033466">
<time>2020-09-12T12:17:19Z</time>
</trkpt>
<trkpt lat="61.106918" lon="26.033545">
<time>2020-09-12T12:17:20Z</time>
</trkpt>
<trkpt lat="61.106923" lon="26.033623">
<time>2020-09-12T12:17:21Z</time>
</trkpt>
<trkpt lat="61.106928" lon="26.033693">
<time>2020-09-12T12:17:22Z</time>
</trkpt>
<trkpt lat="61.106925" lon="26.033763">
<time>2020-09-12T12:17:23Z</time>
</trkpt>
<trkpt lat="61.106916" lon="26.033836">
<time>2020-09-12T12:17:24Z</time>
</trkpt>
<trkpt lat="61.106911" lon="26.033911">
<time>2020-09-12T12:17:25Z</time>
</trkpt>
<trkpt lat="61.106911" lon="26.033988">
<time>2020-09-12T12:17:26Z</time>
</trkpt>
<trkpt lat="61.106925" lon="26.034061">
<time>2020-09-12T12:17:27Z</time>
</trkpt>
<trkpt lat="61.106941" lon="26.034141">
<time>2020-09-12T12:17:28Z</time>
</trkpt>
<trkpt lat="61.106953" lon="26.034235">
<time>2020-09-12T12:17:29Z</time>
</trkpt>
<trkpt lat="61.106968" lon="26.034326">
<time>2020-09-12T12:17:30Z</time>
</trkpt>
<trkpt lat="61.106996" lon="26.034411">
<time>2020-09-12T12:17:31Z</time>
</trkpt>
<trkpt lat="61.10702" lon="26.034485">
<time>2020-09-12T12:17:32Z</time>
</trkpt>
<trkpt lat="61.107046" lon="26.034558">
<time>2020-09-12T12:17:33Z</time>
</trkpt>
<trkpt lat="61.107071" lon="26.034646">
<time>2020-09-12T12:17:34Z</time>
</trkpt>
<trkpt lat="61.107088" lon="26.03476">
<time>2020-09-12T12:17:35Z</time>
</trkpt>
<trkpt lat="61.107101" lon="26.034873">
<time>2020-09-12T12:17:36Z</time>
</trkpt>
<trkpt lat="61.107113" lon="26.034988">
<time>2020-09-12T12:17:37Z</time>
</trkpt>
<trkpt lat="61.107131" lon="26.0351">
<time>2020-09-12T12:17:38Z</time>
</trkpt>
<trkpt lat="61.107163" lon="26.035186">
<time>2020-09-12T12:17:39Z</time>
</trkpt>
<trkpt lat="61.1072" lon="26.035261">
<time>2020-09-12T12:17:40Z</time>
</trkpt>
<trkpt lat="61.107248" lon="26.035326">
<time>2020-09-12T12:17:41Z</time>
</trkpt>
<trkpt lat="61.1073" lon="26.03539">
<time>2020-09-12T12:17:42Z</time>
</trkpt>
<trkpt lat="61.107356" lon="26.035453">
<time>2020-09-12T12:17:43Z</time>
</trkpt>
<trkpt lat="61.107415" lon="26.03552">
<time>2020-09-12T12:17:44Z</time>
</trkpt>
<trkpt lat="61.107468" lon="26.035591">
<time>2020-09-12T12:17:45Z</time>
</trkpt>
<trkpt lat="61.107518" lon="26.03568">
<time>2020-09-12T12:17:46Z</time>
</trkpt>
<trkpt lat="61.107561" lon="26.035778">
<time>2020-09-12T12:17:47Z</time>
</trkpt>
<trkpt lat="61.107605" lon="26.035888">
<time>2020-09-12T12:17:48Z</time>
</trkpt>
<trkpt lat="61.107645" lon="26.036">
<time>2020-09-12T12:17:49Z</time>
</trkpt>
<trkpt lat="61.107688" lon="26.03611">
<time>2020-09-12T12:17:50Z</time>
</trkpt>
<trkpt lat="61.107733" lon="26.03622">
<time>2020-09-12T12:17:51Z</time>
</trkpt>
<trkpt lat="61.107783" lon="26.036323">
<time>2020-09-12T12:17:52Z</time>
</trkpt>
<trkpt lat="61.10784" lon="26.036418">
<time>2020-09-12T12:17:53Z</time>
</trkpt>
<trkpt lat="61.107903" lon="26.036498">
<time>2020-09-12T12:17:54Z</time>
</trkpt>
<trkpt lat="61.107968" lon="26.036565">
<time>2020-09-12T12:17:55Z</time>
</trkpt>
<trkpt lat="61.108033" lon="26.036626">
<time>2020-09-12T12:17:56Z</time>
</trkpt>
<trkpt lat="61.108096" lon="26.036686">
<time>2020-09-12T12:17:57Z</time>
</trkpt>
<trkpt lat="61.108161" lon="26.036751">
<time>2020-09-12T12:17:58Z</time>
</trkpt>
<trkpt lat="61.10822" lon="26.036818">
<time>2020-09-12T12:17:59Z</time>
</trkpt>
<trkpt lat="61.108268" lon="26.036863">
<time>2020-09-12T12:18:00Z</time>
</trkpt>
<trkpt lat="61.108335" lon="26.036908">
<time>2020-09-12T12:18:01Z</time>
</trkpt>
<trkpt lat="61.108416" lon="26.036968">
<time>2020-09-12T12:18:02Z</time>
</trkpt>
<trkpt lat="61.108486" lon="26.037018">
<time>2020-09-12T12:18:03Z</time>
</trkpt>
<trkpt lat="61.108553" lon="26.03707">
<time>2020-09-12T12:18:04Z</time>
</trkpt>
<trkpt lat="61.108613" lon="26.037106">
<time>2020-09-12T12:18:05Z</time>
</trkpt>
<trkpt lat="61.108681" lon="26.037148">
<time>2020-09-12T12:18:06Z</time>
</trkpt>
<trkpt lat="61.108763" lon="26.037188">
<time>2020-09-12T12:18:07Z</time>
</trkpt>
<trkpt lat="61.108833" lon="26.037211">
<time>2020-09-12T12:18:08Z</time>
</trkpt>
<trkpt lat="61.108905" lon="26.037233">
<time>2020-09-12T12:18:09Z</time>
</trkpt>
<trkpt lat="61.108963" lon="26.037245">
<time>2020-09-12T12:18:10Z</time>
</trkpt>
<trkpt lat="61.109035" lon="26.037258">
<time>2020-09-12T12:18:11Z</time>
</trkpt>
<trkpt lat="61.109123" lon="26.03728">
<time>2020-09-12T12:18:12Z</time>
</trkpt>
<trkpt lat="61.1092" lon="26.037303">
<time>2020-09-12T12:18:13Z</time>
</trkpt>
<trkpt lat="61.109278" lon="26.037325">
<time>2020-09-12T12:18:14Z</time>
</trkpt>
<trkpt lat="61.10934" lon="26.037341">
<time>2020-09-12T12:18:15Z</time>
</trkpt>
<trkpt lat="61.109418" lon="26.037365">
<time>2020-09-12T12:18:16Z</time>
</trkpt>
<trkpt lat="61.109511" lon="26.037391">
<time>2020-09-12T12:18:17Z</time>
</trkpt>
<trkpt lat="61.109588" lon="26.03741">
<time>2020-09-12T12:18:18Z</time>
</trkpt>
<trkpt lat="61.109666" lon="26.037428">
<time>2020-09-12T12:18:19Z</time>
</trkpt>
<trkpt lat="61.109728" lon="26.037436">
<time>2020-09-12T12:18:20Z</time>
</trkpt>
<trkpt lat="61.109806" lon="26.037441">
<time>2020-09-12T12:18:21Z</time>
</trkpt>
<trkpt lat="61.109903" lon="26.037445">
<time>2020-09-12T12:18:22Z</time>
</trkpt>
<trkpt lat="61.109968" lon="26.037443">
<time>2020-09-12T12:18:23Z</time>
</trkpt>
<trkpt lat="61.11005" lon="26.037436">
<time>2020-09-12T12:18:24Z</time>
</trkpt>
<trkpt lat="61.110133" lon="26.037426">
<time>2020-09-12T12:18:25Z</time>
</trkpt>
<trkpt lat="61.110216" lon="26.037406">
<time>2020-09-12T12:18:26Z</time>
</trkpt>
<trkpt lat="61.110301" lon="26.03738">
<time>2020-09-12T12:18:27Z</time>
</trkpt>
<trkpt lat="61.1104" lon="26.03734">
<time>2020-09-12T12:18:28Z</time>
</trkpt>
<trkpt lat="61.110461" lon="26.037306">
<time>2020-09-12T12:18:29Z</time>
</trkpt>
<trkpt lat="61.110535" lon="26.037258">
<time>2020-09-12T12:18:30Z</time>
</trkpt>
<trkpt lat="61.110598" lon="26.03719">
<time>2020-09-12T12:18:31Z</time>
</trkpt>
<trkpt lat="61.110658" lon="26.037088">
<time>2020-09-12T12:18:32Z</time>
</trkpt>
<trkpt lat="61.110686" lon="26.036981">
<time>2020-09-12T12:18:33Z</time>
</trkpt>
<trkpt lat="61.110693" lon="26.036886">
<time>2020-09-12T12:18:34Z</time>
</trkpt>
<trkpt lat="61.110688" lon="26.03676">
<time>2020-09-12T12:18:35Z</time>
</trkpt>
<trkpt lat="61.110675" lon="26.036626">
<time>2020-09-12T12:18:36Z</time>
</trkpt>
<trkpt lat="61.110656" lon="26.036458">
<time>2020-09-12T12:18:37Z</time>
</trkpt>
<trkpt lat="61.11063" lon="26.036291">
<time>2020-09-12T12:18:38Z</time>
</trkpt>
<trkpt lat="61.110616" lon="26.036161">
<time>2020-09-12T12:18:39Z</time>
</trkpt>
<trkpt lat="61.110608" lon="26.035998">
<time>2020-09-12T12:18:40Z</time>
</trkpt>
<trkpt lat="61.110605" lon="26.035843">
<time>2020-09-12T12:18:41Z</time>
</trkpt>
<trkpt lat="61.110611" lon="26.035688">
<time>2020-09-12T12:18:42Z</time>
</trkpt>
<trkpt lat="61.110615" lon="26.035533">
<time>2020-09-12T12:18:43Z</time>
</trkpt>
<trkpt lat="61.110623" lon="26.035378">
<time>2020-09-12T12:18:44Z</time>
</trkpt>
<trkpt lat="61.11063" lon="26.035225">
<time>2020-09-12T12:18:45Z</time>
</trkpt>
<trkpt lat="61.110633" lon="26.035065">
<time>2020-09-12T12:18:46Z</time>
</trkpt>
<trkpt lat="61.110631" lon="26.0349">
<time>2020-09-12T12:18:47Z</time>
</trkpt>
<trkpt lat="61.110623" lon="26.034705">
<time>2020-09-12T12:18:48Z</time>
</trkpt>
<trkpt lat="61.110615" lon="26.034575">
<time>2020-09-12T12:18:49Z</time>
</trkpt>
<trkpt lat="61.1106" lon="26.034411">
<time>2020-09-12T12:18:50Z</time>
</trkpt>
<trkpt lat="61.110585" lon="26.034248">
<time>2020-09-12T12:18:51Z</time>
</trkpt>
<trkpt lat="61.110568" lon="26.034055">
<time>2020-09-12T12:18:52Z</time>
</trkpt>
<trkpt lat="61.110558" lon="26.033926">
<time>2020-09-12T12:18:53Z</time>
</trkpt>
<trkpt lat="61.11055" lon="26.033766">
<time>2020-09-12T12:18:54Z</time>
</trkpt>
<trkpt lat="61.11054" lon="26.033606">
<time>2020-09-12T12:18:55Z</time>
</trkpt>
<trkpt lat="61.110531" lon="26.033446">
<time>2020-09-12T12:18:56Z</time>
</trkpt>
<trkpt lat="61.110525" lon="26.03329">
<time>2020-09-12T12:18:57Z</time>
</trkpt>
<trkpt lat="61.110516" lon="26.033101">
<time>2020-09-12T12:18:58Z</time>
</trkpt>
<trkpt lat="61.110508" lon="26.032976">
<time>2020-09-12T12:18:59Z</time>
</trkpt>
<trkpt lat="61.110495" lon="26.032823">
<time>2020-09-12T12:19:00Z</time>
</trkpt>
<trkpt lat="61.110483" lon="26.032668">
<time>2020-09-12T12:19:01Z</time>
</trkpt>
<trkpt lat="61.110466" lon="26.032481">
<time>2020-09-12T12:19:02Z</time>
</trkpt>
<trkpt lat="61.110456" lon="26.032325">
<time>2020-09-12T12:19:03Z</time>
</trkpt>
<trkpt lat="61.110451" lon="26.032196">
<time>2020-09-12T12:19:04Z</time>
</trkpt>
<trkpt lat="61.110446" lon="26.032036">
<time>2020-09-12T12:19:05Z</time>
</trkpt>
<trkpt lat="61.110445" lon="26.031875">
<time>2020-09-12T12:19:06Z</time>
</trkpt>
<trkpt lat="61.110451" lon="26.031713">
<time>2020-09-12T12:19:07Z</time>
</trkpt>
<trkpt lat="61.110465" lon="26.031513">
<time>2020-09-12T12:19:08Z</time>
</trkpt>
<trkpt lat="61.110476" lon="26.031378">
<time>2020-09-12T12:19:09Z</time>
</trkpt>
<trkpt lat="61.110488" lon="26.03121">
<time>2020-09-12T12:19:10Z</time>
</trkpt>
<trkpt lat="61.110498" lon="26.03104">
<time>2020-09-12T12:19:11Z</time>
</trkpt>
<trkpt lat="61.11051" lon="26.030838">
<time>2020-09-12T12:19:12Z</time>
</trkpt>
<trkpt lat="61.110518" lon="26.030671">
<time>2020-09-12T12:19:13Z</time>
</trkpt>
<trkpt lat="61.110526" lon="26.030535">
<time>2020-09-12T12:19:14Z</time>
</trkpt>
<trkpt lat="61.11054" lon="26.030366">
<time>2020-09-12T12:19:15Z</time>
</trkpt>
<trkpt lat="61.11056" lon="26.030201">
<time>2020-09-12T12:19:16Z</time>
</trkpt>
<trkpt lat="61.110591" lon="26.030013">
<time>2020-09-12T12:19:17Z</time>
</trkpt>
<trkpt lat="61.110626" lon="26.029871">
<time>2020-09-12T12:19:18Z</time>
</trkpt>
<trkpt lat="61.110671" lon="26.029755">
<time>2020-09-12T12:19:19Z</time>
</trkpt>
<trkpt lat="61.110728" lon="26.029661">
<time>2020-09-12T12:19:20Z</time>
</trkpt>
<trkpt lat="61.110795" lon="26.029598">
<time>2020-09-12T12:19:21Z</time>
</trkpt>
<trkpt lat="61.110866" lon="26.029556">
<time>2020-09-12T12:19:22Z</time>
</trkpt>
<trkpt lat="61.110943" lon="26.029535">
<time>2020-09-12T12:19:23Z</time>
</trkpt>
<trkpt lat="61.111025" lon="26.029521">
<time>2020-09-12T12:19:24Z</time>
</trkpt>
<trkpt lat="61.11111" lon="26.029516">
<time>2020-09-12T12:19:25Z</time>
</trkpt>
<trkpt lat="61.111195" lon="26.029516">
<time>2020-09-12T12:19:26Z</time>
</trkpt>
<trkpt lat="61.111285" lon="26.029545">
<time>2020-09-12T12:19:27Z</time>
</trkpt>
<trkpt lat="61.111368" lon="26.029588">
<time>2020-09-12T12:19:28Z</time>
</trkpt>
<trkpt lat="61.11144" lon="26.029631">
<time>2020-09-12T12:19:29Z</time>
</trkpt>
<trkpt lat="61.111543" lon="26.029691">
<time>2020-09-12T12:19:30Z</time>
</trkpt>
<trkpt lat="61.111616" lon="26.029723">
<time>2020-09-12T12:19:31Z</time>
</trkpt>
<trkpt lat="61.111721" lon="26.029746">
<time>2020-09-12T12:19:32Z</time>
</trkpt>
<trkpt lat="61.111808" lon="26.029755">
<time>2020-09-12T12:19:33Z</time>
</trkpt>
<trkpt lat="61.111898" lon="26.029758">
<time>2020-09-12T12:19:34Z</time>
</trkpt>
<trkpt lat="61.111965" lon="26.02975">
<time>2020-09-12T12:19:35Z</time>
</trkpt>
<trkpt lat="61.112065" lon="26.029723">
<time>2020-09-12T12:19:36Z</time>
</trkpt>
<trkpt lat="61.112146" lon="26.02969">
<time>2020-09-12T12:19:37Z</time>
</trkpt>
<trkpt lat="61.112235" lon="26.02965">
<time>2020-09-12T12:19:38Z</time>
</trkpt>
<trkpt lat="61.112305" lon="26.029616">
<time>2020-09-12T12:19:39Z</time>
</trkpt>
<trkpt lat="61.112386" lon="26.029571">
<time>2020-09-12T12:19:40Z</time>
</trkpt>
<trkpt lat="61.112465" lon="26.029526">
<time>2020-09-12T12:19:41Z</time>
</trkpt>
<trkpt lat="61.112555" lon="26.029483">
<time>2020-09-12T12:19:42Z</time>
</trkpt>
<trkpt lat="61.112631" lon="26.029448">
<time>2020-09-12T12:19:43Z</time>
</trkpt>
<trkpt lat="61.112693" lon="26.029421">
<time>2020-09-12T12:19:44Z</time>
</trkpt>
<trkpt lat="61.112788" lon="26.02938">
<time>2020-09-12T12:19:45Z</time>
</trkpt>
<trkpt lat="61.112851" lon="26.029351">
<time>2020-09-12T12:19:46Z</time>
</trkpt>
<trkpt lat="61.112945" lon="26.029303">
<time>2020-09-12T12:19:47Z</time>
</trkpt>
<trkpt lat="61.113021" lon="26.029251">
<time>2020-09-12T12:19:48Z</time>
</trkpt>
<trkpt lat="61.11308" lon="26.029205">
<time>2020-09-12T12:19:49Z</time>
</trkpt>
<trkpt lat="61.113155" lon="26.029143">
<time>2020-09-12T12:19:50Z</time>
</trkpt>
<trkpt lat="61.113241" lon="26.029071">
<time>2020-09-12T12:19:51Z</time>
</trkpt>
<trkpt lat="61.113315" lon="26.02901">
<time>2020-09-12T12:19:52Z</time>
</trkpt>
<trkpt lat="61.113388" lon="26.028953">
<time>2020-09-12T12:19:53Z</time>
</trkpt>
<trkpt lat="61.113445" lon="26.028906">
<time>2020-09-12T12:19:54Z</time>
</trkpt>
<trkpt lat="61.11352" lon="26.028853">
<time>2020-09-12T12:19:55Z</time>
</trkpt>
<trkpt lat="61.11361" lon="26.028788">
<time>2020-09-12T12:19:56Z</time>
</trkpt>
<trkpt lat="61.113668" lon="26.028745">
<time>2020-09-12T12:19:57Z</time>
</trkpt>
<trkpt lat="61.113741" lon="26.028691">
<time>2020-09-12T12:19:58Z</time>
</trkpt>
<trkpt lat="61.113815" lon="26.02864">
<time>2020-09-12T12:19:59Z</time>
</trkpt>
<trkpt lat="61.11389" lon="26.02859">
<time>2020-09-12T12:20:00Z</time>
</trkpt>
<trkpt lat="61.113981" lon="26.028553">
<time>2020-09-12T12:20:01Z</time>
</trkpt>
<trkpt lat="61.114058" lon="26.02855">
<time>2020-09-12T12:20:02Z</time>
</trkpt>
<trkpt lat="61.114136" lon="26.028578">
<time>2020-09-12T12:20:03Z</time>
</trkpt>
<trkpt lat="61.114193" lon="26.02863">
<time>2020-09-12T12:20:04Z</time>
</trkpt>
<trkpt lat="61.114265" lon="26.028706">
<time>2020-09-12T12:20:05Z</time>
</trkpt>
<trkpt lat="61.114335" lon="26.02879">
<time>2020-09-12T12:20:06Z</time>
</trkpt>
<trkpt lat="61.11442" lon="26.028886">
<time>2020-09-12T12:20:07Z</time>
</trkpt>
<trkpt lat="61.114491" lon="26.028963">
<time>2020-09-12T12:20:08Z</time>
</trkpt>
<trkpt lat="61.114551" lon="26.029025">
<time>2020-09-12T12:20:09Z</time>
</trkpt>
<trkpt lat="61.114625" lon="26.029105">
<time>2020-09-12T12:20:10Z</time>
</trkpt>
<trkpt lat="61.114693" lon="26.029193">
<time>2020-09-12T12:20:11Z</time>
</trkpt>
<trkpt lat="61.114778" lon="26.029288">
<time>2020-09-12T12:20:12Z</time>
</trkpt>
<trkpt lat="61.114846" lon="26.02936">
<time>2020-09-12T12:20:13Z</time>
</trkpt>
<trkpt lat="61.114901" lon="26.029418">
<time>2020-09-12T12:20:14Z</time>
</trkpt>
<trkpt lat="61.114971" lon="26.029493">
<time>2020-09-12T12:20:15Z</time>
</trkpt>
<trkpt lat="61.115038" lon="26.029576">
<time>2020-09-12T12:20:16Z</time>
</trkpt>
<trkpt lat="61.115115" lon="26.02969">
<time>2020-09-12T12:20:17Z</time>
</trkpt>
<trkpt lat="61.115173" lon="26.029793">
<time>2020-09-12T12:20:18Z</time>
</trkpt>
<trkpt lat="61.115216" lon="26.02988">
<time>2020-09-12T12:20:19Z</time>
</trkpt>
<trkpt lat="61.115271" lon="26.029988">
<time>2020-09-12T12:20:20Z</time>
</trkpt>
<trkpt lat="61.115323" lon="26.030098">
<time>2020-09-12T12:20:21Z</time>
</trkpt>
<trkpt lat="61.115375" lon="26.030208">
<time>2020-09-12T12:20:22Z</time>
</trkpt>
<trkpt lat="61.115435" lon="26.030345">
<time>2020-09-12T12:20:23Z</time>
</trkpt>
<trkpt lat="61.11547" lon="26.03044">
<time>2020-09-12T12:20:24Z</time>
</trkpt>
<trkpt lat="61.115515" lon="26.030558">
<time>2020-09-12T12:20:25Z</time>
</trkpt>
<trkpt lat="61.115556" lon="26.030681">
<time>2020-09-12T12:20:26Z</time>
</trkpt>
<trkpt lat="61.1156" lon="26.0308">
<time>2020-09-12T12:20:27Z</time>
</trkpt>
<trkpt lat="61.115648" lon="26.030938">
<time>2020-09-12T12:20:28Z</time>
</trkpt>
<trkpt lat="61.115678" lon="26.031033">
<time>2020-09-12T12:20:29Z</time>
</trkpt>
<trkpt lat="61.115711" lon="26.031151">
<time>2020-09-12T12:20:30Z</time>
</trkpt>
<trkpt lat="61.115733" lon="26.031263">
<time>2020-09-12T12:20:31Z</time>
</trkpt>
<trkpt lat="61.115736" lon="26.031395">
<time>2020-09-12T12:20:32Z</time>
</trkpt>
<trkpt lat="61.115725" lon="26.031478">
<time>2020-09-12T12:20:33Z</time>
</trkpt>
<trkpt lat="61.115708" lon="26.031536">
<time>2020-09-12T12:20:34Z</time>
</trkpt>
<trkpt lat="61.115685" lon="26.031598">
<time>2020-09-12T12:20:35Z</time>
</trkpt>
<trkpt lat="61.115658" lon="26.031651">
<time>2020-09-12T12:20:36Z</time>
</trkpt>
<trkpt lat="61.11563" lon="26.031693">
<time>2020-09-12T12:20:37Z</time>
</trkpt>
<trkpt lat="61.1156" lon="26.031743">
<time>2020-09-12T12:20:38Z</time>
</trkpt>
<trkpt lat="61.115558" lon="26.031796">
<time>2020-09-12T12:20:39Z</time>
</trkpt>
<trkpt lat="61.115538" lon="26.031846">
<time>2020-09-12T12:20:40Z</time>
</trkpt>
<trkpt lat="61.11552" lon="26.031905">
<time>2020-09-12T12:20:41Z</time>
</trkpt>
<trkpt lat="61.115508" lon="26.031973">
<time>2020-09-12T12:20:42Z</time>
</trkpt>
<trkpt lat="61.115513" lon="26.032031">
<time>2020-09-12T12:20:43Z</time>
</trkpt>
<trkpt lat="61.115533" lon="26.032081">
<time>2020-09-12T12:20:44Z</time>
</trkpt>
<trkpt lat="61.115548" lon="26.032126">
<time>2020-09-12T12:20:45Z</time>
</trkpt>
<trkpt lat="61.115566" lon="26.032166">
<time>2020-09-12T12:20:46Z</time>
</trkpt>
<trkpt lat="61.115578" lon="26.032215">
<time>2020-09-12T12:20:47Z</time>
</trkpt>
<trkpt lat="61.115575" lon="26.032286">
<time>2020-09-12T12:20:48Z</time>
</trkpt>
<trkpt lat="61.115566" lon="26.03234">
<time>2020-09-12T12:20:49Z</time>
</trkpt>
<trkpt lat="61.11556" lon="26.032403">
<time>2020-09-12T12:20:50Z</time>
</trkpt>
<trkpt lat="61.115548" lon="26.03247">
<time>2020-09-12T12:20:51Z</time>
</trkpt>
<trkpt lat="61.115533" lon="26.032555">
<time>2020-09-12T12:20:52Z</time>
</trkpt>
<trkpt lat="61.11552" lon="26.032628">
<time>2020-09-12T12:20:53Z</time>
</trkpt>
<trkpt lat="61.115515" lon="26.032686">
<time>2020-09-12T12:20:54Z</time>
</trkpt>
<trkpt lat="61.115508" lon="26.032751">
<time>2020-09-12T12:20:55Z</time>
</trkpt>
<trkpt lat="61.115511" lon="26.032808">
<time>2020-09-12T12:20:56Z</time>
</trkpt>
<trkpt lat="61.115526" lon="26.03286">
<time>2020-09-12T12:20:57Z</time>
</trkpt>
<trkpt lat="61.115541" lon="26.03289">
<time>2020-09-12T12:20:58Z</time>
</trkpt>
<trkpt lat="61.115555" lon="26.032911">
<time>2020-09-12T12:20:59Z</time>
</trkpt>
<trkpt lat="61.11557" lon="26.032931">
<time>2020-09-12T12:21:00Z</time>
</trkpt>
<trkpt lat="61.115583" lon="26.03295">
<time>2020-09-12T12:21:01Z</time>
</trkpt>
<trkpt lat="61.115603" lon="26.032968">
<time>2020-09-12T12:21:02Z</time>
</trkpt>
<trkpt lat="61.115628" lon="26.032986">
<time>2020-09-12T12:21:03Z</time>
</trkpt>
<trkpt lat="61.115655" lon="26.033003">
<time>2020-09-12T12:21:04Z</time>
</trkpt>
<trkpt lat="61.115678" lon="26.033023">
<time>2020-09-12T12:21:05Z</time>
</trkpt>
<trkpt lat="61.11571" lon="26.03305">
<time>2020-09-12T12:21:06Z</time>
</trkpt>
<trkpt lat="61.11574" lon="26.033071">
<time>2020-09-12T12:21:07Z</time>
</trkpt>
<trkpt lat="61.115775" lon="26.033105">
<time>2020-09-12T12:21:08Z</time>
</trkpt>
<trkpt lat="61.115796" lon="26.03315">
<time>2020-09-12T12:21:09Z</time>
</trkpt>
<trkpt lat="61.115813" lon="26.033196">
<time>2020-09-12T12:21:10Z</time>
</trkpt>
<trkpt lat="61.115828" lon="26.033235">
<time>2020-09-12T12:21:11Z</time>
</trkpt>
<trkpt lat="61.115843" lon="26.03328">
<time>2020-09-12T12:21:12Z</time>
</trkpt>
<trkpt lat="61.115846" lon="26.03332">
<time>2020-09-12T12:21:13Z</time>
</trkpt>
<trkpt lat="61.115841" lon="26.033356">
<time>2020-09-12T12:21:14Z</time>
</trkpt>
<trkpt lat="61.115828" lon="26.033388">
<time>2020-09-12T12:21:15Z</time>
</trkpt>
<trkpt lat="61.115811" lon="26.033425">
<time>2020-09-12T12:21:16Z</time>
</trkpt>
<trkpt lat="61.115791" lon="26.033458">
<time>2020-09-12T12:21:17Z</time>
</trkpt>
<trkpt lat="61.115775" lon="26.033498">
<time>2020-09-12T12:21:18Z</time>
</trkpt>
<trkpt lat="61.115758" lon="26.033536">
<time>2020-09-12T12:21:19Z</time>
</trkpt>
<trkpt lat="61.11574" lon="26.033576">
<time>2020-09-12T12:21:20Z</time>
</trkpt>
<trkpt lat="61.115716" lon="26.033623">
<time>2020-09-12T12:21:21Z</time>
</trkpt>
<trkpt lat="61.115693" lon="26.033673">
<time>2020-09-12T12:21:22Z</time>
</trkpt>
<trkpt lat="61.115665" lon="26.033728">
<time>2020-09-12T12:21:23Z</time>
</trkpt>
<trkpt lat="61.115633" lon="26.033778">
<time>2020-09-12T12:21:24Z</time>
</trkpt>
<trkpt lat="61.1156" lon="26.033826">
<time>2020-09-12T12:21:25Z</time>
</trkpt>
<trkpt lat="61.115565" lon="26.033878">
<time>2020-09-12T12:21:26Z</time>
</trkpt>
<trkpt lat="61.115528" lon="26.033925">
<time>2020-09-12T12:21:27Z</time>
</trkpt>
<trkpt lat="61.115496" lon="26.033966">
<time>2020-09-12T12:21:28Z</time>
</trkpt>
<trkpt lat="61.115468" lon="26.033995">
<time>2020-09-12T12:21:29Z</time>
</trkpt>
<trkpt lat="61.115451" lon="26.034011">
<time>2020-09-12T12:21:30Z</time>
</trkpt>
<trkpt lat="61.115438" lon="26.034026">
<time>2020-09-12T12:21:31Z</time>
</trkpt>
<trkpt lat="61.115433" lon="26.03403">
<time>2020-09-12T12:21:32Z</time>
</trkpt>
<trkpt lat="61.115435" lon="26.034021">
<time>2020-09-12T12:21:33Z</time>
</trkpt>
<trkpt lat="61.115445" lon="26.034005">
<time>2020-09-12T12:21:34Z</time>
</trkpt>
<trkpt lat="61.11546" lon="26.033983">
<time>2020-09-12T12:21:35Z</time>
</trkpt>
<trkpt lat="61.11548" lon="26.033958">
<time>2020-09-12T12:21:36Z</time>
</trkpt>
<trkpt lat="61.115506" lon="26.033928">
<time>2020-09-12T12:21:37Z</time>
</trkpt>
<trkpt lat="61.115536" lon="26.033891">
<time>2020-09-12T12:21:38Z</time>
</trkpt>
<trkpt lat="61.115571" lon="26.033845">
<time>2020-09-12T12:21:39Z</time>
</trkpt>
<trkpt lat="61.115608" lon="26.033795">
<time>2020-09-12T12:21:40Z</time>
</trkpt>
<trkpt lat="61.115645" lon="26.033731">
<time>2020-09-12T12:21:41Z</time>
</trkpt>
<trkpt lat="61.115683" lon="26.033658">
<time>2020-09-12T12:21:42Z</time>
</trkpt>
<trkpt lat="61.115723" lon="26.033576">
<time>2020-09-12T12:21:43Z</time>
</trkpt>
<trkpt lat="61.115763" lon="26.033496">
<time>2020-09-12T12:21:44Z</time>
</trkpt>
<trkpt lat="61.115806" lon="26.033425">
<time>2020-09-12T12:21:45Z</time>
</trkpt>
<trkpt lat="61.115851" lon="26.033358">
<time>2020-09-12T12:21:46Z</time>
</trkpt>
<trkpt lat="61.1159" lon="26.033296">
<time>2020-09-12T12:21:47Z</time>
</trkpt>
<trkpt lat="61.115948" lon="26.033231">
<time>2020-09-12T12:21:48Z</time>
</trkpt>
<trkpt lat="61.115995" lon="26.033161">
<time>2020-09-12T12:21:49Z</time>
</trkpt>
<trkpt lat="61.116038" lon="26.033083">
<time>2020-09-12T12:21:50Z</time>
</trkpt>
<trkpt lat="61.116081" lon="26.033">
<time>2020-09-12T12:21:51Z</time>
</trkpt>
<trkpt lat="61.116128" lon="26.032933">
<time>2020-09-12T12:21:52Z</time>
</trkpt>
<trkpt lat="61.116181" lon="26.032895">
<time>2020-09-12T12:21:53Z</time>
</trkpt>
<trkpt lat="61.116235" lon="26.03289">
<time>2020-09-12T12:21:54Z</time>
</trkpt>
<trkpt lat="61.116286" lon="26.032906">
<time>2020-09-12T12:21:55Z</time>
</trkpt>
<trkpt lat="61.116338" lon="26.032953">
<time>2020-09-12T12:21:56Z</time>
</trkpt>
<trkpt lat="61.116383" lon="26.03302">
<time>2020-09-12T12:21:57Z</time>
</trkpt>
<trkpt lat="61.116433" lon="26.033091">
<time>2020-09-12T12:21:58Z</time>
</trkpt>
<trkpt lat="61.116483" lon="26.033163">
<time>2020-09-12T12:21:59Z</time>
</trkpt>
<trkpt lat="61.116533" lon="26.033241">
<time>2020-09-12T12:22:00Z</time>
</trkpt>
<trkpt lat="61.116573" lon="26.033318">
<time>2020-09-12T12:22:01Z</time>
</trkpt>
<trkpt lat="61.116613" lon="26.033428">
<time>2020-09-12T12:22:02Z</time>
</trkpt>
<trkpt lat="61.116648" lon="26.033546">
<time>2020-09-12T12:22:03Z</time>
</trkpt>
<trkpt lat="61.116685" lon="26.033675">
<time>2020-09-12T12:22:04Z</time>
</trkpt>
<trkpt lat="61.116715" lon="26.03381">
<time>2020-09-12T12:22:05Z</time>
</trkpt>
<trkpt lat="61.116745" lon="26.033946">
<time>2020-09-12T12:22:06Z</time>
</trkpt>
<trkpt lat="61.11677" lon="26.034091">
<time>2020-09-12T12:22:07Z</time>
</trkpt>
<trkpt lat="61.116795" lon="26.034243">
<time>2020-09-12T12:22:08Z</time>
</trkpt>
<trkpt lat="61.116816" lon="26.034401">
<time>2020-09-12T12:22:09Z</time>
</trkpt>
<trkpt lat="61.116831" lon="26.034566">
<time>2020-09-12T12:22:10Z</time>
</trkpt>
<trkpt lat="61.116848" lon="26.034733">
<time>2020-09-12T12:22:11Z</time>
</trkpt>
<trkpt lat="61.116863" lon="26.034896">
<time>2020-09-12T12:22:12Z</time>
</trkpt>
<trkpt lat="61.116875" lon="26.035061">
<time>2020-09-12T12:22:13Z</time>
</trkpt>
<trkpt lat="61.116881" lon="26.035218">
<time>2020-09-12T12:22:14Z</time>
</trkpt>
<trkpt lat="61.116886" lon="26.035383">
<time>2020-09-12T12:22:15Z</time>
</trkpt>
<trkpt lat="61.1169" lon="26.03554">
<time>2020-09-12T12:22:16Z</time>
</trkpt>
<trkpt lat="61.116931" lon="26.035681">
<time>2020-09-12T12:22:17Z</time>
</trkpt>
<trkpt lat="61.116973" lon="26.035805">
<time>2020-09-12T12:22:18Z</time>
</trkpt>
<trkpt lat="61.117026" lon="26.035898">
<time>2020-09-12T12:22:19Z</time>
</trkpt>
<trkpt lat="61.117093" lon="26.035956">
<time>2020-09-12T12:22:20Z</time>
</trkpt>
<trkpt lat="61.117166" lon="26.035985">
<time>2020-09-12T12:22:21Z</time>
</trkpt>
<trkpt lat="61.117243" lon="26.035986">
<time>2020-09-12T12:22:22Z</time>
</trkpt>
<trkpt lat="61.11732" lon="26.035936">
<time>2020-09-12T12:22:23Z</time>
</trkpt>
<trkpt lat="61.117386" lon="26.035855">
<time>2020-09-12T12:22:24Z</time>
</trkpt>
<trkpt lat="61.117443" lon="26.035748">
<time>2020-09-12T12:22:25Z</time>
</trkpt>
<trkpt lat="61.117486" lon="26.035626">
<time>2020-09-12T12:22:26Z</time>
</trkpt>
<trkpt lat="61.117525" lon="26.035495">
<time>2020-09-12T12:22:27Z</time>
</trkpt>
<trkpt lat="61.11757" lon="26.035361">
<time>2020-09-12T12:22:28Z</time>
</trkpt>
<trkpt lat="61.117616" lon="26.035233">
<time>2020-09-12T12:22:29Z</time>
</trkpt>
<trkpt lat="61.117668" lon="26.035111">
<time>2020-09-12T12:22:30Z</time>
</trkpt>
<trkpt lat="61.117725" lon="26.034998">
<time>2020-09-12T12:22:31Z</time>
</trkpt>
<trkpt lat="61.117786" lon="26.034891">
<time>2020-09-12T12:22:32Z</time>
</trkpt>
<trkpt lat="61.117846" lon="26.034791">
<time>2020-09-12T12:22:33Z</time>
</trkpt>
<trkpt lat="61.117908" lon="26.034695">
<time>2020-09-12T12:22:34Z</time>
</trkpt>
<trkpt lat="61.117971" lon="26.0346">
<time>2020-09-12T12:22:35Z</time>
</trkpt>
<trkpt lat="61.11804" lon="26.034521">
<time>2020-09-12T12:22:36Z</time>
</trkpt>
<trkpt lat="61.118105" lon="26.034441">
<time>2020-09-12T12:22:37Z</time>
</trkpt>
<trkpt lat="61.118163" lon="26.034353">
<time>2020-09-12T12:22:38Z</time>
</trkpt>
<trkpt lat="61.11822" lon="26.034255">
<time>2020-09-12T12:22:39Z</time>
</trkpt>
<trkpt lat="61.118276" lon="26.034151">
<time>2020-09-12T12:22:40Z</time>
</trkpt>
<trkpt lat="61.118335" lon="26.034045">
<time>2020-09-12T12:22:41Z</time>
</trkpt>
<trkpt lat="61.118395" lon="26.033933">
<time>2020-09-12T12:22:42Z</time>
</trkpt>
<trkpt lat="61.118456" lon="26.033818">
<time>2020-09-12T12:22:43Z</time>
</trkpt>
<trkpt lat="61.118525" lon="26.033711">
<time>2020-09-12T12:22:44Z</time>
</trkpt>
<trkpt lat="61.118596" lon="26.03361">
<time>2020-09-12T12:22:45Z</time>
</trkpt>
<trkpt lat="61.11867" lon="26.03351">
<time>2020-09-12T12:22:46Z</time>
</trkpt>
<trkpt lat="61.11874" lon="26.033406">
<time>2020-09-12T12:22:47Z</time>
</trkpt>
<trkpt lat="61.1188" lon="26.033286">
<time>2020-09-12T12:22:48Z</time>
</trkpt>
<trkpt lat="61.118841" lon="26.033145">
<time>2020-09-12T12:22:49Z</time>
</trkpt>
<trkpt lat="61.118868" lon="26.032998">
<time>2020-09-12T12:22:50Z</time>
</trkpt>
<trkpt lat="61.118885" lon="26.032858">
<time>2020-09-12T12:22:51Z</time>
</trkpt>
<trkpt lat="61.118898" lon="26.032723">
<time>2020-09-12T12:22:52Z</time>
</trkpt>
<trkpt lat="61.118911" lon="26.032596">
<time>2020-09-12T12:22:53Z</time>
</trkpt>
<trkpt lat="61.118925" lon="26.032465">
<time>2020-09-12T12:22:54Z</time>
</trkpt>
<trkpt lat="61.118941" lon="26.032341">
<time>2020-09-12T12:22:55Z</time>
</trkpt>
<trkpt lat="61.118953" lon="26.032228">
<time>2020-09-12T12:22:56Z</time>
</trkpt>
<trkpt lat="61.118961" lon="26.032121">
<time>2020-09-12T12:22:57Z</time>
</trkpt>
<trkpt lat="61.118968" lon="26.032021">
<time>2020-09-12T12:22:58Z</time>
</trkpt>
<trkpt lat="61.118968" lon="26.031926">
<time>2020-09-12T12:22:59Z</time>
</trkpt>
<trkpt lat="61.118968" lon="26.031841">
<time>2020-09-12T12:23:00Z</time>
</trkpt>
<trkpt lat="61.118963" lon="26.031761">
<time>2020-09-12T12:23:01Z</time>
</trkpt>
<trkpt lat="61.118958" lon="26.031683">
<time>2020-09-12T12:23:02Z</time>
</trkpt>
<trkpt lat="61.118951" lon="26.031606">
<time>2020-09-12T12:23:03Z</time>
</trkpt>
<trkpt lat="61.118948" lon="26.03153">
<time>2020-09-12T12:23:04Z</time>
</trkpt>
<trkpt lat="61.118946" lon="26.03145">
<time>2020-09-12T12:23:05Z</time>
</trkpt>
<trkpt lat="61.118945" lon="26.03136">
<time>2020-09-12T12:23:06Z</time>
</trkpt>
<trkpt lat="61.118946" lon="26.031266">
<time>2020-09-12T12:23:07Z</time>
</trkpt>
<trkpt lat="61.118945" lon="26.031171">
<time>2020-09-12T12:23:08Z</time>
</trkpt>
<trkpt lat="61.118943" lon="26.03108">
<time>2020-09-12T12:23:09Z</time>
</trkpt>
<trkpt lat="61.118943" lon="26.030993">
<time>2020-09-12T12:23:10Z</time>
</trkpt>
<trkpt lat="61.118941" lon="26.030906">
<time>2020-09-12T12:23:11Z</time>
</trkpt>
<trkpt lat="61.11894" lon="26.030823">
<time>2020-09-12T12:23:12Z</time>
</trkpt>
<trkpt lat="61.118936" lon="26.030738">
<time>2020-09-12T12:23:13Z</time>
</trkpt>
<trkpt lat="61.118928" lon="26.03065">
<time>2020-09-12T12:23:14Z</time>
</trkpt>
<trkpt lat="61.118918" lon="26.030558">
<time>2020-09-12T12:23:15Z</time>
</trkpt>
<trkpt lat="61.118901" lon="26.03046">
<time>2020-09-12T12:23:16Z</time>
</trkpt>
<trkpt lat="61.118878" lon="26.030355">
<time>2020-09-12T12:23:17Z</time>
</trkpt>
<trkpt lat="61.118853" lon="26.030248">
<time>2020-09-12T12:23:18Z</time>
</trkpt>
<trkpt lat="61.118825" lon="26.030143">
<time>2020-09-12T12:23:19Z</time>
</trkpt>
<trkpt lat="61.118793" lon="26.030038">
<time>2020-09-12T12:23:20Z</time>
</trkpt>
<trkpt lat="61.11876" lon="26.02992">
<time>2020-09-12T12:23:21Z</time>
</trkpt>
<trkpt lat="61.118731" lon="26.029788">
<time>2020-09-12T12:23:22Z</time>
</trkpt>
<trkpt lat="61.118701" lon="26.029648">
<time>2020-09-12T12:23:23Z</time>
</trkpt>
<trkpt lat="61.118668" lon="26.029501">
<time>2020-09-12T12:23:24Z</time>
</trkpt>
<trkpt lat="61.118638" lon="26.029356">
<time>2020-09-12T12:23:25Z</time>
</trkpt>
<trkpt lat="61.118616" lon="26.029245">
<time>2020-09-12T12:23:26Z</time>
</trkpt>
<trkpt lat="61.118596" lon="26.02911">
<time>2020-09-12T12:23:27Z</time>
</trkpt>
<trkpt lat="61.11859" lon="26.028986">
<time>2020-09-12T12:23:28Z</time>
</trkpt>
<trkpt lat="61.118603" lon="26.028883">
<time>2020-09-12T12:23:29Z</time>
</trkpt>
<trkpt lat="61.118636" lon="26.028805">
<time>2020-09-12T12:23:30Z</time>
</trkpt>
<trkpt lat="61.118681" lon="26.028741">
<time>2020-09-12T12:23:31Z</time>
</trkpt>
<trkpt lat="61.118748" lon="26.028681">
<time>2020-09-12T12:23:32Z</time>
</trkpt>
<trkpt lat="61.118803" lon="26.028613">
<time>2020-09-12T12:23:33Z</time>
</trkpt>
<trkpt lat="61.118865" lon="26.028518">
<time>2020-09-12T12:23:34Z</time>
</trkpt>
<trkpt lat="61.118928" lon="26.028396">
<time>2020-09-12T12:23:35Z</time>
</trkpt>
<trkpt lat="61.118988" lon="26.028261">
<time>2020-09-12T12:23:36Z</time>
</trkpt>
<trkpt lat="61.119045" lon="26.028115">
<time>2020-09-12T12:23:37Z</time>
</trkpt>
<trkpt lat="61.1191" lon="26.027956">
<time>2020-09-12T12:23:38Z</time>
</trkpt>
<trkpt lat="61.119145" lon="26.027798">
<time>2020-09-12T12:23:39Z</time>
</trkpt>
<trkpt lat="61.119198" lon="26.02764">
<time>2020-09-12T12:23:40Z</time>
</trkpt>
<trkpt lat="61.119246" lon="26.027486">
<time>2020-09-12T12:23:41Z</time>
</trkpt>
<trkpt lat="61.119303" lon="26.027345">
<time>2020-09-12T12:23:42Z</time>
</trkpt>
<trkpt lat="61.119353" lon="26.027216">
<time>2020-09-12T12:23:43Z</time>
</trkpt>
<trkpt lat="61.119401" lon="26.027095">
<time>2020-09-12T12:23:44Z</time>
</trkpt>
<trkpt lat="61.11945" lon="26.02698">
<time>2020-09-12T12:23:45Z</time>
</trkpt>
<trkpt lat="61.119496" lon="26.026863">
<time>2020-09-12T12:23:46Z</time>
</trkpt>
<trkpt lat="61.11954" lon="26.026735">
<time>2020-09-12T12:23:47Z</time>
</trkpt>
<trkpt lat="61.119578" lon="26.026603">
<time>2020-09-12T12:23:48Z</time>
</trkpt>
<trkpt lat="61.119613" lon="26.026466">
<time>2020-09-12T12:23:49Z</time>
</trkpt>
<trkpt lat="61.119648" lon="26.02632">
<time>2020-09-12T12:23:50Z</time>
</trkpt>
<trkpt lat="61.119681" lon="26.02617">
<time>2020-09-12T12:23:51Z</time>
</trkpt>
<trkpt lat="61.119716" lon="26.02602">
<time>2020-09-12T12:23:52Z</time>
</trkpt>
<trkpt lat="61.119751" lon="26.025885">
<time>2020-09-12T12:23:53Z</time>
</trkpt>
<trkpt lat="61.119786" lon="26.025788">
<time>2020-09-12T12:23:54Z</time>
</trkpt>
<trkpt lat="61.11982" lon="26.025735">
<time>2020-09-12T12:23:55Z</time>
</trkpt>
<trkpt lat="61.11986" lon="26.025733">
<time>2020-09-12T12:23:56Z</time>
</trkpt>
<trkpt lat="61.1199" lon="26.025771">
<time>2020-09-12T12:23:57Z</time>
</trkpt>
<trkpt lat="61.119938" lon="26.025816">
<time>2020-09-12T12:23:58Z</time>
</trkpt>
<trkpt lat="61.11997" lon="26.025853">
<time>2020-09-12T12:23:59Z</time>
</trkpt>
<trkpt lat="61.119995" lon="26.025853">
<time>2020-09-12T12:24:00Z</time>
</trkpt>
<trkpt lat="61.120006" lon="26.025828">
<time>2020-09-12T12:24:01Z</time>
</trkpt>
<trkpt lat="61.120013" lon="26.02577">
<time>2020-09-12T12:24:02Z</time>
</trkpt>
<trkpt lat="61.120015" lon="26.025685">
<time>2020-09-12T12:24:03Z</time>
</trkpt>
<trkpt lat="61.120008" lon="26.025581">
<time>2020-09-12T12:24:04Z</time>
</trkpt>
<trkpt lat="61.119998" lon="26.025463">
<time>2020-09-12T12:24:05Z</time>
</trkpt>
<trkpt lat="61.119991" lon="26.025333">
<time>2020-09-12T12:24:06Z</time>
</trkpt>
<trkpt lat="61.119986" lon="26.025185">
<time>2020-09-12T12:24:07Z</time>
</trkpt>
<trkpt lat="61.119983" lon="26.02501">
<time>2020-09-12T12:24:08Z</time>
</trkpt>
<trkpt lat="61.119975" lon="26.02482">
<time>2020-09-12T12:24:09Z</time>
</trkpt>
<trkpt lat="61.119966" lon="26.024623">
<time>2020-09-12T12:24:10Z</time>
</trkpt>
<trkpt lat="61.119955" lon="26.024425">
<time>2020-09-12T12:24:11Z</time>
</trkpt>
<trkpt lat="61.119951" lon="26.024225">
<time>2020-09-12T12:24:12Z</time>
</trkpt>
<trkpt lat="61.119956" lon="26.024028">
<time>2020-09-12T12:24:13Z</time>
</trkpt>
<trkpt lat="61.11997" lon="26.023835">
<time>2020-09-12T12:24:14Z</time>
</trkpt>
<trkpt lat="61.119971" lon="26.023676">
<time>2020-09-12T12:24:15Z</time>
</trkpt>
<trkpt lat="61.11997" lon="26.023546">
<time>2020-09-12T12:24:16Z</time>
</trkpt>
<trkpt lat="61.119953" lon="26.023433">
<time>2020-09-12T12:24:17Z</time>
</trkpt>
<trkpt lat="61.119918" lon="26.023336">
<time>2020-09-12T12:24:18Z</time>
</trkpt>
<trkpt lat="61.11987" lon="26.023263">
<time>2020-09-12T12:24:19Z</time>
</trkpt>
<trkpt lat="61.119816" lon="26.023201">
<time>2020-09-12T12:24:20Z</time>
</trkpt>
<trkpt lat="61.119753" lon="26.023123">
<time>2020-09-12T12:24:21Z</time>
</trkpt>
<trkpt lat="61.119691" lon="26.023055">
<time>2020-09-12T12:24:22Z</time>
</trkpt>
<trkpt lat="61.119635" lon="26.023001">
<time>2020-09-12T12:24:23Z</time>
</trkpt>
<trkpt lat="61.11958" lon="26.022938">
<time>2020-09-12T12:24:24Z</time>
</trkpt>
<trkpt lat="61.119518" lon="26.022866">
<time>2020-09-12T12:24:25Z</time>
</trkpt>
<trkpt lat="61.119456" lon="26.022795">
<time>2020-09-12T12:24:26Z</time>
</trkpt>
<trkpt lat="61.119396" lon="26.022698">
<time>2020-09-12T12:24:27Z</time>
</trkpt>
<trkpt lat="61.11934" lon="26.022585">
<time>2020-09-12T12:24:28Z</time>
</trkpt>
<trkpt lat="61.119301" lon="26.022476">
<time>2020-09-12T12:24:29Z</time>
</trkpt>
<trkpt lat="61.119273" lon="26.022355">
<time>2020-09-12T12:24:30Z</time>
</trkpt>
<trkpt lat="61.119265" lon="26.022246">
<time>2020-09-12T12:24:31Z</time>
</trkpt>
<trkpt lat="61.119291" lon="26.022148">
<time>2020-09-12T12:24:32Z</time>
</trkpt>
<trkpt lat="61.119338" lon="26.02207">
<time>2020-09-12T12:24:33Z</time>
</trkpt>
<trkpt lat="61.119423" lon="26.022006">
<time>2020-09-12T12:24:34Z</time>
</trkpt>
<trkpt lat="61.1195" lon="26.021988">
<time>2020-09-12T12:24:35Z</time>
</trkpt>
<trkpt lat="61.11959" lon="26.021985">
<time>2020-09-12T12:24:36Z</time>
</trkpt>
<trkpt lat="61.119681" lon="26.022">
<time>2020-09-12T12:24:37Z</time>
</trkpt>
<trkpt lat="61.119781" lon="26.022016">
<time>2020-09-12T12:24:38Z</time>
</trkpt>
<trkpt lat="61.119868" lon="26.022033">
<time>2020-09-12T12:24:39Z</time>
</trkpt>
<trkpt lat="61.119956" lon="26.022051">
<time>2020-09-12T12:24:40Z</time>
</trkpt>
<trkpt lat="61.120026" lon="26.022056">
<time>2020-09-12T12:24:41Z</time>
</trkpt>
<trkpt lat="61.120113" lon="26.022041">
<time>2020-09-12T12:24:42Z</time>
</trkpt>
<trkpt lat="61.120213" lon="26.022008">
<time>2020-09-12T12:24:43Z</time>
</trkpt>
<trkpt lat="61.120288" lon="26.02195">
<time>2020-09-12T12:24:44Z</time>
</trkpt>
<trkpt lat="61.12036" lon="26.021881">
<time>2020-09-12T12:24:45Z</time>
</trkpt>
<trkpt lat="61.120425" lon="26.021811">
<time>2020-09-12T12:24:46Z</time>
</trkpt>
<trkpt lat="61.120488" lon="26.02173">
<time>2020-09-12T12:24:47Z</time>
</trkpt>
<trkpt lat="61.120548" lon="26.021616">
<time>2020-09-12T12:24:48Z</time>
</trkpt>
<trkpt lat="61.120591" lon="26.021486">
<time>2020-09-12T12:24:49Z</time>
</trkpt>
<trkpt lat="61.120611" lon="26.021386">
<time>2020-09-12T12:24:50Z</time>
</trkpt>
<trkpt lat="61.120616" lon="26.021233">
<time>2020-09-12T12:24:51Z</time>
</trkpt>
<trkpt lat="61.120621" lon="26.021091">
<time>2020-09-12T12:24:52Z</time>
</trkpt>
<trkpt lat="61.120635" lon="26.020988">
<time>2020-09-12T12:24:53Z</time>
</trkpt>
<trkpt lat="61.120646" lon="26.02089">
<time>2020-09-12T12:24:54Z</time>
</trkpt>
<trkpt lat="61.120651" lon="26.020783">
<time>2020-09-12T12:24:55Z</time>
</trkpt>
<trkpt lat="61.120653" lon="26.020686">
<time>2020-09-12T12:24:56Z</time>
</trkpt>
<trkpt lat="61.120656" lon="26.020583">
<time>2020-09-12T12:24:57Z</time>
</trkpt>
<trkpt lat="61.120655" lon="26.020486">
<time>2020-09-12T12:24:58Z</time>
</trkpt>
<trkpt lat="61.120646" lon="26.020411">
<time>2020-09-12T12:24:59Z</time>
</trkpt>
<trkpt lat="61.120636" lon="26.020333">
<time>2020-09-12T12:25:00Z</time>
</trkpt>
<trkpt lat="61.12062" lon="26.020258">
<time>2020-09-12T12:25:01Z</time>
</trkpt>
<trkpt lat="61.120598" lon="26.020185">
<time>2020-09-12T12:25:02Z</time>
</trkpt>
<trkpt lat="61.120568" lon="26.020121">
<time>2020-09-12T12:25:03Z</time>
</trkpt>
<trkpt lat="61.120535" lon="26.020066">
<time>2020-09-12T12:25:04Z</time>
</trkpt>
<trkpt lat="61.120503" lon="26.020021">
<time>2020-09-12T12:25:05Z</time>
</trkpt>
<trkpt lat="61.120471" lon="26.01995">
<time>2020-09-12T12:25:06Z</time>
</trkpt>
<trkpt lat="61.120451" lon="26.019873">
<time>2020-09-12T12:25:07Z</time>
</trkpt>
<trkpt lat="61.120446" lon="26.019793">
<time>2020-09-12T12:25:08Z</time>
</trkpt>
<trkpt lat="61.120445" lon="26.01971">
<time>2020-09-12T12:25:09Z</time>
</trkpt>
<trkpt lat="61.120446" lon="26.019618">
<time>2020-09-12T12:25:10Z</time>
</trkpt>
<trkpt lat="61.120451" lon="26.019536">
<time>2020-09-12T12:25:11Z</time>
</trkpt>
<trkpt lat="61.120465" lon="26.019458">
<time>2020-09-12T12:25:12Z</time>
</trkpt>
<trkpt lat="61.120476" lon="26.019381">
<time>2020-09-12T12:25:13Z</time>
</trkpt>
<trkpt lat="61.1205" lon="26.01931">
<time>2020-09-12T12:25:14Z</time>
</trkpt>
<trkpt lat="61.120523" lon="26.019245">
<time>2020-09-12T12:25:15Z</time>
</trkpt>
<trkpt lat="61.12055" lon="26.019186">
<time>2020-09-12T12:25:16Z</time>
</trkpt>
<trkpt lat="61.120576" lon="26.019135">
<time>2020-09-12T12:25:17Z</time>
</trkpt>
<trkpt lat="61.120606" lon="26.019081">
<time>2020-09-12T12:25:18Z</time>
</trkpt>
<trkpt lat="61.120641" lon="26.019025">
<time>2020-09-12T12:25:19Z</time>
</trkpt>
<trkpt lat="61.120675" lon="26.01897">
<time>2020-09-12T12:25:20Z</time>
</trkpt>
<trkpt lat="61.120705" lon="26.018911">
<time>2020-09-12T12:25:21Z</time>
</trkpt>
<trkpt lat="61.12074" lon="26.018863">
<time>2020-09-12T12:25:22Z</time>
</trkpt>
<trkpt lat="61.12077" lon="26.018811">
<time>2020-09-12T12:25:23Z</time>
</trkpt>
<trkpt lat="61.120803" lon="26.018758">
<time>2020-09-12T12:25:24Z</time>
</trkpt>
<trkpt lat="61.120833" lon="26.018703">
<time>2020-09-12T12:25:25Z</time>
</trkpt>
<trkpt lat="61.120863" lon="26.01865">
<time>2020-09-12T12:25:26Z</time>
</trkpt>
<trkpt lat="61.120896" lon="26.018605">
<time>2020-09-12T12:25:27Z</time>
</trkpt>
<trkpt lat="61.120928" lon="26.01857">
<time>2020-09-12T12:25:28Z</time>
</trkpt>
<trkpt lat="61.120963" lon="26.018545">
<time>2020-09-12T12:25:29Z</time>
</trkpt>
<trkpt lat="61.121001" lon="26.01853">
<time>2020-09-12T12:25:30Z</time>
</trkpt>
<trkpt lat="61.121038" lon="26.018521">
<time>2020-09-12T12:25:31Z</time>
</trkpt>
<trkpt lat="61.12108" lon="26.01851">
<time>2020-09-12T12:25:32Z</time>
</trkpt>
<trkpt lat="61.121118" lon="26.018498">
<time>2020-09-12T12:25:33Z</time>
</trkpt>
<trkpt lat="61.121158" lon="26.018488">
<time>2020-09-12T12:25:34Z</time>
</trkpt>
<trkpt lat="61.121196" lon="26.018473">
<time>2020-09-12T12:25:35Z</time>
</trkpt>
<trkpt lat="61.121233" lon="26.01845">
<time>2020-09-12T12:25:36Z</time>
</trkpt>
<trkpt lat="61.121273" lon="26.018413">
<time>2020-09-12T12:25:37Z</time>
</trkpt>
<trkpt lat="61.12132" lon="26.018361">
<time>2020-09-12T12:25:38Z</time>
</trkpt>
<trkpt lat="61.121355" lon="26.018318">
<time>2020-09-12T12:25:39Z</time>
</trkpt>
<trkpt lat="61.121396" lon="26.018265">
<time>2020-09-12T12:25:40Z</time>
</trkpt>
<trkpt lat="61.121436" lon="26.018198">
<time>2020-09-12T12:25:41Z</time>
</trkpt>
<trkpt lat="61.121476" lon="26.018131">
<time>2020-09-12T12:25:42Z</time>
</trkpt>
<trkpt lat="61.121513" lon="26.018058">
<time>2020-09-12T12:25:43Z</time>
</trkpt>
<trkpt lat="61.121551" lon="26.017976">
<time>2020-09-12T12:25:44Z</time>
</trkpt>
<trkpt lat="61.12158" lon="26.01789">
<time>2020-09-12T12:25:45Z</time>
</trkpt>
<trkpt lat="61.121608" lon="26.017803">
<time>2020-09-12T12:25:46Z</time>
</trkpt>
<trkpt lat="61.121641" lon="26.017718">
<time>2020-09-12T12:25:47Z</time>
</trkpt>
<trkpt lat="61.121673" lon="26.017636">
<time>2020-09-12T12:25:48Z</time>
</trkpt>
<trkpt lat="61.121696" lon="26.017555">
<time>2020-09-12T12:25:49Z</time>
</trkpt>
<trkpt lat="61.121715" lon="26.017476">
<time>2020-09-12T12:25:50Z</time>
</trkpt>
<trkpt lat="61.121726" lon="26.017401">
<time>2020-09-12T12:25:51Z</time>
</trkpt>
<trkpt lat="61.121731" lon="26.01732">
<time>2020-09-12T12:25:52Z</time>
</trkpt>
<trkpt lat="61.121723" lon="26.017241">
<time>2020-09-12T12:25:53Z</time>
</trkpt>
<trkpt lat="61.121711" lon="26.01716">
<time>2020-09-12T12:25:54Z</time>
</trkpt>
<trkpt lat="61.1217" lon="26.017088">
<time>2020-09-12T12:25:55Z</time>
</trkpt>
<trkpt lat="61.121681" lon="26.01702">
<time>2020-09-12T12:25:56Z</time>
</trkpt>
<trkpt lat="61.12166" lon="26.01695">
<time>2020-09-12T12:25:57Z</time>
</trkpt>
<trkpt lat="61.121633" lon="26.016886">
<time>2020-09-12T12:25:58Z</time>
</trkpt>
<trkpt lat="61.121608" lon="26.016826">
<time>2020-09-12T12:25:59Z</time>
</trkpt>
<trkpt lat="61.121585" lon="26.016756">
<time>2020-09-12T12:26:00Z</time>
</trkpt>
<trkpt lat="61.12156" lon="26.01668">
<time>2020-09-12T12:26:01Z</time>
</trkpt>
<trkpt lat="61.121533" lon="26.0166">
<time>2020-09-12T12:26:02Z</time>
</trkpt>
<trkpt lat="61.121491" lon="26.016493">
<time>2020-09-12T12:26:03Z</time>
</trkpt>
<trkpt lat="61.121458" lon="26.016416">
<time>2020-09-12T12:26:04Z</time>
</trkpt>
<trkpt lat="61.121411" lon="26.016321">
<time>2020-09-12T12:26:05Z</time>
</trkpt>
<trkpt lat="61.121366" lon="26.016243">
<time>2020-09-12T12:26:06Z</time>
</trkpt>
<trkpt lat="61.121315" lon="26.016193">
<time>2020-09-12T12:26:07Z</time>
</trkpt>
<trkpt lat="61.121251" lon="26.016186">
<time>2020-09-12T12:26:08Z</time>
</trkpt>
<trkpt lat="61.121218" lon="26.016218">
<time>2020-09-12T12:26:09Z</time>
</trkpt>
<trkpt lat="61.121178" lon="26.016276">
<time>2020-09-12T12:26:10Z</time>
</trkpt>
<trkpt lat="61.121138" lon="26.016346">
<time>2020-09-12T12:26:11Z</time>
</trkpt>
<trkpt lat="61.121105" lon="26.01643">
<time>2020-09-12T12:26:12Z</time>
</trkpt>
<trkpt lat="61.121071" lon="26.016493">
<time>2020-09-12T12:26:13Z</time>
</trkpt>
<trkpt lat="61.121048" lon="26.016551">
<time>2020-09-12T12:26:14Z</time>
</trkpt>
<trkpt lat="61.121036" lon="26.016601">
<time>2020-09-12T12:26:15Z</time>
</trkpt>
<trkpt lat="61.121035" lon="26.01661">
<time>2020-09-12T12:26:16Z</time>
</trkpt>
<trkpt lat="61.12104" lon="26.016588">
<time>2020-09-12T12:26:17Z</time>
</trkpt>
<trkpt lat="61.121053" lon="26.016553">
<time>2020-09-12T12:26:18Z</time>
</trkpt>
<trkpt lat="61.121073" lon="26.016508">
<time>2020-09-12T12:26:19Z</time>
</trkpt>
<trkpt lat="61.1211" lon="26.01645">
<time>2020-09-12T12:26:20Z</time>
</trkpt>
<trkpt lat="61.121136" lon="26.016388">
<time>2020-09-12T12:26:21Z</time>
</trkpt>
<trkpt lat="61.121166" lon="26.016311">
<time>2020-09-12T12:26:22Z</time>
</trkpt>
<trkpt lat="61.121191" lon="26.016223">
<time>2020-09-12T12:26:23Z</time>
</trkpt>
<trkpt lat="61.121206" lon="26.01612">
<time>2020-09-12T12:26:24Z</time>
</trkpt>
<trkpt lat="61.12121" lon="26.016006">
<time>2020-09-12T12:26:25Z</time>
</trkpt>
<trkpt lat="61.121203" lon="26.01589">
<time>2020-09-12T12:26:26Z</time>
</trkpt>
<trkpt lat="61.121186" lon="26.01578">
<time>2020-09-12T12:26:27Z</time>
</trkpt>
<trkpt lat="61.121155" lon="26.015681">
<time>2020-09-12T12:26:28Z</time>
</trkpt>
<trkpt lat="61.121106" lon="26.015605">
<time>2020-09-12T12:26:29Z</time>
</trkpt>
<trkpt lat="61.121058" lon="26.015583">
<time>2020-09-12T12:26:30Z</time>
</trkpt>
<trkpt lat="61.120998" lon="26.015565">
<time>2020-09-12T12:26:31Z</time>
</trkpt>
<trkpt lat="61.120923" lon="26.015551">
<time>2020-09-12T12:26:32Z</time>
</trkpt>
<trkpt lat="61.12087" lon="26.015545">
<time>2020-09-12T12:26:33Z</time>
</trkpt>
<trkpt lat="61.120805" lon="26.015535">
<time>2020-09-12T12:26:34Z</time>
</trkpt>
<trkpt lat="61.120741" lon="26.015525">
<time>2020-09-12T12:26:35Z</time>
</trkpt>
<trkpt lat="61.120676" lon="26.015516">
<time>2020-09-12T12:26:36Z</time>
</trkpt>
<trkpt lat="61.12061" lon="26.015506">
<time>2020-09-12T12:26:37Z</time>
</trkpt>
<trkpt lat="61.120543" lon="26.015501">
<time>2020-09-12T12:26:38Z</time>
</trkpt>
<trkpt lat="61.120463" lon="26.015503">
<time>2020-09-12T12:26:39Z</time>
</trkpt>
<trkpt lat="61.120411" lon="26.015515">
<time>2020-09-12T12:26:40Z</time>
</trkpt>
<trkpt lat="61.120351" lon="26.015523">
<time>2020-09-12T12:26:41Z</time>
</trkpt>
<trkpt lat="61.120288" lon="26.015535">
<time>2020-09-12T12:26:42Z</time>
</trkpt>
<trkpt lat="61.120211" lon="26.015561">
<time>2020-09-12T12:26:43Z</time>
</trkpt>
<trkpt lat="61.120155" lon="26.015586">
<time>2020-09-12T12:26:44Z</time>
</trkpt>
<trkpt lat="61.120081" lon="26.015621">
<time>2020-09-12T12:26:45Z</time>
</trkpt>
<trkpt lat="61.120005" lon="26.015656">
<time>2020-09-12T12:26:46Z</time>
</trkpt>
<trkpt lat="61.11993" lon="26.015686">
<time>2020-09-12T12:26:47Z</time>
</trkpt>
<trkpt lat="61.119855" lon="26.01571">
<time>2020-09-12T12:26:48Z</time>
</trkpt>
<trkpt lat="61.11978" lon="26.015718">
<time>2020-09-12T12:26:49Z</time>
</trkpt>
<trkpt lat="61.119705" lon="26.015696">
<time>2020-09-12T12:26:50Z</time>
</trkpt>
<trkpt lat="61.119633" lon="26.015645">
<time>2020-09-12T12:26:51Z</time>
</trkpt>
<trkpt lat="61.119563" lon="26.015571">
<time>2020-09-12T12:26:52Z</time>
</trkpt>
<trkpt lat="61.119496" lon="26.015481">
<time>2020-09-12T12:26:53Z</time>
</trkpt>
<trkpt lat="61.119433" lon="26.015376">
<time>2020-09-12T12:26:54Z</time>
</trkpt>
<trkpt lat="61.119375" lon="26.01524">
<time>2020-09-12T12:26:55Z</time>
</trkpt>
<trkpt lat="61.119331" lon="26.015085">
<time>2020-09-12T12:26:56Z</time>
</trkpt>
<trkpt lat="61.119296" lon="26.014906">
<time>2020-09-12T12:26:57Z</time>
</trkpt>
<trkpt lat="61.119266" lon="26.014675">
<time>2020-09-12T12:26:58Z</time>
</trkpt>
<trkpt lat="61.119253" lon="26.014453">
<time>2020-09-12T12:26:59Z</time>
</trkpt>
<trkpt lat="61.11925" lon="26.014233">
<time>2020-09-12T12:27:00Z</time>
</trkpt>
<trkpt lat="61.119253" lon="26.014003">
<time>2020-09-12T12:27:01Z</time>
</trkpt>
<trkpt lat="61.119268" lon="26.01377">
<time>2020-09-12T12:27:02Z</time>
</trkpt>
<trkpt lat="61.119293" lon="26.013526">
<time>2020-09-12T12:27:03Z</time>
</trkpt>
<trkpt lat="61.119318" lon="26.013278">
<time>2020-09-12T12:27:04Z</time>
</trkpt>
<trkpt lat="61.119336" lon="26.013075">
<time>2020-09-12T12:27:05Z</time>
</trkpt>
<trkpt lat="61.119346" lon="26.012821">
<time>2020-09-12T12:27:06Z</time>
</trkpt>
<trkpt lat="61.119338" lon="26.012571">
<time>2020-09-12T12:27:07Z</time>
</trkpt>
<trkpt lat="61.119323" lon="26.01233">
<time>2020-09-12T12:27:08Z</time>
</trkpt>
<trkpt lat="61.119301" lon="26.012098">
<time>2020-09-12T12:27:09Z</time>
</trkpt>
<trkpt lat="61.119273" lon="26.011875">
<time>2020-09-12T12:27:10Z</time>
</trkpt>
<trkpt lat="61.11924" lon="26.01166">
<time>2020-09-12T12:27:11Z</time>
</trkpt>
<trkpt lat="61.11921" lon="26.01145">
<time>2020-09-12T12:27:12Z</time>
</trkpt>
<trkpt lat="61.119175" lon="26.011206">
<time>2020-09-12T12:27:13Z</time>
</trkpt>
<trkpt lat="61.119151" lon="26.010996">
<time>2020-09-12T12:27:14Z</time>
</trkpt>
<trkpt lat="61.119133" lon="26.010781">
<time>2020-09-12T12:27:15Z</time>
</trkpt>
<trkpt lat="61.119118" lon="26.010603">
<time>2020-09-12T12:27:16Z</time>
</trkpt>
<trkpt lat="61.1191" lon="26.01037">
<time>2020-09-12T12:27:17Z</time>
</trkpt>
<trkpt lat="61.11906" lon="26.010105">
<time>2020-09-12T12:27:18Z</time>
</trkpt>
<trkpt lat="61.119008" lon="26.009916">
<time>2020-09-12T12:27:19Z</time>
</trkpt>
<trkpt lat="61.11894" lon="26.009773">
<time>2020-09-12T12:27:20Z</time>
</trkpt>
<trkpt lat="61.11888" lon="26.009671">
<time>2020-09-12T12:27:21Z</time>
</trkpt>
<trkpt lat="61.118826" lon="26.009616">
<time>2020-09-12T12:27:22Z</time>
</trkpt>
<trkpt lat="61.118765" lon="26.009581">
<time>2020-09-12T12:27:23Z</time>
</trkpt>
<trkpt lat="61.118708" lon="26.009573">
<time>2020-09-12T12:27:24Z</time>
</trkpt>
<trkpt lat="61.118648" lon="26.00962">
<time>2020-09-12T12:27:25Z</time>
</trkpt>
<trkpt lat="61.11859" lon="26.009668">
<time>2020-09-12T12:27:26Z</time>
</trkpt>
<trkpt lat="61.11853" lon="26.009713">
<time>2020-09-12T12:27:27Z</time>
</trkpt>
<trkpt lat="61.118468" lon="26.009763">
<time>2020-09-12T12:27:28Z</time>
</trkpt>
<trkpt lat="61.118403" lon="26.009803">
<time>2020-09-12T12:27:29Z</time>
</trkpt>
<trkpt lat="61.118321" lon="26.009851">
<time>2020-09-12T12:27:30Z</time>
</trkpt>
<trkpt lat="61.118265" lon="26.009895">
<time>2020-09-12T12:27:31Z</time>
</trkpt>
<trkpt lat="61.118195" lon="26.009965">
<time>2020-09-12T12:27:32Z</time>
</trkpt>
<trkpt lat="61.118128" lon="26.01005">
<time>2020-09-12T12:27:33Z</time>
</trkpt>
<trkpt lat="61.118041" lon="26.010171">
<time>2020-09-12T12:27:34Z</time>
</trkpt>
<trkpt lat="61.117961" lon="26.010281">
<time>2020-09-12T12:27:35Z</time>
</trkpt>
<trkpt lat="61.117893" lon="26.010375">
<time>2020-09-12T12:27:36Z</time>
</trkpt>
<trkpt lat="61.117805" lon="26.010486">
<time>2020-09-12T12:27:37Z</time>
</trkpt>
<trkpt lat="61.117723" lon="26.010576">
<time>2020-09-12T12:27:38Z</time>
</trkpt>
<trkpt lat="61.117641" lon="26.010656">
<time>2020-09-12T12:27:39Z</time>
</trkpt>
<trkpt lat="61.117545" lon="26.010735">
<time>2020-09-12T12:27:40Z</time>
</trkpt>
<trkpt lat="61.117478" lon="26.010781">
<time>2020-09-12T12:27:41Z</time>
</trkpt>
<trkpt lat="61.117395" lon="26.01083">
<time>2020-09-12T12:27:42Z</time>
</trkpt>
<trkpt lat="61.117311" lon="26.010865">
<time>2020-09-12T12:27:43Z</time>
</trkpt>
<trkpt lat="61.117228" lon="26.010886">
<time>2020-09-12T12:27:44Z</time>
</trkpt>
<trkpt lat="61.117131" lon="26.010895">
<time>2020-09-12T12:27:45Z</time>
</trkpt>
<trkpt lat="61.117066" lon="26.010893">
<time>2020-09-12T12:27:46Z</time>
</trkpt>
<trkpt lat="61.116988" lon="26.010881">
<time>2020-09-12T12:27:47Z</time>
</trkpt>
<trkpt lat="61.116911" lon="26.010866">
<time>2020-09-12T12:27:48Z</time>
</trkpt>
<trkpt lat="61.116821" lon="26.010845">
<time>2020-09-12T12:27:49Z</time>
</trkpt>
<trkpt lat="61.116748" lon="26.010821">
<time>2020-09-12T12:27:50Z</time>
</trkpt>
<trkpt lat="61.11669" lon="26.0108">
<time>2020-09-12T12:27:51Z</time>
</trkpt>
<trkpt lat="61.116618" lon="26.010775">
<time>2020-09-12T12:27:52Z</time>
</trkpt>
<trkpt lat="61.116548" lon="26.01076">
<time>2020-09-12T12:27:53Z</time>
</trkpt>
<trkpt lat="61.116463" lon="26.01074">
<time>2020-09-12T12:27:54Z</time>
</trkpt>
<trkpt lat="61.116391" lon="26.010721">
<time>2020-09-12T12:27:55Z</time>
</trkpt>
<trkpt lat="61.116335" lon="26.0107">
<time>2020-09-12T12:27:56Z</time>
</trkpt>
<trkpt lat="61.116265" lon="26.010676">
<time>2020-09-12T12:27:57Z</time>
</trkpt>
<trkpt lat="61.1162" lon="26.010651">
<time>2020-09-12T12:27:58Z</time>
</trkpt>
<trkpt lat="61.116126" lon="26.010625">
<time>2020-09-12T12:27:59Z</time>
</trkpt>
<trkpt lat="61.116071" lon="26.010595">
<time>2020-09-12T12:28:00Z</time>
</trkpt>
<trkpt lat="61.116033" lon="26.01057">
<time>2020-09-12T12:28:01Z</time>
</trkpt>
<trkpt lat="61.115988" lon="26.010536">
<time>2020-09-12T12:28:02Z</time>
</trkpt>
<trkpt lat="61.115943" lon="26.010503">
<time>2020-09-12T12:28:03Z</time>
</trkpt>
<trkpt lat="61.1159" lon="26.010463">
<time>2020-09-12T12:28:04Z</time>
</trkpt>
<trkpt lat="61.11586" lon="26.01042">
<time>2020-09-12T12:28:05Z</time>
</trkpt>
<trkpt lat="61.115821" lon="26.010376">
<time>2020-09-12T12:28:06Z</time>
</trkpt>
<trkpt lat="61.115785" lon="26.010328">
<time>2020-09-12T12:28:07Z</time>
</trkpt>
<trkpt lat="61.115746" lon="26.010281">
<time>2020-09-12T12:28:08Z</time>
</trkpt>
<trkpt lat="61.115698" lon="26.010226">
<time>2020-09-12T12:28:09Z</time>
</trkpt>
<trkpt lat="61.115651" lon="26.010181">
<time>2020-09-12T12:28:10Z</time>
</trkpt>
<trkpt lat="61.115613" lon="26.01014">
<time>2020-09-12T12:28:11Z</time>
</trkpt>
<trkpt lat="61.11556" lon="26.010085">
<time>2020-09-12T12:28:12Z</time>
</trkpt>
<trkpt lat="61.115503" lon="26.010021">
<time>2020-09-12T12:28:13Z</time>
</trkpt>
<trkpt lat="61.115443" lon="26.009945">
<time>2020-09-12T12:28:14Z</time>
</trkpt>
<trkpt lat="61.115381" lon="26.009856">
<time>2020-09-12T12:28:15Z</time>
</trkpt>
<trkpt lat="61.115316" lon="26.009763">
<time>2020-09-12T12:28:16Z</time>
</trkpt>
<trkpt lat="61.115246" lon="26.009675">
<time>2020-09-12T12:28:17Z</time>
</trkpt>
<trkpt lat="61.115181" lon="26.009588">
<time>2020-09-12T12:28:18Z</time>
</trkpt>
<trkpt lat="61.115116" lon="26.0095">
<time>2020-09-12T12:28:19Z</time>
</trkpt>
<trkpt lat="61.115078" lon="26.009431">
<time>2020-09-12T12:28:20Z</time>
</trkpt>
<trkpt lat="61.115055" lon="26.00938">
<time>2020-09-12T12:28:21Z</time>
</trkpt>
<trkpt lat="61.115025" lon="26.00932">
<time>2020-09-12T12:28:22Z</time>
</trkpt>
<trkpt lat="61.114998" lon="26.009263">
<time>2020-09-12T12:28:23Z</time>
</trkpt>
<trkpt lat="61.114975" lon="26.009206">
<time>2020-09-12T12:28:24Z</time>
</trkpt>
<trkpt lat="61.114951" lon="26.009136">
<time>2020-09-12T12:28:25Z</time>
</trkpt>
<trkpt lat="61.114938" lon="26.009091">
<time>2020-09-12T12:28:26Z</time>
</trkpt>
<trkpt lat="61.114921" lon="26.00904">
<time>2020-09-12T12:28:27Z</time>
</trkpt>
<trkpt lat="61.114905" lon="26.008986">
<time>2020-09-12T12:28:28Z</time>
</trkpt>
<trkpt lat="61.114888" lon="26.00893">
<time>2020-09-12T12:28:29Z</time>
</trkpt>
<trkpt lat="61.11487" lon="26.008866">
<time>2020-09-12T12:28:30Z</time>
</trkpt>
<trkpt lat="61.114853" lon="26.008816">
<time>2020-09-12T12:28:31Z</time>
</trkpt>
<trkpt lat="61.11484" lon="26.008773">
<time>2020-09-12T12:28:32Z</time>
</trkpt>
<trkpt lat="61.114823" lon="26.008721">
<time>2020-09-12T12:28:33Z</time>
</trkpt>
<trkpt lat="61.114805" lon="26.008655">
<time>2020-09-12T12:28:34Z</time>
</trkpt>
<trkpt lat="61.11479" lon="26.008598">
<time>2020-09-12T12:28:35Z</time>
</trkpt>
<trkpt lat="61.114775" lon="26.008535">
<time>2020-09-12T12:28:36Z</time>
</trkpt>
<trkpt lat="61.114765" lon="26.00848">
<time>2020-09-12T12:28:37Z</time>
</trkpt>
<trkpt lat="61.114751" lon="26.008405">
<time>2020-09-12T12:28:38Z</time>
</trkpt>
<trkpt lat="61.114741" lon="26.008316">
<time>2020-09-12T12:28:39Z</time>
</trkpt>
<trkpt lat="61.114733" lon="26.008243">
<time>2020-09-12T12:28:40Z</time>
</trkpt>
<trkpt lat="61.114726" lon="26.008181">
<time>2020-09-12T12:28:41Z</time>
</trkpt>
<trkpt lat="61.114725" lon="26.008106">
<time>2020-09-12T12:28:42Z</time>
</trkpt>
<trkpt lat="61.114721" lon="26.008035">
<time>2020-09-12T12:28:43Z</time>
</trkpt>
<trkpt lat="61.114718" lon="26.007968">
<time>2020-09-12T12:28:44Z</time>
</trkpt>
<trkpt lat="61.11473" lon="26.00791">
<time>2020-09-12T12:28:45Z</time>
</trkpt>
<trkpt lat="61.114753" lon="26.007853">
<time>2020-09-12T12:28:46Z</time>
</trkpt>
<trkpt lat="61.114781" lon="26.007798">
<time>2020-09-12T12:28:47Z</time>
</trkpt>
<trkpt lat="61.114815" lon="26.007743">
<time>2020-09-12T12:28:48Z</time>
</trkpt>
<trkpt lat="61.11485" lon="26.007673">
<time>2020-09-12T12:28:49Z</time>
</trkpt>
<trkpt lat="61.114888" lon="26.007588">
<time>2020-09-12T12:28:50Z</time>
</trkpt>
<trkpt lat="61.114928" lon="26.007486">
<time>2020-09-12T12:28:51Z</time>
</trkpt>
<trkpt lat="61.114966" lon="26.007368">
<time>2020-09-12T12:28:52Z</time>
</trkpt>
<trkpt lat="61.115005" lon="26.007245">
<time>2020-09-12T12:28:53Z</time>
</trkpt>
<trkpt lat="61.115046" lon="26.007113">
<time>2020-09-12T12:28:54Z</time>
</trkpt>
<trkpt lat="61.115083" lon="26.006998">
<time>2020-09-12T12:28:55Z</time>
</trkpt>
<trkpt lat="61.115115" lon="26.006911">
<time>2020-09-12T12:28:56Z</time>
</trkpt>
<trkpt lat="61.11514" lon="26.006848">
<time>2020-09-12T12:28:57Z</time>
</trkpt>
<trkpt lat="61.115173" lon="26.0068">
<time>2020-09-12T12:28:58Z</time>
</trkpt>
<trkpt lat="61.115213" lon="26.006796">
<time>2020-09-12T12:28:59Z</time>
</trkpt>
<trkpt lat="61.115253" lon="26.006815">
<time>2020-09-12T12:29:00Z</time>
</trkpt>
<trkpt lat="61.115288" lon="26.006845">
<time>2020-09-12T12:29:01Z</time>
</trkpt>
<trkpt lat="61.115316" lon="26.006855">
<time>2020-09-12T12:29:02Z</time>
</trkpt>
<trkpt lat="61.115336" lon="26.006846">
<time>2020-09-12T12:29:03Z</time>
</trkpt>
<trkpt lat="61.11535" lon="26.006836">
<time>2020-09-12T12:29:04Z</time>
</trkpt>
<trkpt lat="61.115355" lon="26.006826">
<time>2020-09-12T12:29:05Z</time>
</trkpt>
<trkpt lat="61.11536" lon="26.006813">
<time>2020-09-12T12:29:06Z</time>
</trkpt>
<trkpt lat="61.115363" lon="26.006805">
<time>2020-09-12T12:29:07Z</time>
</trkpt>
<trkpt lat="61.115365" lon="26.006791">
<time>2020-09-12T12:29:08Z</time>
</trkpt>
<trkpt lat="61.115363" lon="26.006775">
<time>2020-09-12T12:29:09Z</time>
</trkpt>
<trkpt lat="61.115366" lon="26.006756">
<time>2020-09-12T12:29:10Z</time>
</trkpt>
<trkpt lat="61.11537" lon="26.006735">
<time>2020-09-12T12:29:11Z</time>
</trkpt>
<trkpt lat="61.11537" lon="26.006701">
<time>2020-09-12T12:29:12Z</time>
</trkpt>
<trkpt lat="61.115368" lon="26.006663">
<time>2020-09-12T12:29:13Z</time>
</trkpt>
<trkpt lat="61.115368" lon="26.006611">
<time>2020-09-12T12:29:14Z</time>
</trkpt>
<trkpt lat="61.115371" lon="26.006541">
<time>2020-09-12T12:29:15Z</time>
</trkpt>
<trkpt lat="61.115371" lon="26.006471">
<time>2020-09-12T12:29:16Z</time>
</trkpt>
<trkpt lat="61.115375" lon="26.006413">
<time>2020-09-12T12:29:17Z</time>
</trkpt>
<trkpt lat="61.115386" lon="26.006345">
<time>2020-09-12T12:29:18Z</time>
</trkpt>
<trkpt lat="61.115401" lon="26.006288">
<time>2020-09-12T12:29:19Z</time>
</trkpt>
<trkpt lat="61.115418" lon="26.006225">
<time>2020-09-12T12:29:20Z</time>
</trkpt>
<trkpt lat="61.11543" lon="26.006176">
<time>2020-09-12T12:29:21Z</time>
</trkpt>
<trkpt lat="61.11544" lon="26.006128">
<time>2020-09-12T12:29:22Z</time>
</trkpt>
<trkpt lat="61.115446" lon="26.006085">
<time>2020-09-12T12:29:23Z</time>
</trkpt>
<trkpt lat="61.115448" lon="26.006031">
<time>2020-09-12T12:29:24Z</time>
</trkpt>
<trkpt lat="61.11545" lon="26.005975">
<time>2020-09-12T12:29:25Z</time>
</trkpt>
<trkpt lat="61.115451" lon="26.005903">
<time>2020-09-12T12:29:26Z</time>
</trkpt>
<trkpt lat="61.115453" lon="26.005835">
<time>2020-09-12T12:29:27Z</time>
</trkpt>
<trkpt lat="61.115458" lon="26.00578">
<time>2020-09-12T12:29:28Z</time>
</trkpt>
<trkpt lat="61.115461" lon="26.005708">
<time>2020-09-12T12:29:29Z</time>
</trkpt>
<trkpt lat="61.115468" lon="26.005636">
<time>2020-09-12T12:29:30Z</time>
</trkpt>
<trkpt lat="61.115481" lon="26.005551">
<time>2020-09-12T12:29:31Z</time>
</trkpt>
<trkpt lat="61.115496" lon="26.005498">
<time>2020-09-12T12:29:32Z</time>
</trkpt>
<trkpt lat="61.115518" lon="26.005443">
<time>2020-09-12T12:29:33Z</time>
</trkpt>
<trkpt lat="61.115545" lon="26.0054">
<time>2020-09-12T12:29:34Z</time>
</trkpt>
<trkpt lat="61.115566" lon="26.005375">
<time>2020-09-12T12:29:35Z</time>
</trkpt>
<trkpt lat="61.115581" lon="26.005361">
<time>2020-09-12T12:29:36Z</time>
</trkpt>
<trkpt lat="61.115588" lon="26.005355">
<time>2020-09-12T12:29:37Z</time>
</trkpt>
<trkpt lat="61.115603" lon="26.005346">
<time>2020-09-12T12:29:38Z</time>
</trkpt>
<trkpt lat="61.115616" lon="26.005345">
<time>2020-09-12T12:29:39Z</time>
</trkpt>
<trkpt lat="61.115621" lon="26.005328">
<time>2020-09-12T12:29:40Z</time>
</trkpt>
<trkpt lat="61.115623" lon="26.005306">
<time>2020-09-12T12:29:41Z</time>
</trkpt>
<trkpt lat="61.11562" lon="26.005283">
<time>2020-09-12T12:29:42Z</time>
</trkpt>
<trkpt lat="61.11562" lon="26.005273">
<time>2020-09-12T12:29:43Z</time>
</trkpt>
<trkpt lat="61.115623" lon="26.005258">
<time>2020-09-12T12:29:44Z</time>
</trkpt>
<trkpt lat="61.11563" lon="26.005251">
<time>2020-09-12T12:29:45Z</time>
</trkpt>
<trkpt lat="61.115633" lon="26.005251">
<time>2020-09-12T12:29:46Z</time>
</trkpt>
<trkpt lat="61.115635" lon="26.00526">
<time>2020-09-12T12:29:47Z</time>
</trkpt>
<trkpt lat="61.115636" lon="26.00527">
<time>2020-09-12T12:29:48Z</time>
</trkpt>
<trkpt lat="61.115636" lon="26.005271">
<time>2020-09-12T12:29:49Z</time>
</trkpt>
<trkpt lat="61.115636" lon="26.005276">
<time>2020-09-12T12:29:50Z</time>
</trkpt>
<trkpt lat="61.115638" lon="26.00528">
<time>2020-09-12T12:29:51Z</time>
</trkpt>
<trkpt lat="61.115641" lon="26.005286">
<time>2020-09-12T12:29:52Z</time>
</trkpt>
<trkpt lat="61.115645" lon="26.005286">
<time>2020-09-12T12:29:53Z</time>
</trkpt>
<trkpt lat="61.11565" lon="26.005291">
<time>2020-09-12T12:29:54Z</time>
</trkpt>
<trkpt lat="61.115658" lon="26.005296">
<time>2020-09-12T12:29:55Z</time>
</trkpt>
<trkpt lat="61.115668" lon="26.005305">
<time>2020-09-12T12:29:56Z</time>
</trkpt>
<trkpt lat="61.11568" lon="26.005308">
<time>2020-09-12T12:29:57Z</time>
</trkpt>
<trkpt lat="61.11569" lon="26.005313">
<time>2020-09-12T12:29:58Z</time>
</trkpt>
<trkpt lat="61.115701" lon="26.005316">
<time>2020-09-12T12:29:59Z</time>
</trkpt>
<trkpt lat="61.115715" lon="26.005311">
<time>2020-09-12T12:30:00Z</time>
</trkpt>
<trkpt lat="61.115731" lon="26.00531">
<time>2020-09-12T12:30:01Z</time>
</trkpt>
<trkpt lat="61.115755" lon="26.005305">
<time>2020-09-12T12:30:02Z</time>
</trkpt>
<trkpt lat="61.115786" lon="26.005298">
<time>2020-09-12T12:30:03Z</time>
</trkpt>
<trkpt lat="61.115833" lon="26.00529">
<time>2020-09-12T12:30:04Z</time>
</trkpt>
<trkpt lat="61.11588" lon="26.005273">
<time>2020-09-12T12:30:05Z</time>
</trkpt>
<trkpt lat="61.115926" lon="26.005225">
<time>2020-09-12T12:30:06Z</time>
</trkpt>
<trkpt lat="61.115951" lon="26.005163">
<time>2020-09-12T12:30:07Z</time>
</trkpt>
<trkpt lat="61.11596" lon="26.005106">
<time>2020-09-12T12:30:08Z</time>
</trkpt>
<trkpt lat="61.11596" lon="26.005025">
<time>2020-09-12T12:30:09Z</time>
</trkpt>
<trkpt lat="61.115956" lon="26.004938">
<time>2020-09-12T12:30:10Z</time>
</trkpt>
<trkpt lat="61.115948" lon="26.004851">
<time>2020-09-12T12:30:11Z</time>
</trkpt>
<trkpt lat="61.115936" lon="26.004756">
<time>2020-09-12T12:30:12Z</time>
</trkpt>
<trkpt lat="61.115925" lon="26.004676">
<time>2020-09-12T12:30:13Z</time>
</trkpt>
<trkpt lat="61.11592" lon="26.004606">
<time>2020-09-12T12:30:14Z</time>
</trkpt>
<trkpt lat="61.115921" lon="26.004543">
<time>2020-09-12T12:30:15Z</time>
</trkpt>
<trkpt lat="61.115916" lon="26.004488">
<time>2020-09-12T12:30:16Z</time>
</trkpt>
<trkpt lat="61.115901" lon="26.004443">
<time>2020-09-12T12:30:17Z</time>
</trkpt>
<trkpt lat="61.115885" lon="26.004415">
<time>2020-09-12T12:30:18Z</time>
</trkpt>
<trkpt lat="61.11585" lon="26.004385">
<time>2020-09-12T12:30:19Z</time>
</trkpt>
<trkpt lat="61.115805" lon="26.004366">
<time>2020-09-12T12:30:20Z</time>
</trkpt>
<trkpt lat="61.11577" lon="26.004365">
<time>2020-09-12T12:30:21Z</time>
</trkpt>
<trkpt lat="61.115735" lon="26.004353">
<time>2020-09-12T12:30:22Z</time>
</trkpt>
<trkpt lat="61.115711" lon="26.004348">
<time>2020-09-12T12:30:23Z</time>
</trkpt>
<trkpt lat="61.115683" lon="26.00434">
<time>2020-09-12T12:30:24Z</time>
</trkpt>
<trkpt lat="61.11565" lon="26.00433">
<time>2020-09-12T12:30:25Z</time>
</trkpt>
<trkpt lat="61.115613" lon="26.004321">
<time>2020-09-12T12:30:26Z</time>
</trkpt>
<trkpt lat="61.115581" lon="26.004316">
<time>2020-09-12T12:30:27Z</time>
</trkpt>
<trkpt lat="61.115553" lon="26.004313">
<time>2020-09-12T12:30:28Z</time>
</trkpt>
<trkpt lat="61.115521" lon="26.004315">
<time>2020-09-12T12:30:29Z</time>
</trkpt>
<trkpt lat="61.115493" lon="26.004318">
<time>2020-09-12T12:30:30Z</time>
</trkpt>
<trkpt lat="61.115456" lon="26.004326">
<time>2020-09-12T12:30:31Z</time>
</trkpt>
<trkpt lat="61.115426" lon="26.004333">
<time>2020-09-12T12:30:32Z</time>
</trkpt>
<trkpt lat="61.1154" lon="26.004338">
<time>2020-09-12T12:30:33Z</time>
</trkpt>
<trkpt lat="61.115366" lon="26.004353">
<time>2020-09-12T12:30:34Z</time>
</trkpt>
<trkpt lat="61.115328" lon="26.00437">
<time>2020-09-12T12:30:35Z</time>
</trkpt>
<trkpt lat="61.115281" lon="26.004401">
<time>2020-09-12T12:30:36Z</time>
</trkpt>
<trkpt lat="61.115238" lon="26.00443">
<time>2020-09-12T12:30:37Z</time>
</trkpt>
<trkpt lat="61.115201" lon="26.004455">
<time>2020-09-12T12:30:38Z</time>
</trkpt>
<trkpt lat="61.115155" lon="26.004491">
<time>2020-09-12T12:30:39Z</time>
</trkpt>
<trkpt lat="61.11511" lon="26.004521">
<time>2020-09-12T12:30:40Z</time>
</trkpt>
<trkpt lat="61.11506" lon="26.004556">
<time>2020-09-12T12:30:41Z</time>
</trkpt>
<trkpt lat="61.115016" lon="26.004583">
<time>2020-09-12T12:30:42Z</time>
</trkpt>
<trkpt lat="61.114983" lon="26.004605">
<time>2020-09-12T12:30:43Z</time>
</trkpt>
<trkpt lat="61.114943" lon="26.004636">
<time>2020-09-12T12:30:44Z</time>
</trkpt>
<trkpt lat="61.114903" lon="26.004656">
<time>2020-09-12T12:30:45Z</time>
</trkpt>
<trkpt lat="61.11486" lon="26.004675">
<time>2020-09-12T12:30:46Z</time>
</trkpt>
<trkpt lat="61.114823" lon="26.004663">
<time>2020-09-12T12:30:47Z</time>
</trkpt>
<trkpt lat="61.1148" lon="26.004636">
<time>2020-09-12T12:30:48Z</time>
</trkpt>
<trkpt lat="61.114778" lon="26.004585">
<time>2020-09-12T12:30:49Z</time>
</trkpt>
<trkpt lat="61.114768" lon="26.004511">
<time>2020-09-12T12:30:50Z</time>
</trkpt>
<trkpt lat="61.114776" lon="26.004391">
<time>2020-09-12T12:30:51Z</time>
</trkpt>
<trkpt lat="61.114776" lon="26.004288">
<time>2020-09-12T12:30:52Z</time>
</trkpt>
<trkpt lat="61.114773" lon="26.004191">
<time>2020-09-12T12:30:53Z</time>
</trkpt>
<trkpt lat="61.114758" lon="26.004075">
<time>2020-09-12T12:30:54Z</time>
</trkpt>
<trkpt lat="61.11473" lon="26.003965">
<time>2020-09-12T12:30:55Z</time>
</trkpt>
<trkpt lat="61.114695" lon="26.003841">
<time>2020-09-12T12:30:56Z</time>
</trkpt>
<trkpt lat="61.114668" lon="26.003736">
<time>2020-09-12T12:30:57Z</time>
</trkpt>
<trkpt lat="61.114645" lon="26.003646">
<time>2020-09-12T12:30:58Z</time>
</trkpt>
<trkpt lat="61.114625" lon="26.003518">
<time>2020-09-12T12:30:59Z</time>
</trkpt>
<trkpt lat="61.114601" lon="26.00339">
<time>2020-09-12T12:31:00Z</time>
</trkpt>
<trkpt lat="61.114583" lon="26.003248">
<time>2020-09-12T12:31:01Z</time>
</trkpt>
<trkpt lat="61.114583" lon="26.003141">
<time>2020-09-12T12:31:02Z</time>
</trkpt>
<trkpt lat="61.114595" lon="26.003068">
<time>2020-09-12T12:31:03Z</time>
</trkpt>
<trkpt lat="61.114611" lon="26.002976">
<time>2020-09-12T12:31:04Z</time>
</trkpt>
<trkpt lat="61.114633" lon="26.002883">
<time>2020-09-12T12:31:05Z</time>
</trkpt>
<trkpt lat="61.114655" lon="26.002773">
<time>2020-09-12T12:31:06Z</time>
</trkpt>
<trkpt lat="61.114668" lon="26.002691">
<time>2020-09-12T12:31:07Z</time>
</trkpt>
<trkpt lat="61.114671" lon="26.002633">
<time>2020-09-12T12:31:08Z</time>
</trkpt>
<trkpt lat="61.114668" lon="26.002565">
<time>2020-09-12T12:31:09Z</time>
</trkpt>
<trkpt lat="61.114653" lon="26.002503">
<time>2020-09-12T12:31:10Z</time>
</trkpt>
<trkpt lat="61.11463" lon="26.002428">
<time>2020-09-12T12:31:11Z</time>
</trkpt>
<trkpt lat="61.114603" lon="26.002356">
<time>2020-09-12T12:31:12Z</time>
</trkpt>
<trkpt lat="61.114576" lon="26.002305">
<time>2020-09-12T12:31:13Z</time>
</trkpt>
<trkpt lat="61.114538" lon="26.002253">
<time>2020-09-12T12:31:14Z</time>
</trkpt>
<trkpt lat="61.114498" lon="26.002226">
<time>2020-09-12T12:31:15Z</time>
</trkpt>
<trkpt lat="61.114451" lon="26.002218">
<time>2020-09-12T12:31:16Z</time>
</trkpt>
<trkpt lat="61.114413" lon="26.002216">
<time>2020-09-12T12:31:17Z</time>
</trkpt>
<trkpt lat="61.114376" lon="26.002225">
<time>2020-09-12T12:31:18Z</time>
</trkpt>
<trkpt lat="61.114328" lon="26.002241">
<time>2020-09-12T12:31:19Z</time>
</trkpt>
<trkpt lat="61.114278" lon="26.002236">
<time>2020-09-12T12:31:20Z</time>
</trkpt>
<trkpt lat="61.114223" lon="26.002201">
<time>2020-09-12T12:31:21Z</time>
</trkpt>
<trkpt lat="61.114173" lon="26.002158">
<time>2020-09-12T12:31:22Z</time>
</trkpt>
<trkpt lat="61.11413" lon="26.0021">
<time>2020-09-12T12:31:23Z</time>
</trkpt>
<trkpt lat="61.114078" lon="26.002038">
<time>2020-09-12T12:31:24Z</time>
</trkpt>
<trkpt lat="61.114028" lon="26.00197">
<time>2020-09-12T12:31:25Z</time>
</trkpt>
<trkpt lat="61.113966" lon="26.001881">
<time>2020-09-12T12:31:26Z</time>
</trkpt>
<trkpt lat="61.113911" lon="26.001805">
<time>2020-09-12T12:31:27Z</time>
</trkpt>
<trkpt lat="61.113868" lon="26.001741">
<time>2020-09-12T12:31:28Z</time>
</trkpt>
<trkpt lat="61.11381" lon="26.001663">
<time>2020-09-12T12:31:29Z</time>
</trkpt>
<trkpt lat="61.113755" lon="26.001586">
<time>2020-09-12T12:31:30Z</time>
</trkpt>
<trkpt lat="61.113688" lon="26.0015">
<time>2020-09-12T12:31:31Z</time>
</trkpt>
<trkpt lat="61.113631" lon="26.00143">
<time>2020-09-12T12:31:32Z</time>
</trkpt>
<trkpt lat="61.113586" lon="26.001371">
<time>2020-09-12T12:31:33Z</time>
</trkpt>
<trkpt lat="61.113528" lon="26.001301">
<time>2020-09-12T12:31:34Z</time>
</trkpt>
<trkpt lat="61.113471" lon="26.001223">
<time>2020-09-12T12:31:35Z</time>
</trkpt>
<trkpt lat="61.113401" lon="26.001126">
<time>2020-09-12T12:31:36Z</time>
</trkpt>
<trkpt lat="61.113341" lon="26.001041">
<time>2020-09-12T12:31:37Z</time>
</trkpt>
<trkpt lat="61.113295" lon="26.000976">
<time>2020-09-12T12:31:38Z</time>
</trkpt>
<trkpt lat="61.113236" lon="26.000891">
<time>2020-09-12T12:31:39Z</time>
</trkpt>
<trkpt lat="61.113178" lon="26.000808">
<time>2020-09-12T12:31:40Z</time>
</trkpt>
<trkpt lat="61.113118" lon="26.000721">
<time>2020-09-12T12:31:41Z</time>
</trkpt>
<trkpt lat="61.113045" lon="26.000621">
<time>2020-09-12T12:31:42Z</time>
</trkpt>
<trkpt lat="61.112996" lon="26.000555">
<time>2020-09-12T12:31:43Z</time>
</trkpt>
<trkpt lat="61.112931" lon="26.000468">
<time>2020-09-12T12:31:44Z</time>
</trkpt>
<trkpt lat="61.11287" lon="26.000388">
<time>2020-09-12T12:31:45Z</time>
</trkpt>
<trkpt lat="61.112806" lon="26.000306">
<time>2020-09-12T12:31:46Z</time>
</trkpt>
<trkpt lat="61.112743" lon="26.000228">
<time>2020-09-12T12:31:47Z</time>
</trkpt>
<trkpt lat="61.112681" lon="26.000143">
<time>2020-09-12T12:31:48Z</time>
</trkpt>
<trkpt lat="61.11263" lon="26.000053">
<time>2020-09-12T12:31:49Z</time>
</trkpt>
<trkpt lat="61.112591" lon="25.999955">
<time>2020-09-12T12:31:50Z</time>
</trkpt>
<trkpt lat="61.11257" lon="25.999856">
<time>2020-09-12T12:31:51Z</time>
</trkpt>
<trkpt lat="61.112556" lon="25.999755">
<time>2020-09-12T12:31:52Z</time>
</trkpt>
<trkpt lat="61.112543" lon="25.999648">
<time>2020-09-12T12:31:53Z</time>
</trkpt>
<trkpt lat="61.112536" lon="25.999538">
<time>2020-09-12T12:31:54Z</time>
</trkpt>
<trkpt lat="61.112538" lon="25.999423">
<time>2020-09-12T12:31:55Z</time>
</trkpt>
<trkpt lat="61.112558" lon="25.999308">
<time>2020-09-12T12:31:56Z</time>
</trkpt>
<trkpt lat="61.112585" lon="25.99919">
<time>2020-09-12T12:31:57Z</time>
</trkpt>
<trkpt lat="61.112616" lon="25.999068">
<time>2020-09-12T12:31:58Z</time>
</trkpt>
<trkpt lat="61.112651" lon="25.99894">
<time>2020-09-12T12:31:59Z</time>
</trkpt>
<trkpt lat="61.112688" lon="25.99881">
<time>2020-09-12T12:32:00Z</time>
</trkpt>
<trkpt lat="61.112725" lon="25.998676">
<time>2020-09-12T12:32:01Z</time>
</trkpt>
<trkpt lat="61.112766" lon="25.998538">
<time>2020-09-12T12:32:02Z</time>
</trkpt>
<trkpt lat="61.112808" lon="25.9984">
<time>2020-09-12T12:32:03Z</time>
</trkpt>
<trkpt lat="61.112851" lon="25.998256">
<time>2020-09-12T12:32:04Z</time>
</trkpt>
<trkpt lat="61.112893" lon="25.998108">
<time>2020-09-12T12:32:05Z</time>
</trkpt>
<trkpt lat="61.112931" lon="25.997955">
<time>2020-09-12T12:32:06Z</time>
</trkpt>
<trkpt lat="61.112973" lon="25.997803">
<time>2020-09-12T12:32:07Z</time>
</trkpt>
<trkpt lat="61.113016" lon="25.997655">
<time>2020-09-12T12:32:08Z</time>
</trkpt>
<trkpt lat="61.11306" lon="25.997505">
<time>2020-09-12T12:32:09Z</time>
</trkpt>
<trkpt lat="61.113101" lon="25.997353">
<time>2020-09-12T12:32:10Z</time>
</trkpt>
<trkpt lat="61.113145" lon="25.997203">
<time>2020-09-12T12:32:11Z</time>
</trkpt>
<trkpt lat="61.113186" lon="25.997056">
<time>2020-09-12T12:32:12Z</time>
</trkpt>
<trkpt lat="61.113228" lon="25.996906">
<time>2020-09-12T12:32:13Z</time>
</trkpt>
<trkpt lat="61.113271" lon="25.996763">
<time>2020-09-12T12:32:14Z</time>
</trkpt>
<trkpt lat="61.11331" lon="25.996615">
<time>2020-09-12T12:32:15Z</time>
</trkpt>
<trkpt lat="61.11335" lon="25.996473">
<time>2020-09-12T12:32:16Z</time>
</trkpt>
<trkpt lat="61.113391" lon="25.996328">
<time>2020-09-12T12:32:17Z</time>
</trkpt>
<trkpt lat="61.113431" lon="25.996186">
<time>2020-09-12T12:32:18Z</time>
</trkpt>
<trkpt lat="61.113471" lon="25.996041">
<time>2020-09-12T12:32:19Z</time>
</trkpt>
<trkpt lat="61.113511" lon="25.995896">
<time>2020-09-12T12:32:20Z</time>
</trkpt>
<trkpt lat="61.113555" lon="25.99575">
<time>2020-09-12T12:32:21Z</time>
</trkpt>
<trkpt lat="61.113596" lon="25.995603">
<time>2020-09-12T12:32:22Z</time>
</trkpt>
<trkpt lat="61.113638" lon="25.995455">
<time>2020-09-12T12:32:23Z</time>
</trkpt>
<trkpt lat="61.113678" lon="25.995303">
<time>2020-09-12T12:32:24Z</time>
</trkpt>
<trkpt lat="61.113723" lon="25.995155">
<time>2020-09-12T12:32:25Z</time>
</trkpt>
<trkpt lat="61.113765" lon="25.995003">
<time>2020-09-12T12:32:26Z</time>
</trkpt>
<trkpt lat="61.113788" lon="25.994853">
<time>2020-09-12T12:32:27Z</time>
</trkpt>
<trkpt lat="61.113788" lon="25.994711">
<time>2020-09-12T12:32:28Z</time>
</trkpt>
<trkpt lat="61.113763" lon="25.994591">
<time>2020-09-12T12:32:29Z</time>
</trkpt>
<trkpt lat="61.11372" lon="25.994486">
<time>2020-09-12T12:32:30Z</time>
</trkpt>
<trkpt lat="61.113663" lon="25.994391">
<time>2020-09-12T12:32:31Z</time>
</trkpt>
<trkpt lat="61.113598" lon="25.994301">
<time>2020-09-12T12:32:32Z</time>
</trkpt>
<trkpt lat="61.11353" lon="25.994211">
<time>2020-09-12T12:32:33Z</time>
</trkpt>
<trkpt lat="61.113455" lon="25.994126">
<time>2020-09-12T12:32:34Z</time>
</trkpt>
<trkpt lat="61.113383" lon="25.994028">
<time>2020-09-12T12:32:35Z</time>
</trkpt>
<trkpt lat="61.113316" lon="25.993933">
<time>2020-09-12T12:32:36Z</time>
</trkpt>
<trkpt lat="61.113248" lon="25.993845">
<time>2020-09-12T12:32:37Z</time>
</trkpt>
<trkpt lat="61.113181" lon="25.993765">
<time>2020-09-12T12:32:38Z</time>
</trkpt>
<trkpt lat="61.113121" lon="25.993686">
<time>2020-09-12T12:32:39Z</time>
</trkpt>
<trkpt lat="61.113063" lon="25.99361">
<time>2020-09-12T12:32:40Z</time>
</trkpt>
<trkpt lat="61.113008" lon="25.993543">
<time>2020-09-12T12:32:41Z</time>
</trkpt>
<trkpt lat="61.112956" lon="25.9935">
<time>2020-09-12T12:32:42Z</time>
</trkpt>
<trkpt lat="61.112913" lon="25.993493">
<time>2020-09-12T12:32:43Z</time>
</trkpt>
<trkpt lat="61.112876" lon="25.993516">
<time>2020-09-12T12:32:44Z</time>
</trkpt>
<trkpt lat="61.112841" lon="25.993538">
<time>2020-09-12T12:32:45Z</time>
</trkpt>
<trkpt lat="61.112806" lon="25.993548">
<time>2020-09-12T12:32:46Z</time>
</trkpt>
<trkpt lat="61.112763" lon="25.99355">
<time>2020-09-12T12:32:47Z</time>
</trkpt>
<trkpt lat="61.112733" lon="25.99356">
<time>2020-09-12T12:32:48Z</time>
</trkpt>
<trkpt lat="61.112691" lon="25.993561">
<time>2020-09-12T12:32:49Z</time>
</trkpt>
<trkpt lat="61.112661" lon="25.993565">
<time>2020-09-12T12:32:50Z</time>
</trkpt>
<trkpt lat="61.112635" lon="25.993588">
<time>2020-09-12T12:32:51Z</time>
</trkpt>
<trkpt lat="61.112616" lon="25.99361">
<time>2020-09-12T12:32:52Z</time>
</trkpt>
<trkpt lat="61.1126" lon="25.993645">
<time>2020-09-12T12:32:53Z</time>
</trkpt>
<trkpt lat="61.112583" lon="25.993686">
<time>2020-09-12T12:32:54Z</time>
</trkpt>
<trkpt lat="61.112561" lon="25.993731">
<time>2020-09-12T12:32:55Z</time>
</trkpt>
<trkpt lat="61.112538" lon="25.993785">
<time>2020-09-12T12:32:56Z</time>
</trkpt>
<trkpt lat="61.112516" lon="25.993843">
<time>2020-09-12T12:32:57Z</time>
</trkpt>
<trkpt lat="61.112485" lon="25.993903">
<time>2020-09-12T12:32:58Z</time>
</trkpt>
<trkpt lat="61.112463" lon="25.99397">
<time>2020-09-12T12:32:59Z</time>
</trkpt>
<trkpt lat="61.112443" lon="25.994048">
<time>2020-09-12T12:33:00Z</time>
</trkpt>
<trkpt lat="61.112418" lon="25.99414">
<time>2020-09-12T12:33:01Z</time>
</trkpt>
<trkpt lat="61.112386" lon="25.99424">
<time>2020-09-12T12:33:02Z</time>
</trkpt>
<trkpt lat="61.112365" lon="25.994306">
<time>2020-09-12T12:33:03Z</time>
</trkpt>
<trkpt lat="61.112336" lon="25.994386">
<time>2020-09-12T12:33:04Z</time>
</trkpt>
<trkpt lat="61.112306" lon="25.99446">
<time>2020-09-12T12:33:05Z</time>
</trkpt>
<trkpt lat="61.112271" lon="25.99453">
<time>2020-09-12T12:33:06Z</time>
</trkpt>
<trkpt lat="61.112241" lon="25.994603">
<time>2020-09-12T12:33:07Z</time>
</trkpt>
<trkpt lat="61.112211" lon="25.994668">
<time>2020-09-12T12:33:08Z</time>
</trkpt>
<trkpt lat="61.11218" lon="25.99473">
<time>2020-09-12T12:33:09Z</time>
</trkpt>
<trkpt lat="61.112143" lon="25.994776">
<time>2020-09-12T12:33:10Z</time>
</trkpt>
<trkpt lat="61.112106" lon="25.9948">
<time>2020-09-12T12:33:11Z</time>
</trkpt>
<trkpt lat="61.11206" lon="25.994818">
<time>2020-09-12T12:33:12Z</time>
</trkpt>
<trkpt lat="61.112031" lon="25.994841">
<time>2020-09-12T12:33:13Z</time>
</trkpt>
<trkpt lat="61.111996" lon="25.994865">
<time>2020-09-12T12:33:14Z</time>
</trkpt>
<trkpt lat="61.111961" lon="25.994873">
<time>2020-09-12T12:33:15Z</time>
</trkpt>
<trkpt lat="61.111933" lon="25.994861">
<time>2020-09-12T12:33:16Z</time>
</trkpt>
<trkpt lat="61.111908" lon="25.994836">
<time>2020-09-12T12:33:17Z</time>
</trkpt>
<trkpt lat="61.111888" lon="25.994796">
<time>2020-09-12T12:33:18Z</time>
</trkpt>
<trkpt lat="61.111876" lon="25.99475">
<time>2020-09-12T12:33:19Z</time>
</trkpt>
<trkpt lat="61.111865" lon="25.9947">
<time>2020-09-12T12:33:20Z</time>
</trkpt>
<trkpt lat="61.111855" lon="25.994655">
<time>2020-09-12T12:33:21Z</time>
</trkpt>
<trkpt lat="61.111848" lon="25.994606">
<time>2020-09-12T12:33:22Z</time>
</trkpt>
<trkpt lat="61.111851" lon="25.994576">
<time>2020-09-12T12:33:23Z</time>
</trkpt>
<trkpt lat="61.111861" lon="25.994548">
<time>2020-09-12T12:33:24Z</time>
</trkpt>
<trkpt lat="61.111875" lon="25.994521">
<time>2020-09-12T12:33:25Z</time>
</trkpt>
<trkpt lat="61.111891" lon="25.994498">
<time>2020-09-12T12:33:26Z</time>
</trkpt>
<trkpt lat="61.111916" lon="25.994481">
<time>2020-09-12T12:33:27Z</time>
</trkpt>
<trkpt lat="61.111936" lon="25.99448">
<time>2020-09-12T12:33:28Z</time>
</trkpt>
<trkpt lat="61.111965" lon="25.99449">
<time>2020-09-12T12:33:29Z</time>
</trkpt>
<trkpt lat="61.111991" lon="25.994495">
<time>2020-09-12T12:33:30Z</time>
</trkpt>
<trkpt lat="61.11202" lon="25.994506">
<time>2020-09-12T12:33:31Z</time>
</trkpt>
<trkpt lat="61.112045" lon="25.994483">
<time>2020-09-12T12:33:32Z</time>
</trkpt>
<trkpt lat="61.11207" lon="25.994445">
<time>2020-09-12T12:33:33Z</time>
</trkpt>
<trkpt lat="61.112088" lon="25.994391">
<time>2020-09-12T12:33:34Z</time>
</trkpt>
<trkpt lat="61.112118" lon="25.994333">
<time>2020-09-12T12:33:35Z</time>
</trkpt>
<trkpt lat="61.11215" lon="25.994268">
<time>2020-09-12T12:33:36Z</time>
</trkpt>
<trkpt lat="61.112171" lon="25.99419">
<time>2020-09-12T12:33:37Z</time>
</trkpt>
<trkpt lat="61.112196" lon="25.99411">
<time>2020-09-12T12:33:38Z</time>
</trkpt>
<trkpt lat="61.112218" lon="25.994028">
<time>2020-09-12T12:33:39Z</time>
</trkpt>
<trkpt lat="61.112246" lon="25.993956">
<time>2020-09-12T12:33:40Z</time>
</trkpt>
<trkpt lat="61.112278" lon="25.993885">
<time>2020-09-12T12:33:41Z</time>
</trkpt>
<trkpt lat="61.112308" lon="25.993811">
<time>2020-09-12T12:33:42Z</time>
</trkpt>
<trkpt lat="61.112331" lon="25.993736">
<time>2020-09-12T12:33:43Z</time>
</trkpt>
<trkpt lat="61.112353" lon="25.993666">
<time>2020-09-12T12:33:44Z</time>
</trkpt>
<trkpt lat="61.112381" lon="25.993595">
<time>2020-09-12T12:33:45Z</time>
</trkpt>
<trkpt lat="61.112413" lon="25.993533">
<time>2020-09-12T12:33:46Z</time>
</trkpt>
<trkpt lat="61.112448" lon="25.993476">
<time>2020-09-12T12:33:47Z</time>
</trkpt>
<trkpt lat="61.112483" lon="25.993418">
<time>2020-09-12T12:33:48Z</time>
</trkpt>
<trkpt lat="61.112515" lon="25.993351">
<time>2020-09-12T12:33:49Z</time>
</trkpt>
<trkpt lat="61.112538" lon="25.993285">
<time>2020-09-12T12:33:50Z</time>
</trkpt>
<trkpt lat="61.112558" lon="25.99322">
<time>2020-09-12T12:33:51Z</time>
</trkpt>
<trkpt lat="61.112568" lon="25.99317">
<time>2020-09-12T12:33:52Z</time>
</trkpt>
<trkpt lat="61.112576" lon="25.99313">
<time>2020-09-12T12:33:53Z</time>
</trkpt>
<trkpt lat="61.11258" lon="25.993091">
<time>2020-09-12T12:33:54Z</time>
</trkpt>
<trkpt lat="61.112575" lon="25.993048">
<time>2020-09-12T12:33:55Z</time>
</trkpt>
<trkpt lat="61.112561" lon="25.993011">
<time>2020-09-12T12:33:56Z</time>
</trkpt>
<trkpt lat="61.112543" lon="25.992981">
<time>2020-09-12T12:33:57Z</time>
</trkpt>
<trkpt lat="61.11252" lon="25.992951">
<time>2020-09-12T12:33:58Z</time>
</trkpt>
<trkpt lat="61.112491" lon="25.992913">
<time>2020-09-12T12:33:59Z</time>
</trkpt>
<trkpt lat="61.112456" lon="25.992866">
<time>2020-09-12T12:34:00Z</time>
</trkpt>
<trkpt lat="61.112416" lon="25.992815">
<time>2020-09-12T12:34:01Z</time>
</trkpt>
<trkpt lat="61.112368" lon="25.992745">
<time>2020-09-12T12:34:02Z</time>
</trkpt>
<trkpt lat="61.112326" lon="25.992681">
<time>2020-09-12T12:34:03Z</time>
</trkpt>
<trkpt lat="61.112281" lon="25.992616">
<time>2020-09-12T12:34:04Z</time>
</trkpt>
<trkpt lat="61.112233" lon="25.99255">
<time>2020-09-12T12:34:05Z</time>
</trkpt>
<trkpt lat="61.112183" lon="25.99248">
<time>2020-09-12T12:34:06Z</time>
</trkpt>
<trkpt lat="61.11213" lon="25.992405">
<time>2020-09-12T12:34:07Z</time>
</trkpt>
<trkpt lat="61.112075" lon="25.992326">
<time>2020-09-12T12:34:08Z</time>
</trkpt>
<trkpt lat="61.11202" lon="25.992245">
<time>2020-09-12T12:34:09Z</time>
</trkpt>
<trkpt lat="61.111961" lon="25.992165">
<time>2020-09-12T12:34:10Z</time>
</trkpt>
<trkpt lat="61.111905" lon="25.992081">
<time>2020-09-12T12:34:11Z</time>
</trkpt>
<trkpt lat="61.111845" lon="25.991998">
<time>2020-09-12T12:34:12Z</time>
</trkpt>
<trkpt lat="61.111786" lon="25.991913">
<time>2020-09-12T12:34:13Z</time>
</trkpt>
<trkpt lat="61.111725" lon="25.991821">
<time>2020-09-12T12:34:14Z</time>
</trkpt>
<trkpt lat="61.111663" lon="25.991735">
<time>2020-09-12T12:34:15Z</time>
</trkpt>
<trkpt lat="61.1116" lon="25.991643">
<time>2020-09-12T12:34:16Z</time>
</trkpt>
<trkpt lat="61.111538" lon="25.991555">
<time>2020-09-12T12:34:17Z</time>
</trkpt>
<trkpt lat="61.111486" lon="25.991481">
<time>2020-09-12T12:34:18Z</time>
</trkpt>
<trkpt lat="61.111421" lon="25.991391">
<time>2020-09-12T12:34:19Z</time>
</trkpt>
<trkpt lat="61.111358" lon="25.9913">
<time>2020-09-12T12:34:20Z</time>
</trkpt>
<trkpt lat="61.111293" lon="25.991205">
<time>2020-09-12T12:34:21Z</time>
</trkpt>
<trkpt lat="61.11123" lon="25.991113">
<time>2020-09-12T12:34:22Z</time>
</trkpt>
<trkpt lat="61.111165" lon="25.99102">
<time>2020-09-12T12:34:23Z</time>
</trkpt>
<trkpt lat="61.111086" lon="25.990905">
<time>2020-09-12T12:34:24Z</time>
</trkpt>
<trkpt lat="61.11102" lon="25.99081">
<time>2020-09-12T12:34:25Z</time>
</trkpt>
<trkpt lat="61.110955" lon="25.990716">
<time>2020-09-12T12:34:26Z</time>
</trkpt>
<trkpt lat="61.11089" lon="25.990621">
<time>2020-09-12T12:34:27Z</time>
</trkpt>
<trkpt lat="61.110823" lon="25.990526">
<time>2020-09-12T12:34:28Z</time>
</trkpt>
<trkpt lat="61.110758" lon="25.99043">
<time>2020-09-12T12:34:29Z</time>
</trkpt>
<trkpt lat="61.110695" lon="25.990335">
<time>2020-09-12T12:34:30Z</time>
</trkpt>
<trkpt lat="61.110635" lon="25.99024">
<time>2020-09-12T12:34:31Z</time>
</trkpt>
<trkpt lat="61.110576" lon="25.990143">
<time>2020-09-12T12:34:32Z</time>
</trkpt>
<trkpt lat="61.11052" lon="25.990043">
<time>2020-09-12T12:34:33Z</time>
</trkpt>
<trkpt lat="61.110463" lon="25.989941">
<time>2020-09-12T12:34:34Z</time>
</trkpt>
<trkpt lat="61.11041" lon="25.989843">
<time>2020-09-12T12:34:35Z</time>
</trkpt>
<trkpt lat="61.110355" lon="25.989751">
<time>2020-09-12T12:34:36Z</time>
</trkpt>
<trkpt lat="61.110296" lon="25.989666">
<time>2020-09-12T12:34:37Z</time>
</trkpt>
<trkpt lat="61.110238" lon="25.989585">
<time>2020-09-12T12:34:38Z</time>
</trkpt>
<trkpt lat="61.110178" lon="25.989506">
<time>2020-09-12T12:34:39Z</time>
</trkpt>
<trkpt lat="61.110116" lon="25.989431">
<time>2020-09-12T12:34:40Z</time>
</trkpt>
<trkpt lat="61.110058" lon="25.989356">
<time>2020-09-12T12:34:41Z</time>
</trkpt>
<trkpt lat="61.110001" lon="25.98928">
<time>2020-09-12T12:34:42Z</time>
</trkpt>
<trkpt lat="61.109945" lon="25.989198">
<time>2020-09-12T12:34:43Z</time>
</trkpt>
<trkpt lat="61.109891" lon="25.98912">
<time>2020-09-12T12:34:44Z</time>
</trkpt>
<trkpt lat="61.109838" lon="25.98904">
<time>2020-09-12T12:34:45Z</time>
</trkpt>
<trkpt lat="61.109783" lon="25.988961">
<time>2020-09-12T12:34:46Z</time>
</trkpt>
<trkpt lat="61.10973" lon="25.988881">
<time>2020-09-12T12:34:47Z</time>
</trkpt>
<trkpt lat="61.109678" lon="25.988805">
<time>2020-09-12T12:34:48Z</time>
</trkpt>
<trkpt lat="61.109626" lon="25.988726">
<time>2020-09-12T12:34:49Z</time>
</trkpt>
<trkpt lat="61.109573" lon="25.988646">
<time>2020-09-12T12:34:50Z</time>
</trkpt>
<trkpt lat="61.109518" lon="25.988568">
<time>2020-09-12T12:34:51Z</time>
</trkpt>
<trkpt lat="61.109465" lon="25.988488">
<time>2020-09-12T12:34:52Z</time>
</trkpt>
<trkpt lat="61.109413" lon="25.988411">
<time>2020-09-12T12:34:53Z</time>
</trkpt>
<trkpt lat="61.10936" lon="25.988333">
<time>2020-09-12T12:34:54Z</time>
</trkpt>
<trkpt lat="61.109305" lon="25.988256">
<time>2020-09-12T12:34:55Z</time>
</trkpt>
<trkpt lat="61.109248" lon="25.988178">
<time>2020-09-12T12:34:56Z</time>
</trkpt>
<trkpt lat="61.109193" lon="25.988095">
<time>2020-09-12T12:34:57Z</time>
</trkpt>
<trkpt lat="61.10914" lon="25.98801">
<time>2020-09-12T12:34:58Z</time>
</trkpt>
<trkpt lat="61.10909" lon="25.987923">
<time>2020-09-12T12:34:59Z</time>
</trkpt>
<trkpt lat="61.109038" lon="25.987838">
<time>2020-09-12T12:35:00Z</time>
</trkpt>
<trkpt lat="61.108985" lon="25.987753">
<time>2020-09-12T12:35:01Z</time>
</trkpt>
<trkpt lat="61.108931" lon="25.987671">
<time>2020-09-12T12:35:02Z</time>
</trkpt>
<trkpt lat="61.108876" lon="25.987593">
<time>2020-09-12T12:35:03Z</time>
</trkpt>
<trkpt lat="61.108823" lon="25.987515">
<time>2020-09-12T12:35:04Z</time>
</trkpt>
<trkpt lat="61.10877" lon="25.987436">
<time>2020-09-12T12:35:05Z</time>
</trkpt>
<trkpt lat="61.10873" lon="25.987375">
<time>2020-09-12T12:35:06Z</time>
</trkpt>
<trkpt lat="61.108665" lon="25.98728">
<time>2020-09-12T12:35:07Z</time>
</trkpt>
<trkpt lat="61.108621" lon="25.987216">
<time>2020-09-12T12:35:08Z</time>
</trkpt>
<trkpt lat="61.10857" lon="25.987138">
<time>2020-09-12T12:35:09Z</time>
</trkpt>
<trkpt lat="61.108516" lon="25.987061">
<time>2020-09-12T12:35:10Z</time>
</trkpt>
<trkpt lat="61.108463" lon="25.98699">
<time>2020-09-12T12:35:11Z</time>
</trkpt>
<trkpt lat="61.1084" lon="25.986908">
<time>2020-09-12T12:35:12Z</time>
</trkpt>
<trkpt lat="61.108358" lon="25.986853">
<time>2020-09-12T12:35:13Z</time>
</trkpt>
<trkpt lat="61.108306" lon="25.986781">
<time>2020-09-12T12:35:14Z</time>
</trkpt>
<trkpt lat="61.108256" lon="25.986708">
<time>2020-09-12T12:35:15Z</time>
</trkpt>
<trkpt lat="61.108206" lon="25.98663">
<time>2020-09-12T12:35:16Z</time>
</trkpt>
<trkpt lat="61.108153" lon="25.986555">
<time>2020-09-12T12:35:17Z</time>
</trkpt>
<trkpt lat="61.108101" lon="25.986483">
<time>2020-09-12T12:35:18Z</time>
</trkpt>
<trkpt lat="61.10805" lon="25.986415">
<time>2020-09-12T12:35:19Z</time>
</trkpt>
<trkpt lat="61.107996" lon="25.98635">
<time>2020-09-12T12:35:20Z</time>
</trkpt>
<trkpt lat="61.107935" lon="25.986266">
<time>2020-09-12T12:35:21Z</time>
</trkpt>
<trkpt lat="61.107885" lon="25.986193">
<time>2020-09-12T12:35:22Z</time>
</trkpt>
<trkpt lat="61.107845" lon="25.986131">
<time>2020-09-12T12:35:23Z</time>
</trkpt>
<trkpt lat="61.107798" lon="25.986056">
<time>2020-09-12T12:35:24Z</time>
</trkpt>
<trkpt lat="61.10775" lon="25.98598">
<time>2020-09-12T12:35:25Z</time>
</trkpt>
<trkpt lat="61.1077" lon="25.985906">
<time>2020-09-12T12:35:26Z</time>
</trkpt>
<trkpt lat="61.107641" lon="25.985815">
<time>2020-09-12T12:35:27Z</time>
</trkpt>
<trkpt lat="61.107603" lon="25.985748">
<time>2020-09-12T12:35:28Z</time>
</trkpt>
<trkpt lat="61.10756" lon="25.98566">
<time>2020-09-12T12:35:29Z</time>
</trkpt>
<trkpt lat="61.107518" lon="25.985568">
<time>2020-09-12T12:35:30Z</time>
</trkpt>
<trkpt lat="61.107476" lon="25.985481">
<time>2020-09-12T12:35:31Z</time>
</trkpt>
<trkpt lat="61.107418" lon="25.985386">
<time>2020-09-12T12:35:32Z</time>
</trkpt>
<trkpt lat="61.107366" lon="25.985325">
<time>2020-09-12T12:35:33Z</time>
</trkpt>
<trkpt lat="61.10731" lon="25.98527">
<time>2020-09-12T12:35:34Z</time>
</trkpt>
<trkpt lat="61.107251" lon="25.98521">
<time>2020-09-12T12:35:35Z</time>
</trkpt>
<trkpt lat="61.107201" lon="25.98515">
<time>2020-09-12T12:35:36Z</time>
</trkpt>
<trkpt lat="61.107155" lon="25.985086">
<time>2020-09-12T12:35:37Z</time>
</trkpt>
<trkpt lat="61.10711" lon="25.985021">
<time>2020-09-12T12:35:38Z</time>
</trkpt>
<trkpt lat="61.107063" lon="25.984951">
<time>2020-09-12T12:35:39Z</time>
</trkpt>
<trkpt lat="61.107015" lon="25.984871">
<time>2020-09-12T12:35:40Z</time>
</trkpt>
<trkpt lat="61.106961" lon="25.984783">
<time>2020-09-12T12:35:41Z</time>
</trkpt>
<trkpt lat="61.106901" lon="25.984691">
<time>2020-09-12T12:35:42Z</time>
</trkpt>
<trkpt lat="61.106838" lon="25.984598">
<time>2020-09-12T12:35:43Z</time>
</trkpt>
<trkpt lat="61.106776" lon="25.984505">
<time>2020-09-12T12:35:44Z</time>
</trkpt>
<trkpt lat="61.106715" lon="25.984408">
<time>2020-09-12T12:35:45Z</time>
</trkpt>
<trkpt lat="61.106656" lon="25.984305">
<time>2020-09-12T12:35:46Z</time>
</trkpt>
<trkpt lat="61.106598" lon="25.984201">
<time>2020-09-12T12:35:47Z</time>
</trkpt>
<trkpt lat="61.106536" lon="25.984101">
<time>2020-09-12T12:35:48Z</time>
</trkpt>
<trkpt lat="61.106473" lon="25.983998">
<time>2020-09-12T12:35:49Z</time>
</trkpt>
<trkpt lat="61.106408" lon="25.983891">
<time>2020-09-12T12:35:50Z</time>
</trkpt>
<trkpt lat="61.106343" lon="25.98378">
<time>2020-09-12T12:35:51Z</time>
</trkpt>
<trkpt lat="61.106276" lon="25.983675">
<time>2020-09-12T12:35:52Z</time>
</trkpt>
<trkpt lat="61.106213" lon="25.98359">
<time>2020-09-12T12:35:53Z</time>
</trkpt>
<trkpt lat="61.106153" lon="25.983518">
<time>2020-09-12T12:35:54Z</time>
</trkpt>
<trkpt lat="61.106101" lon="25.98345">
<time>2020-09-12T12:35:55Z</time>
</trkpt>
<trkpt lat="61.106053" lon="25.983376">
<time>2020-09-12T12:35:56Z</time>
</trkpt>
<trkpt lat="61.106008" lon="25.983306">
<time>2020-09-12T12:35:57Z</time>
</trkpt>
<trkpt lat="61.105961" lon="25.98324">
<time>2020-09-12T12:35:58Z</time>
</trkpt>
<trkpt lat="61.105915" lon="25.983173">
<time>2020-09-12T12:35:59Z</time>
</trkpt>
<trkpt lat="61.105865" lon="25.983103">
<time>2020-09-12T12:36:00Z</time>
</trkpt>
<trkpt lat="61.10581" lon="25.983035">
<time>2020-09-12T12:36:01Z</time>
</trkpt>
<trkpt lat="61.105755" lon="25.982963">
<time>2020-09-12T12:36:02Z</time>
</trkpt>
<trkpt lat="61.1057" lon="25.982911">
<time>2020-09-12T12:36:03Z</time>
</trkpt>
<trkpt lat="61.105648" lon="25.982893">
<time>2020-09-12T12:36:04Z</time>
</trkpt>
<trkpt lat="61.1056" lon="25.982906">
<time>2020-09-12T12:36:05Z</time>
</trkpt>
<trkpt lat="61.105548" lon="25.98295">
<time>2020-09-12T12:36:06Z</time>
</trkpt>
<trkpt lat="61.105503" lon="25.983016">
<time>2020-09-12T12:36:07Z</time>
</trkpt>
<trkpt lat="61.10546" lon="25.98309">
<time>2020-09-12T12:36:08Z</time>
</trkpt>
<trkpt lat="61.105426" lon="25.983185">
<time>2020-09-12T12:36:09Z</time>
</trkpt>
<trkpt lat="61.105396" lon="25.983291">
<time>2020-09-12T12:36:10Z</time>
</trkpt>
<trkpt lat="61.105373" lon="25.983426">
<time>2020-09-12T12:36:11Z</time>
</trkpt>
<trkpt lat="61.105355" lon="25.983551">
<time>2020-09-12T12:36:12Z</time>
</trkpt>
<trkpt lat="61.105351" lon="25.983668">
<time>2020-09-12T12:36:13Z</time>
</trkpt>
<trkpt lat="61.105355" lon="25.98378">
<time>2020-09-12T12:36:14Z</time>
</trkpt>
<trkpt lat="61.105363" lon="25.983893">
<time>2020-09-12T12:36:15Z</time>
</trkpt>
<trkpt lat="61.105371" lon="25.984006">
<time>2020-09-12T12:36:16Z</time>
</trkpt>
<trkpt lat="61.10538" lon="25.98411">
<time>2020-09-12T12:36:17Z</time>
</trkpt>
<trkpt lat="61.105396" lon="25.984206">
<time>2020-09-12T12:36:18Z</time>
</trkpt>
<trkpt lat="61.105415" lon="25.9843">
<time>2020-09-12T12:36:19Z</time>
</trkpt>
<trkpt lat="61.10543" lon="25.984393">
<time>2020-09-12T12:36:20Z</time>
</trkpt>
<trkpt lat="61.105441" lon="25.984491">
<time>2020-09-12T12:36:21Z</time>
</trkpt>
<trkpt lat="61.105448" lon="25.984575">
<time>2020-09-12T12:36:22Z</time>
</trkpt>
<trkpt lat="61.105453" lon="25.98468">
<time>2020-09-12T12:36:23Z</time>
</trkpt>
<trkpt lat="61.10545" lon="25.984783">
<time>2020-09-12T12:36:24Z</time>
</trkpt>
<trkpt lat="61.105441" lon="25.984881">
<time>2020-09-12T12:36:25Z</time>
</trkpt>
<trkpt lat="61.105416" lon="25.984971">
<time>2020-09-12T12:36:26Z</time>
</trkpt>
<trkpt lat="61.105386" lon="25.985026">
<time>2020-09-12T12:36:27Z</time>
</trkpt>
<trkpt lat="61.105355" lon="25.985071">
<time>2020-09-12T12:36:28Z</time>
</trkpt>
<trkpt lat="61.105321" lon="25.98511">
<time>2020-09-12T12:36:29Z</time>
</trkpt>
<trkpt lat="61.105288" lon="25.98514">
<time>2020-09-12T12:36:30Z</time>
</trkpt>
<trkpt lat="61.105255" lon="25.985168">
<time>2020-09-12T12:36:31Z</time>
</trkpt>
<trkpt lat="61.105225" lon="25.985191">
<time>2020-09-12T12:36:32Z</time>
</trkpt>
<trkpt lat="61.105198" lon="25.985201">
<time>2020-09-12T12:36:33Z</time>
</trkpt>
<trkpt lat="61.105176" lon="25.985186">
<time>2020-09-12T12:36:34Z</time>
</trkpt>
<trkpt lat="61.105156" lon="25.985151">
<time>2020-09-12T12:36:35Z</time>
</trkpt>
<trkpt lat="61.105136" lon="25.985101">
<time>2020-09-12T12:36:36Z</time>
</trkpt>
<trkpt lat="61.105115" lon="25.985046">
<time>2020-09-12T12:36:37Z</time>
</trkpt>
<trkpt lat="61.105093" lon="25.984985">
<time>2020-09-12T12:36:38Z</time>
</trkpt>
<trkpt lat="61.10507" lon="25.984918">
<time>2020-09-12T12:36:39Z</time>
</trkpt>
<trkpt lat="61.105045" lon="25.984848">
<time>2020-09-12T12:36:40Z</time>
</trkpt>
<trkpt lat="61.105018" lon="25.984776">
<time>2020-09-12T12:36:41Z</time>
</trkpt>
<trkpt lat="61.104991" lon="25.98471">
<time>2020-09-12T12:36:42Z</time>
</trkpt>
<trkpt lat="61.104963" lon="25.984645">
<time>2020-09-12T12:36:43Z</time>
</trkpt>
<trkpt lat="61.104935" lon="25.984586">
<time>2020-09-12T12:36:44Z</time>
</trkpt>
<trkpt lat="61.104905" lon="25.984538">
<time>2020-09-12T12:36:45Z</time>
</trkpt>
<trkpt lat="61.104875" lon="25.9845">
<time>2020-09-12T12:36:46Z</time>
</trkpt>
<trkpt lat="61.104843" lon="25.984471">
<time>2020-09-12T12:36:47Z</time>
</trkpt>
<trkpt lat="61.104813" lon="25.984448">
<time>2020-09-12T12:36:48Z</time>
</trkpt>
<trkpt lat="61.10478" lon="25.984425">
<time>2020-09-12T12:36:49Z</time>
</trkpt>
<trkpt lat="61.104748" lon="25.984406">
<time>2020-09-12T12:36:50Z</time>
</trkpt>
<trkpt lat="61.10472" lon="25.98439">
<time>2020-09-12T12:36:51Z</time>
</trkpt>
<trkpt lat="61.104691" lon="25.984375">
<time>2020-09-12T12:36:52Z</time>
</trkpt>
<trkpt lat="61.10466" lon="25.98436">
<time>2020-09-12T12:36:53Z</time>
</trkpt>
<trkpt lat="61.104628" lon="25.984343">
<time>2020-09-12T12:36:54Z</time>
</trkpt>
<trkpt lat="61.104593" lon="25.984323">
<time>2020-09-12T12:36:55Z</time>
</trkpt>
<trkpt lat="61.10456" lon="25.984305">
<time>2020-09-12T12:36:56Z</time>
</trkpt>
<trkpt lat="61.104525" lon="25.98428">
<time>2020-09-12T12:36:57Z</time>
</trkpt>
<trkpt lat="61.104488" lon="25.984253">
<time>2020-09-12T12:36:58Z</time>
</trkpt>
<trkpt lat="61.10445" lon="25.984221">
<time>2020-09-12T12:36:59Z</time>
</trkpt>
<trkpt lat="61.104411" lon="25.984188">
<time>2020-09-12T12:37:00Z</time>
</trkpt>
<trkpt lat="61.104373" lon="25.984153">
<time>2020-09-12T12:37:01Z</time>
</trkpt>
<trkpt lat="61.104336" lon="25.984113">
<time>2020-09-12T12:37:02Z</time>
</trkpt>
<trkpt lat="61.104298" lon="25.984071">
<time>2020-09-12T12:37:03Z</time>
</trkpt>
<trkpt lat="61.104258" lon="25.984028">
<time>2020-09-12T12:37:04Z</time>
</trkpt>
<trkpt lat="61.104216" lon="25.983986">
<time>2020-09-12T12:37:05Z</time>
</trkpt>
<trkpt lat="61.10417" lon="25.983941">
<time>2020-09-12T12:37:06Z</time>
</trkpt>
<trkpt lat="61.10412" lon="25.983898">
<time>2020-09-12T12:37:07Z</time>
</trkpt>
<trkpt lat="61.104066" lon="25.983865">
<time>2020-09-12T12:37:08Z</time>
</trkpt>
<trkpt lat="61.10401" lon="25.98384">
<time>2020-09-12T12:37:09Z</time>
</trkpt>
<trkpt lat="61.103951" lon="25.983821">
<time>2020-09-12T12:37:10Z</time>
</trkpt>
<trkpt lat="61.103893" lon="25.983811">
<time>2020-09-12T12:37:11Z</time>
</trkpt>
<trkpt lat="61.103833" lon="25.983801">
<time>2020-09-12T12:37:12Z</time>
</trkpt>
<trkpt lat="61.103773" lon="25.98379">
<time>2020-09-12T12:37:13Z</time>
</trkpt>
<trkpt lat="61.103713" lon="25.983771">
<time>2020-09-12T12:37:14Z</time>
</trkpt>
<trkpt lat="61.103651" lon="25.983741">
<time>2020-09-12T12:37:15Z</time>
</trkpt>
<trkpt lat="61.103591" lon="25.983711">
<time>2020-09-12T12:37:16Z</time>
</trkpt>
<trkpt lat="61.10353" lon="25.983678">
<time>2020-09-12T12:37:17Z</time>
</trkpt>
<trkpt lat="61.103466" lon="25.983648">
<time>2020-09-12T12:37:18Z</time>
</trkpt>
<trkpt lat="61.103405" lon="25.983621">
<time>2020-09-12T12:37:19Z</time>
</trkpt>
<trkpt lat="61.103343" lon="25.983591">
<time>2020-09-12T12:37:20Z</time>
</trkpt>
<trkpt lat="61.103283" lon="25.98356">
<time>2020-09-12T12:37:21Z</time>
</trkpt>
<trkpt lat="61.103225" lon="25.983531">
<time>2020-09-12T12:37:22Z</time>
</trkpt>
<trkpt lat="61.103163" lon="25.983501">
<time>2020-09-12T12:37:23Z</time>
</trkpt>
<trkpt lat="61.103103" lon="25.983476">
<time>2020-09-12T12:37:24Z</time>
</trkpt>
<trkpt lat="61.103041" lon="25.983451">
<time>2020-09-12T12:37:25Z</time>
</trkpt>
<trkpt lat="61.102983" lon="25.983423">
<time>2020-09-12T12:37:26Z</time>
</trkpt>
<trkpt lat="61.102926" lon="25.98339">
<time>2020-09-12T12:37:27Z</time>
</trkpt>
<trkpt lat="61.10287" lon="25.983355">
<time>2020-09-12T12:37:28Z</time>
</trkpt>
<trkpt lat="61.10281" lon="25.983335">
<time>2020-09-12T12:37:29Z</time>
</trkpt>
<trkpt lat="61.102751" lon="25.983328">
<time>2020-09-12T12:37:30Z</time>
</trkpt>
<trkpt lat="61.1027" lon="25.98334">
<time>2020-09-12T12:37:31Z</time>
</trkpt>
<trkpt lat="61.102653" lon="25.98336">
<time>2020-09-12T12:37:32Z</time>
</trkpt>
<trkpt lat="61.102606" lon="25.983385">
<time>2020-09-12T12:37:33Z</time>
</trkpt>
<trkpt lat="61.10256" lon="25.98342">
<time>2020-09-12T12:37:34Z</time>
</trkpt>
<trkpt lat="61.10251" lon="25.983455">
<time>2020-09-12T12:37:35Z</time>
</trkpt>
<trkpt lat="61.102458" lon="25.983488">
<time>2020-09-12T12:37:36Z</time>
</trkpt>
<trkpt lat="61.10241" lon="25.983523">
<time>2020-09-12T12:37:37Z</time>
</trkpt>
<trkpt lat="61.102363" lon="25.983568">
<time>2020-09-12T12:37:38Z</time>
</trkpt>
<trkpt lat="61.102315" lon="25.983615">
<time>2020-09-12T12:37:39Z</time>
</trkpt>
<trkpt lat="61.102266" lon="25.983666">
<time>2020-09-12T12:37:40Z</time>
</trkpt>
<trkpt lat="61.102218" lon="25.983715">
<time>2020-09-12T12:37:41Z</time>
</trkpt>
<trkpt lat="61.102168" lon="25.983758">
<time>2020-09-12T12:37:42Z</time>
</trkpt>
<trkpt lat="61.102121" lon="25.983803">
<time>2020-09-12T12:37:43Z</time>
</trkpt>
<trkpt lat="61.102075" lon="25.983868">
<time>2020-09-12T12:37:44Z</time>
</trkpt>
<trkpt lat="61.102033" lon="25.98394">
<time>2020-09-12T12:37:45Z</time>
</trkpt>
<trkpt lat="61.101993" lon="25.984026">
<time>2020-09-12T12:37:46Z</time>
</trkpt>
<trkpt lat="61.101961" lon="25.98411">
<time>2020-09-12T12:37:47Z</time>
</trkpt>
<trkpt lat="61.101945" lon="25.984193">
<time>2020-09-12T12:37:48Z</time>
</trkpt>
<trkpt lat="61.101931" lon="25.984275">
<time>2020-09-12T12:37:49Z</time>
</trkpt>
<trkpt lat="61.101921" lon="25.984368">
<time>2020-09-12T12:37:50Z</time>
</trkpt>
<trkpt lat="61.101916" lon="25.98446">
<time>2020-09-12T12:37:51Z</time>
</trkpt>
<trkpt lat="61.101916" lon="25.984553">
<time>2020-09-12T12:37:52Z</time>
</trkpt>
<trkpt lat="61.101928" lon="25.98464">
<time>2020-09-12T12:37:53Z</time>
</trkpt>
<trkpt lat="61.101943" lon="25.984715">
<time>2020-09-12T12:37:54Z</time>
</trkpt>
<trkpt lat="61.101953" lon="25.98478">
<time>2020-09-12T12:37:55Z</time>
</trkpt>
<trkpt lat="61.10196" lon="25.984831">
<time>2020-09-12T12:37:56Z</time>
</trkpt>
<trkpt lat="61.101965" lon="25.98488">
<time>2020-09-12T12:37:57Z</time>
</trkpt>
<trkpt lat="61.101966" lon="25.984926">
<time>2020-09-12T12:37:58Z</time>
</trkpt>
<trkpt lat="61.101973" lon="25.984968">
<time>2020-09-12T12:37:59Z</time>
</trkpt>
<trkpt lat="61.10198" lon="25.985011">
<time>2020-09-12T12:38:00Z</time>
</trkpt>
<trkpt lat="61.101988" lon="25.985051">
<time>2020-09-12T12:38:01Z</time>
</trkpt>
<trkpt lat="61.102" lon="25.985088">
<time>2020-09-12T12:38:02Z</time>
</trkpt>
<trkpt lat="61.102013" lon="25.98513">
<time>2020-09-12T12:38:03Z</time>
</trkpt>
<trkpt lat="61.102025" lon="25.985178">
<time>2020-09-12T12:38:04Z</time>
</trkpt>
<trkpt lat="61.102038" lon="25.985226">
<time>2020-09-12T12:38:05Z</time>
</trkpt>
<trkpt lat="61.102048" lon="25.985278">
<time>2020-09-12T12:38:06Z</time>
</trkpt>
<trkpt lat="61.102051" lon="25.985326">
<time>2020-09-12T12:38:07Z</time>
</trkpt>
<trkpt lat="61.10205" lon="25.985366">
<time>2020-09-12T12:38:08Z</time>
</trkpt>
<trkpt lat="61.102046" lon="25.985401">
<time>2020-09-12T12:38:09Z</time>
</trkpt>
<trkpt lat="61.102041" lon="25.985431">
<time>2020-09-12T12:38:10Z</time>
</trkpt>
<trkpt lat="61.102038" lon="25.985455">
<time>2020-09-12T12:38:11Z</time>
</trkpt>
<trkpt lat="61.10204" lon="25.985481">
<time>2020-09-12T12:38:12Z</time>
</trkpt>
<trkpt lat="61.102041" lon="25.985511">
<time>2020-09-12T12:38:13Z</time>
</trkpt>
<trkpt lat="61.102051" lon="25.985543">
<time>2020-09-12T12:38:14Z</time>
</trkpt>
<trkpt lat="61.102055" lon="25.985576">
<time>2020-09-12T12:38:15Z</time>
</trkpt>
<trkpt lat="61.102056" lon="25.985615">
<time>2020-09-12T12:38:16Z</time>
</trkpt>
<trkpt lat="61.102058" lon="25.985661">
<time>2020-09-12T12:38:17Z</time>
</trkpt>
<trkpt lat="61.102058" lon="25.985703">
<time>2020-09-12T12:38:18Z</time>
</trkpt>
<trkpt lat="61.102058" lon="25.985743">
<time>2020-09-12T12:38:19Z</time>
</trkpt>
<trkpt lat="61.102063" lon="25.985783">
<time>2020-09-12T12:38:20Z</time>
</trkpt>
<trkpt lat="61.102073" lon="25.985821">
<time>2020-09-12T12:38:21Z</time>
</trkpt>
<trkpt lat="61.102083" lon="25.985865">
<time>2020-09-12T12:38:22Z</time>
</trkpt>
<trkpt lat="61.102093" lon="25.98591">
<time>2020-09-12T12:38:23Z</time>
</trkpt>
<trkpt lat="61.1021" lon="25.985956">
<time>2020-09-12T12:38:24Z</time>
</trkpt>
<trkpt lat="61.102108" lon="25.98601">
<time>2020-09-12T12:38:25Z</time>
</trkpt>
<trkpt lat="61.102113" lon="25.986063">
<time>2020-09-12T12:38:26Z</time>
</trkpt>
<trkpt lat="61.10212" lon="25.98612">
<time>2020-09-12T12:38:27Z</time>
</trkpt>
<trkpt lat="61.102125" lon="25.986191">
<time>2020-09-12T12:38:28Z</time>
</trkpt>
<trkpt lat="61.102133" lon="25.986266">
<time>2020-09-12T12:38:29Z</time>
</trkpt>
<trkpt lat="61.102141" lon="25.986343">
<time>2020-09-12T12:38:30Z</time>
</trkpt>
<trkpt lat="61.102151" lon="25.98643">
<time>2020-09-12T12:38:31Z</time>
</trkpt>
<trkpt lat="61.102163" lon="25.986518">
<time>2020-09-12T12:38:32Z</time>
</trkpt>
<trkpt lat="61.102171" lon="25.986615">
<time>2020-09-12T12:38:33Z</time>
</trkpt>
<trkpt lat="61.10218" lon="25.986711">
<time>2020-09-12T12:38:34Z</time>
</trkpt>
<trkpt lat="61.102176" lon="25.986801">
<time>2020-09-12T12:38:35Z</time>
</trkpt>
<trkpt lat="61.10217" lon="25.986888">
<time>2020-09-12T12:38:36Z</time>
</trkpt>
<trkpt lat="61.102168" lon="25.986976">
<time>2020-09-12T12:38:37Z</time>
</trkpt>
<trkpt lat="61.102171" lon="25.98707">
<time>2020-09-12T12:38:38Z</time>
</trkpt>
<trkpt lat="61.102176" lon="25.98717">
<time>2020-09-12T12:38:39Z</time>
</trkpt>
<trkpt lat="61.102183" lon="25.987278">
<time>2020-09-12T12:38:40Z</time>
</trkpt>
<trkpt lat="61.10219" lon="25.987391">
<time>2020-09-12T12:38:41Z</time>
</trkpt>
<trkpt lat="61.102198" lon="25.987506">
<time>2020-09-12T12:38:42Z</time>
</trkpt>
<trkpt lat="61.102206" lon="25.987628">
<time>2020-09-12T12:38:43Z</time>
</trkpt>
<trkpt lat="61.10221" lon="25.987758">
<time>2020-09-12T12:38:44Z</time>
</trkpt>
<trkpt lat="61.102211" lon="25.987891">
<time>2020-09-12T12:38:45Z</time>
</trkpt>
<trkpt lat="61.102215" lon="25.988028">
<time>2020-09-12T12:38:46Z</time>
</trkpt>
<trkpt lat="61.10222" lon="25.988161">
<time>2020-09-12T12:38:47Z</time>
</trkpt>
<trkpt lat="61.102226" lon="25.988298">
<time>2020-09-12T12:38:48Z</time>
</trkpt>
<trkpt lat="61.102235" lon="25.988433">
<time>2020-09-12T12:38:49Z</time>
</trkpt>
<trkpt lat="61.102243" lon="25.988566">
<time>2020-09-12T12:38:50Z</time>
</trkpt>
<trkpt lat="61.102251" lon="25.988696">
<time>2020-09-12T12:38:51Z</time>
</trkpt>
<trkpt lat="61.10226" lon="25.988825">
<time>2020-09-12T12:38:52Z</time>
</trkpt>
<trkpt lat="61.102265" lon="25.988953">
<time>2020-09-12T12:38:53Z</time>
</trkpt>
<trkpt lat="61.102271" lon="25.989078">
<time>2020-09-12T12:38:54Z</time>
</trkpt>
<trkpt lat="61.102281" lon="25.989203">
<time>2020-09-12T12:38:55Z</time>
</trkpt>
<trkpt lat="61.10229" lon="25.989326">
<time>2020-09-12T12:38:56Z</time>
</trkpt>
<trkpt lat="61.102295" lon="25.989451">
<time>2020-09-12T12:38:57Z</time>
</trkpt>
<trkpt lat="61.102298" lon="25.989576">
<time>2020-09-12T12:38:58Z</time>
</trkpt>
<trkpt lat="61.1023" lon="25.989698">
<time>2020-09-12T12:38:59Z</time>
</trkpt>
<trkpt lat="61.102308" lon="25.98981">
<time>2020-09-12T12:39:00Z</time>
</trkpt>
<trkpt lat="61.102321" lon="25.989913">
<time>2020-09-12T12:39:01Z</time>
</trkpt>
<trkpt lat="61.10234" lon="25.99001">
<time>2020-09-12T12:39:02Z</time>
</trkpt>
<trkpt lat="61.102353" lon="25.990105">
<time>2020-09-12T12:39:03Z</time>
</trkpt>
<trkpt lat="61.102361" lon="25.990191">
<time>2020-09-12T12:39:04Z</time>
</trkpt>
<trkpt lat="61.102371" lon="25.990273">
<time>2020-09-12T12:39:05Z</time>
</trkpt>
<trkpt lat="61.102385" lon="25.990343">
<time>2020-09-12T12:39:06Z</time>
</trkpt>
<trkpt lat="61.102405" lon="25.990396">
<time>2020-09-12T12:39:07Z</time>
</trkpt>
<trkpt lat="61.102426" lon="25.990443">
<time>2020-09-12T12:39:08Z</time>
</trkpt>
<trkpt lat="61.102445" lon="25.9905">
<time>2020-09-12T12:39:09Z</time>
</trkpt>
<trkpt lat="61.102456" lon="25.990563">
<time>2020-09-12T12:39:10Z</time>
</trkpt>
<trkpt lat="61.102466" lon="25.99063">
<time>2020-09-12T12:39:11Z</time>
</trkpt>
<trkpt lat="61.10248" lon="25.990693">
<time>2020-09-12T12:39:12Z</time>
</trkpt>
<trkpt lat="61.102496" lon="25.990763">
<time>2020-09-12T12:39:13Z</time>
</trkpt>
<trkpt lat="61.102511" lon="25.990838">
<time>2020-09-12T12:39:14Z</time>
</trkpt>
<trkpt lat="61.102525" lon="25.990923">
<time>2020-09-12T12:39:15Z</time>
</trkpt>
<trkpt lat="61.10254" lon="25.991008">
<time>2020-09-12T12:39:16Z</time>
</trkpt>
<trkpt lat="61.102555" lon="25.991093">
<time>2020-09-12T12:39:17Z</time>
</trkpt>
<trkpt lat="61.102571" lon="25.991175">
<time>2020-09-12T12:39:18Z</time>
</trkpt>
<trkpt lat="61.10259" lon="25.991253">
<time>2020-09-12T12:39:19Z</time>
</trkpt>
<trkpt lat="61.102611" lon="25.991328">
<time>2020-09-12T12:39:20Z</time>
</trkpt>
<trkpt lat="61.102625" lon="25.991408">
<time>2020-09-12T12:39:21Z</time>
</trkpt>
<trkpt lat="61.102636" lon="25.99149">
<time>2020-09-12T12:39:22Z</time>
</trkpt>
<trkpt lat="61.10265" lon="25.991575">
<time>2020-09-12T12:39:23Z</time>
</trkpt>
<trkpt lat="61.102668" lon="25.991665">
<time>2020-09-12T12:39:24Z</time>
</trkpt>
<trkpt lat="61.102685" lon="25.991758">
<time>2020-09-12T12:39:25Z</time>
</trkpt>
<trkpt lat="61.102701" lon="25.991848">
<time>2020-09-12T12:39:26Z</time>
</trkpt>
<trkpt lat="61.102718" lon="25.991931">
<time>2020-09-12T12:39:27Z</time>
</trkpt>
<trkpt lat="61.10274" lon="25.992008">
<time>2020-09-12T12:39:28Z</time>
</trkpt>
<trkpt lat="61.102766" lon="25.992078">
<time>2020-09-12T12:39:29Z</time>
</trkpt>
<trkpt lat="61.1028" lon="25.992145">
<time>2020-09-12T12:39:30Z</time>
</trkpt>
<trkpt lat="61.102845" lon="25.992211">
<time>2020-09-12T12:39:31Z</time>
</trkpt>
<trkpt lat="61.102898" lon="25.992283">
<time>2020-09-12T12:39:32Z</time>
</trkpt>
<trkpt lat="61.102958" lon="25.992361">
<time>2020-09-12T12:39:33Z</time>
</trkpt>
<trkpt lat="61.103023" lon="25.992446">
<time>2020-09-12T12:39:34Z</time>
</trkpt>
<trkpt lat="61.103093" lon="25.992551">
<time>2020-09-12T12:39:35Z</time>
</trkpt>
<trkpt lat="61.103163" lon="25.992646">
<time>2020-09-12T12:39:36Z</time>
</trkpt>
<trkpt lat="61.103238" lon="25.99275">
<time>2020-09-12T12:39:37Z</time>
</trkpt>
<trkpt lat="61.10331" lon="25.992843">
<time>2020-09-12T12:39:38Z</time>
</trkpt>
<trkpt lat="61.10338" lon="25.992921">
<time>2020-09-12T12:39:39Z</time>
</trkpt>
<trkpt lat="61.103441" lon="25.992988">
<time>2020-09-12T12:39:40Z</time>
</trkpt>
<trkpt lat="61.103491" lon="25.993051">
<time>2020-09-12T12:39:41Z</time>
</trkpt>
<trkpt lat="61.103541" lon="25.993121">
<time>2020-09-12T12:39:42Z</time>
</trkpt>
<trkpt lat="61.103593" lon="25.993183">
<time>2020-09-12T12:39:43Z</time>
</trkpt>
<trkpt lat="61.10365" lon="25.993248">
<time>2020-09-12T12:39:44Z</time>
</trkpt>
<trkpt lat="61.103715" lon="25.993313">
<time>2020-09-12T12:39:45Z</time>
</trkpt>
<trkpt lat="61.103785" lon="25.993405">
<time>2020-09-12T12:39:46Z</time>
</trkpt>
<trkpt lat="61.103855" lon="25.99352">
<time>2020-09-12T12:39:47Z</time>
</trkpt>
<trkpt lat="61.103933" lon="25.993631">
<time>2020-09-12T12:39:48Z</time>
</trkpt>
<trkpt lat="61.104011" lon="25.99373">
<time>2020-09-12T12:39:49Z</time>
</trkpt>
<trkpt lat="61.104095" lon="25.993823">
<time>2020-09-12T12:39:50Z</time>
</trkpt>
<trkpt lat="61.104175" lon="25.993928">
<time>2020-09-12T12:39:51Z</time>
</trkpt>
<trkpt lat="61.104256" lon="25.994036">
<time>2020-09-12T12:39:52Z</time>
</trkpt>
<trkpt lat="61.104338" lon="25.99414">
<time>2020-09-12T12:39:53Z</time>
</trkpt>
<trkpt lat="61.10442" lon="25.994251">
<time>2020-09-12T12:39:54Z</time>
</trkpt>
<trkpt lat="61.104513" lon="25.994356">
<time>2020-09-12T12:39:55Z</time>
</trkpt>
<trkpt lat="61.104598" lon="25.994468">
<time>2020-09-12T12:39:56Z</time>
</trkpt>
<trkpt lat="61.104666" lon="25.994563">
<time>2020-09-12T12:39:57Z</time>
</trkpt>
<trkpt lat="61.10475" lon="25.99467">
<time>2020-09-12T12:39:58Z</time>
</trkpt>
<trkpt lat="61.104828" lon="25.994778">
<time>2020-09-12T12:39:59Z</time>
</trkpt>
<trkpt lat="61.104906" lon="25.99489">
<time>2020-09-12T12:40:00Z</time>
</trkpt>
<trkpt lat="61.104973" lon="25.994983">
<time>2020-09-12T12:40:01Z</time>
</trkpt>
<trkpt lat="61.105035" lon="25.995076">
<time>2020-09-12T12:40:02Z</time>
</trkpt>
<trkpt lat="61.1051" lon="25.995165">
<time>2020-09-12T12:40:03Z</time>
</trkpt>
<trkpt lat="61.10516" lon="25.99524">
<time>2020-09-12T12:40:04Z</time>
</trkpt>
<trkpt lat="61.105216" lon="25.995323">
<time>2020-09-12T12:40:05Z</time>
</trkpt>
<trkpt lat="61.105276" lon="25.99542">
<time>2020-09-12T12:40:06Z</time>
</trkpt>
<trkpt lat="61.10532" lon="25.995471">
<time>2020-09-12T12:40:07Z</time>
</trkpt>
<trkpt lat="61.10535" lon="25.99549">
<time>2020-09-12T12:40:08Z</time>
</trkpt>
<trkpt lat="61.105358" lon="25.99552">
<time>2020-09-12T12:40:09Z</time>
</trkpt>
<trkpt lat="61.105356" lon="25.995556">
<time>2020-09-12T12:40:10Z</time>
</trkpt>
<trkpt lat="61.105365" lon="25.995568">
<time>2020-09-12T12:40:11Z</time>
</trkpt>
<trkpt lat="61.105368" lon="25.995581">
<time>2020-09-12T12:40:12Z</time>
</trkpt>
<trkpt lat="61.10538" lon="25.995613">
<time>2020-09-12T12:40:13Z</time>
</trkpt>
<trkpt lat="61.10541" lon="25.995635">
<time>2020-09-12T12:40:14Z</time>
</trkpt>
<trkpt lat="61.105448" lon="25.995668">
<time>2020-09-12T12:40:15Z</time>
</trkpt>
<trkpt lat="61.10548" lon="25.995695">
<time>2020-09-12T12:40:16Z</time>
</trkpt>
<trkpt lat="61.105511" lon="25.995761">
<time>2020-09-12T12:40:17Z</time>
</trkpt>
<trkpt lat="61.105551" lon="25.995811">
<time>2020-09-12T12:40:18Z</time>
</trkpt>
<trkpt lat="61.105593" lon="25.995863">
<time>2020-09-12T12:40:19Z</time>
</trkpt>
<trkpt lat="61.105635" lon="25.995925">
<time>2020-09-12T12:40:20Z</time>
</trkpt>
<trkpt lat="61.105688" lon="25.995996">
<time>2020-09-12T12:40:21Z</time>
</trkpt>
<trkpt lat="61.105738" lon="25.996088">
<time>2020-09-12T12:40:22Z</time>
</trkpt>
<trkpt lat="61.105795" lon="25.996171">
<time>2020-09-12T12:40:23Z</time>
</trkpt>
<trkpt lat="61.105846" lon="25.996255">
<time>2020-09-12T12:40:24Z</time>
</trkpt>
<trkpt lat="61.105908" lon="25.996313">
<time>2020-09-12T12:40:25Z</time>
</trkpt>
<trkpt lat="61.105966" lon="25.996343">
<time>2020-09-12T12:40:26Z</time>
</trkpt>
<trkpt lat="61.106026" lon="25.996338">
<time>2020-09-12T12:40:27Z</time>
</trkpt>
<trkpt lat="61.106073" lon="25.996295">
<time>2020-09-12T12:40:28Z</time>
</trkpt>
<trkpt lat="61.106103" lon="25.996226">
<time>2020-09-12T12:40:29Z</time>
</trkpt>
<trkpt lat="61.106125" lon="25.996135">
<time>2020-09-12T12:40:30Z</time>
</trkpt>
<trkpt lat="61.10613" lon="25.996015">
<time>2020-09-12T12:40:31Z</time>
</trkpt>
<trkpt lat="61.106145" lon="25.995908">
<time>2020-09-12T12:40:32Z</time>
</trkpt>
<trkpt lat="61.106161" lon="25.995805">
<time>2020-09-12T12:40:33Z</time>
</trkpt>
<trkpt lat="61.106175" lon="25.995693">
<time>2020-09-12T12:40:34Z</time>
</trkpt>
<trkpt lat="61.106188" lon="25.995575">
<time>2020-09-12T12:40:35Z</time>
</trkpt>
<trkpt lat="61.106198" lon="25.995448">
<time>2020-09-12T12:40:36Z</time>
</trkpt>
<trkpt lat="61.106206" lon="25.995316">
<time>2020-09-12T12:40:37Z</time>
</trkpt>
<trkpt lat="61.106215" lon="25.995185">
<time>2020-09-12T12:40:38Z</time>
</trkpt>
<trkpt lat="61.106221" lon="25.995051">
<time>2020-09-12T12:40:39Z</time>
</trkpt>
<trkpt lat="61.106231" lon="25.994921">
<time>2020-09-12T12:40:40Z</time>
</trkpt>
<trkpt lat="61.106241" lon="25.994796">
<time>2020-09-12T12:40:41Z</time>
</trkpt>
<trkpt lat="61.106251" lon="25.994673">
<time>2020-09-12T12:40:42Z</time>
</trkpt>
<trkpt lat="61.106266" lon="25.99455">
<time>2020-09-12T12:40:43Z</time>
</trkpt>
<trkpt lat="61.106283" lon="25.99443">
<time>2020-09-12T12:40:44Z</time>
</trkpt>
<trkpt lat="61.106298" lon="25.994308">
<time>2020-09-12T12:40:45Z</time>
</trkpt>
<trkpt lat="61.106315" lon="25.994193">
<time>2020-09-12T12:40:46Z</time>
</trkpt>
<trkpt lat="61.106325" lon="25.994076">
<time>2020-09-12T12:40:47Z</time>
</trkpt>
<trkpt lat="61.106333" lon="25.993963">
<time>2020-09-12T12:40:48Z</time>
</trkpt>
<trkpt lat="61.106348" lon="25.99385">
<time>2020-09-12T12:40:49Z</time>
</trkpt>
<trkpt lat="61.106371" lon="25.993746">
<time>2020-09-12T12:40:50Z</time>
</trkpt>
<trkpt lat="61.106396" lon="25.993651">
<time>2020-09-12T12:40:51Z</time>
</trkpt>
<trkpt lat="61.106423" lon="25.993558">
<time>2020-09-12T12:40:52Z</time>
</trkpt>
<trkpt lat="61.106451" lon="25.993463">
<time>2020-09-12T12:40:53Z</time>
</trkpt>
<trkpt lat="61.106483" lon="25.993365">
<time>2020-09-12T12:40:54Z</time>
</trkpt>
<trkpt lat="61.106515" lon="25.993266">
<time>2020-09-12T12:40:55Z</time>
</trkpt>
<trkpt lat="61.10655" lon="25.993163">
<time>2020-09-12T12:40:56Z</time>
</trkpt>
<trkpt lat="61.106585" lon="25.993061">
<time>2020-09-12T12:40:57Z</time>
</trkpt>
<trkpt lat="61.106621" lon="25.992958">
<time>2020-09-12T12:40:58Z</time>
</trkpt>
<trkpt lat="61.10666" lon="25.992853">
<time>2020-09-12T12:40:59Z</time>
</trkpt>
<trkpt lat="61.106703" lon="25.992756">
<time>2020-09-12T12:41:00Z</time>
</trkpt>
<trkpt lat="61.106748" lon="25.992661">
<time>2020-09-12T12:41:01Z</time>
</trkpt>
<trkpt lat="61.106801" lon="25.99258">
<time>2020-09-12T12:41:02Z</time>
</trkpt>
<trkpt lat="61.106855" lon="25.992508">
<time>2020-09-12T12:41:03Z</time>
</trkpt>
<trkpt lat="61.106908" lon="25.992441">
<time>2020-09-12T12:41:04Z</time>
</trkpt>
<trkpt lat="61.106955" lon="25.992403">
<time>2020-09-12T12:41:05Z</time>
</trkpt>
<trkpt lat="61.106996" lon="25.992403">
<time>2020-09-12T12:41:06Z</time>
</trkpt>
<trkpt lat="61.107031" lon="25.992435">
<time>2020-09-12T12:41:07Z</time>
</trkpt>
<trkpt lat="61.107068" lon="25.992485">
<time>2020-09-12T12:41:08Z</time>
</trkpt>
<trkpt lat="61.107106" lon="25.992543">
<time>2020-09-12T12:41:09Z</time>
</trkpt>
<trkpt lat="61.107148" lon="25.9926">
<time>2020-09-12T12:41:10Z</time>
</trkpt>
<trkpt lat="61.1072" lon="25.992645">
<time>2020-09-12T12:41:11Z</time>
</trkpt>
<trkpt lat="61.107266" lon="25.9927">
<time>2020-09-12T12:41:12Z</time>
</trkpt>
<trkpt lat="61.107318" lon="25.992756">
<time>2020-09-12T12:41:13Z</time>
</trkpt>
<trkpt lat="61.107371" lon="25.992818">
<time>2020-09-12T12:41:14Z</time>
</trkpt>
<trkpt lat="61.107423" lon="25.992883">
<time>2020-09-12T12:41:15Z</time>
</trkpt>
<trkpt lat="61.107471" lon="25.992956">
<time>2020-09-12T12:41:16Z</time>
</trkpt>
<trkpt lat="61.107521" lon="25.993038">
<time>2020-09-12T12:41:17Z</time>
</trkpt>
<trkpt lat="61.107566" lon="25.993128">
<time>2020-09-12T12:41:18Z</time>
</trkpt>
<trkpt lat="61.107613" lon="25.993221">
<time>2020-09-12T12:41:19Z</time>
</trkpt>
<trkpt lat="61.107661" lon="25.993305">
<time>2020-09-12T12:41:20Z</time>
</trkpt>
<trkpt lat="61.107718" lon="25.99337">
<time>2020-09-12T12:41:21Z</time>
</trkpt>
<trkpt lat="61.107763" lon="25.993426">
<time>2020-09-12T12:41:22Z</time>
</trkpt>
<trkpt lat="61.107798" lon="25.993455">
<time>2020-09-12T12:41:23Z</time>
</trkpt>
<trkpt lat="61.10781" lon="25.99345">
<time>2020-09-12T12:41:24Z</time>
</trkpt>
<trkpt lat="61.107813" lon="25.993423">
<time>2020-09-12T12:41:25Z</time>
</trkpt>
<trkpt lat="61.107813" lon="25.993385">
<time>2020-09-12T12:41:26Z</time>
</trkpt>
<trkpt lat="61.107816" lon="25.993323">
<time>2020-09-12T12:41:27Z</time>
</trkpt>
<trkpt lat="61.107825" lon="25.993256">
<time>2020-09-12T12:41:28Z</time>
</trkpt>
<trkpt lat="61.107845" lon="25.993186">
<time>2020-09-12T12:41:29Z</time>
</trkpt>
<trkpt lat="61.107865" lon="25.993105">
<time>2020-09-12T12:41:30Z</time>
</trkpt>
<trkpt lat="61.107891" lon="25.993025">
<time>2020-09-12T12:41:31Z</time>
</trkpt>
<trkpt lat="61.107916" lon="25.992943">
<time>2020-09-12T12:41:32Z</time>
</trkpt>
<trkpt lat="61.107946" lon="25.992873">
<time>2020-09-12T12:41:33Z</time>
</trkpt>
<trkpt lat="61.107973" lon="25.992805">
<time>2020-09-12T12:41:34Z</time>
</trkpt>
<trkpt lat="61.108011" lon="25.992748">
<time>2020-09-12T12:41:35Z</time>
</trkpt>
<trkpt lat="61.108048" lon="25.992681">
<time>2020-09-12T12:41:36Z</time>
</trkpt>
<trkpt lat="61.10809" lon="25.992625">
<time>2020-09-12T12:41:37Z</time>
</trkpt>
<trkpt lat="61.108128" lon="25.992551">
<time>2020-09-12T12:41:38Z</time>
</trkpt>
<trkpt lat="61.10817" lon="25.992483">
<time>2020-09-12T12:41:39Z</time>
</trkpt>
<trkpt lat="61.108218" lon="25.992428">
<time>2020-09-12T12:41:40Z</time>
</trkpt>
<trkpt lat="61.108261" lon="25.992386">
<time>2020-09-12T12:41:41Z</time>
</trkpt>
<trkpt lat="61.108316" lon="25.992363">
<time>2020-09-12T12:41:42Z</time>
</trkpt>
<trkpt lat="61.108373" lon="25.992368">
<time>2020-09-12T12:41:43Z</time>
</trkpt>
<trkpt lat="61.10841" lon="25.9924">
<time>2020-09-12T12:41:44Z</time>
</trkpt>
<trkpt lat="61.10843" lon="25.992443">
<time>2020-09-12T12:41:45Z</time>
</trkpt>
<trkpt lat="61.108426" lon="25.992503">
<time>2020-09-12T12:41:46Z</time>
</trkpt>
<trkpt lat="61.108405" lon="25.992575">
<time>2020-09-12T12:41:47Z</time>
</trkpt>
<trkpt lat="61.108381" lon="25.992661">
<time>2020-09-12T12:41:48Z</time>
</trkpt>
<trkpt lat="61.10836" lon="25.992765">
<time>2020-09-12T12:41:49Z</time>
</trkpt>
<trkpt lat="61.108336" lon="25.992896">
<time>2020-09-12T12:41:50Z</time>
</trkpt>
<trkpt lat="61.108323" lon="25.993025">
<time>2020-09-12T12:41:51Z</time>
</trkpt>
<trkpt lat="61.10831" lon="25.993165">
<time>2020-09-12T12:41:52Z</time>
</trkpt>
<trkpt lat="61.108295" lon="25.993293">
<time>2020-09-12T12:41:53Z</time>
</trkpt>
<trkpt lat="61.10827" lon="25.993416">
<time>2020-09-12T12:41:54Z</time>
</trkpt>
<trkpt lat="61.108236" lon="25.993535">
<time>2020-09-12T12:41:55Z</time>
</trkpt>
<trkpt lat="61.108198" lon="25.993638">
<time>2020-09-12T12:41:56Z</time>
</trkpt>
<trkpt lat="61.10816" lon="25.993726">
<time>2020-09-12T12:41:57Z</time>
</trkpt>
<trkpt lat="61.108116" lon="25.993808">
<time>2020-09-12T12:41:58Z</time>
</trkpt>
<trkpt lat="61.10808" lon="25.993886">
<time>2020-09-12T12:41:59Z</time>
</trkpt>
<trkpt lat="61.108066" lon="25.99395">
<time>2020-09-12T12:42:00Z</time>
</trkpt>
<trkpt lat="61.108071" lon="25.993998">
<time>2020-09-12T12:42:01Z</time>
</trkpt>
<trkpt lat="61.108086" lon="25.994036">
<time>2020-09-12T12:42:02Z</time>
</trkpt>
<trkpt lat="61.108111" lon="25.994058">
<time>2020-09-12T12:42:03Z</time>
</trkpt>
<trkpt lat="61.108146" lon="25.994076">
<time>2020-09-12T12:42:04Z</time>
</trkpt>
<trkpt lat="61.108196" lon="25.994095">
<time>2020-09-12T12:42:05Z</time>
</trkpt>
<trkpt lat="61.10825" lon="25.994133">
<time>2020-09-12T12:42:06Z</time>
</trkpt>
<trkpt lat="61.108303" lon="25.994185">
<time>2020-09-12T12:42:07Z</time>
</trkpt>
<trkpt lat="61.108351" lon="25.994241">
<time>2020-09-12T12:42:08Z</time>
</trkpt>
<trkpt lat="61.108396" lon="25.994308">
<time>2020-09-12T12:42:09Z</time>
</trkpt>
<trkpt lat="61.10844" lon="25.994376">
<time>2020-09-12T12:42:10Z</time>
</trkpt>
<trkpt lat="61.108485" lon="25.994445">
<time>2020-09-12T12:42:11Z</time>
</trkpt>
<trkpt lat="61.108528" lon="25.994508">
<time>2020-09-12T12:42:12Z</time>
</trkpt>
<trkpt lat="61.108576" lon="25.994571">
<time>2020-09-12T12:42:13Z</time>
</trkpt>
<trkpt lat="61.108626" lon="25.994635">
<time>2020-09-12T12:42:14Z</time>
</trkpt>
<trkpt lat="61.108676" lon="25.994703">
<time>2020-09-12T12:42:15Z</time>
</trkpt>
<trkpt lat="61.108728" lon="25.99477">
<time>2020-09-12T12:42:16Z</time>
</trkpt>
<trkpt lat="61.108781" lon="25.994833">
<time>2020-09-12T12:42:17Z</time>
</trkpt>
<trkpt lat="61.108836" lon="25.994901">
<time>2020-09-12T12:42:18Z</time>
</trkpt>
<trkpt lat="61.10889" lon="25.99497">
<time>2020-09-12T12:42:19Z</time>
</trkpt>
<trkpt lat="61.108941" lon="25.99504">
<time>2020-09-12T12:42:20Z</time>
</trkpt>
<trkpt lat="61.10899" lon="25.995111">
<time>2020-09-12T12:42:21Z</time>
</trkpt>
<trkpt lat="61.10904" lon="25.995191">
<time>2020-09-12T12:42:22Z</time>
</trkpt>
<trkpt lat="61.109091" lon="25.995258">
<time>2020-09-12T12:42:23Z</time>
</trkpt>
<trkpt lat="61.109145" lon="25.995318">
<time>2020-09-12T12:42:24Z</time>
</trkpt>
<trkpt lat="61.109203" lon="25.995383">
<time>2020-09-12T12:42:25Z</time>
</trkpt>
<trkpt lat="61.10926" lon="25.995448">
<time>2020-09-12T12:42:26Z</time>
</trkpt>
<trkpt lat="61.109318" lon="25.99552">
<time>2020-09-12T12:42:27Z</time>
</trkpt>
<trkpt lat="61.109376" lon="25.995601">
<time>2020-09-12T12:42:28Z</time>
</trkpt>
<trkpt lat="61.109433" lon="25.995685">
<time>2020-09-12T12:42:29Z</time>
</trkpt>
<trkpt lat="61.109491" lon="25.995768">
<time>2020-09-12T12:42:30Z</time>
</trkpt>
<trkpt lat="61.109551" lon="25.995846">
<time>2020-09-12T12:42:31Z</time>
</trkpt>
<trkpt lat="61.109613" lon="25.995921">
<time>2020-09-12T12:42:32Z</time>
</trkpt>
<trkpt lat="61.109671" lon="25.995995">
<time>2020-09-12T12:42:33Z</time>
</trkpt>
<trkpt lat="61.109726" lon="25.996068">
<time>2020-09-12T12:42:34Z</time>
</trkpt>
<trkpt lat="61.109781" lon="25.996145">
<time>2020-09-12T12:42:35Z</time>
</trkpt>
<trkpt lat="61.109835" lon="25.996221">
<time>2020-09-12T12:42:36Z</time>
</trkpt>
<trkpt lat="61.109888" lon="25.996281">
<time>2020-09-12T12:42:37Z</time>
</trkpt>
<trkpt lat="61.10994" lon="25.996315">
<time>2020-09-12T12:42:38Z</time>
</trkpt>
<trkpt lat="61.109985" lon="25.996313">
<time>2020-09-12T12:42:39Z</time>
</trkpt>
<trkpt lat="61.110021" lon="25.99629">
<time>2020-09-12T12:42:40Z</time>
</trkpt>
<trkpt lat="61.110051" lon="25.996246">
<time>2020-09-12T12:42:41Z</time>
</trkpt>
<trkpt lat="61.11008" lon="25.996158">
<time>2020-09-12T12:42:42Z</time>
</trkpt>
<trkpt lat="61.110108" lon="25.99607">
<time>2020-09-12T12:42:43Z</time>
</trkpt>
<trkpt lat="61.110145" lon="25.995986">
<time>2020-09-12T12:42:44Z</time>
</trkpt>
<trkpt lat="61.110183" lon="25.995901">
<time>2020-09-12T12:42:45Z</time>
</trkpt>
<trkpt lat="61.110223" lon="25.99583">
<time>2020-09-12T12:42:46Z</time>
</trkpt>
<trkpt lat="61.110261" lon="25.995788">
<time>2020-09-12T12:42:47Z</time>
</trkpt>
<trkpt lat="61.110308" lon="25.995783">
<time>2020-09-12T12:42:48Z</time>
</trkpt>
<trkpt lat="61.110353" lon="25.9958">
<time>2020-09-12T12:42:49Z</time>
</trkpt>
<trkpt lat="61.110395" lon="25.995823">
<time>2020-09-12T12:42:50Z</time>
</trkpt>
<trkpt lat="61.110435" lon="25.995835">
<time>2020-09-12T12:42:51Z</time>
</trkpt>
<trkpt lat="61.110478" lon="25.99584">
<time>2020-09-12T12:42:52Z</time>
</trkpt>
<trkpt lat="61.110521" lon="25.995845">
<time>2020-09-12T12:42:53Z</time>
</trkpt>
<trkpt lat="61.11057" lon="25.99586">
<time>2020-09-12T12:42:54Z</time>
</trkpt>
<trkpt lat="61.110615" lon="25.995885">
<time>2020-09-12T12:42:55Z</time>
</trkpt>
<trkpt lat="61.110655" lon="25.995913">
<time>2020-09-12T12:42:56Z</time>
</trkpt>
<trkpt lat="61.110695" lon="25.995941">
<time>2020-09-12T12:42:57Z</time>
</trkpt>
<trkpt lat="61.110738" lon="25.995975">
<time>2020-09-12T12:42:58Z</time>
</trkpt>
<trkpt lat="61.110785" lon="25.996001">
<time>2020-09-12T12:42:59Z</time>
</trkpt>
<trkpt lat="61.110831" lon="25.99603">
<time>2020-09-12T12:43:00Z</time>
</trkpt>
<trkpt lat="61.110873" lon="25.99607">
<time>2020-09-12T12:43:01Z</time>
</trkpt>
<trkpt lat="61.110905" lon="25.99612">
<time>2020-09-12T12:43:02Z</time>
</trkpt>
<trkpt lat="61.11093" lon="25.996178">
<time>2020-09-12T12:43:03Z</time>
</trkpt>
<trkpt lat="61.110945" lon="25.996255">
<time>2020-09-12T12:43:04Z</time>
</trkpt>
<trkpt lat="61.110946" lon="25.99633">
<time>2020-09-12T12:43:05Z</time>
</trkpt>
<trkpt lat="61.110941" lon="25.996416">
<time>2020-09-12T12:43:06Z</time>
</trkpt>
<trkpt lat="61.110941" lon="25.996501">
<time>2020-09-12T12:43:07Z</time>
</trkpt>
<trkpt lat="61.110951" lon="25.996576">
<time>2020-09-12T12:43:08Z</time>
</trkpt>
<trkpt lat="61.110956" lon="25.996661">
<time>2020-09-12T12:43:09Z</time>
</trkpt>
<trkpt lat="61.11096" lon="25.996751">
<time>2020-09-12T12:43:10Z</time>
</trkpt>
<trkpt lat="61.110953" lon="25.996845">
<time>2020-09-12T12:43:11Z</time>
</trkpt>
<trkpt lat="61.110941" lon="25.996928">
<time>2020-09-12T12:43:12Z</time>
</trkpt>
<trkpt lat="61.110935" lon="25.997001">
<time>2020-09-12T12:43:13Z</time>
</trkpt>
<trkpt lat="61.110931" lon="25.997068">
<time>2020-09-12T12:43:14Z</time>
</trkpt>
<trkpt lat="61.110925" lon="25.997143">
<time>2020-09-12T12:43:15Z</time>
</trkpt>
<trkpt lat="61.110925" lon="25.997226">
<time>2020-09-12T12:43:16Z</time>
</trkpt>
<trkpt lat="61.110923" lon="25.99731">
<time>2020-09-12T12:43:17Z</time>
</trkpt>
<trkpt lat="61.110926" lon="25.997383">
<time>2020-09-12T12:43:18Z</time>
</trkpt>
<trkpt lat="61.110926" lon="25.997446">
<time>2020-09-12T12:43:19Z</time>
</trkpt>
<trkpt lat="61.110923" lon="25.997501">
<time>2020-09-12T12:43:20Z</time>
</trkpt>
<trkpt lat="61.110923" lon="25.99755">
<time>2020-09-12T12:43:21Z</time>
</trkpt>
<trkpt lat="61.110928" lon="25.997593">
<time>2020-09-12T12:43:22Z</time>
</trkpt>
<trkpt lat="61.110935" lon="25.997633">
<time>2020-09-12T12:43:23Z</time>
</trkpt>
<trkpt lat="61.110941" lon="25.997668">
<time>2020-09-12T12:43:24Z</time>
</trkpt>
<trkpt lat="61.110946" lon="25.997705">
<time>2020-09-12T12:43:25Z</time>
</trkpt>
<trkpt lat="61.11095" lon="25.997745">
<time>2020-09-12T12:43:26Z</time>
</trkpt>
<trkpt lat="61.110946" lon="25.997783">
<time>2020-09-12T12:43:27Z</time>
</trkpt>
<trkpt lat="61.110936" lon="25.99782">
<time>2020-09-12T12:43:28Z</time>
</trkpt>
<trkpt lat="61.11092" lon="25.997851">
<time>2020-09-12T12:43:29Z</time>
</trkpt>
<trkpt lat="61.110896" lon="25.997868">
<time>2020-09-12T12:43:30Z</time>
</trkpt>
<trkpt lat="61.110875" lon="25.997861">
<time>2020-09-12T12:43:31Z</time>
</trkpt>
<trkpt lat="61.11085" lon="25.997845">
<time>2020-09-12T12:43:32Z</time>
</trkpt>
<trkpt lat="61.11082" lon="25.997833">
<time>2020-09-12T12:43:33Z</time>
</trkpt>
<trkpt lat="61.110791" lon="25.99782">
<time>2020-09-12T12:43:34Z</time>
</trkpt>
<trkpt lat="61.11076" lon="25.997803">
<time>2020-09-12T12:43:35Z</time>
</trkpt>
<trkpt lat="61.11073" lon="25.99779">
<time>2020-09-12T12:43:36Z</time>
</trkpt>
<trkpt lat="61.1107" lon="25.997778">
<time>2020-09-12T12:43:37Z</time>
</trkpt>
<trkpt lat="61.110668" lon="25.997763">
<time>2020-09-12T12:43:38Z</time>
</trkpt>
<trkpt lat="61.110636" lon="25.99775">
<time>2020-09-12T12:43:39Z</time>
</trkpt>
<trkpt lat="61.110603" lon="25.997735">
<time>2020-09-12T12:43:40Z</time>
</trkpt>
<trkpt lat="61.11057" lon="25.997723">
<time>2020-09-12T12:43:41Z</time>
</trkpt>
<trkpt lat="61.110535" lon="25.997708">
<time>2020-09-12T12:43:42Z</time>
</trkpt>
<trkpt lat="61.110498" lon="25.997703">
<time>2020-09-12T12:43:43Z</time>
</trkpt>
<trkpt lat="61.110465" lon="25.997713">
<time>2020-09-12T12:43:44Z</time>
</trkpt>
<trkpt lat="61.110433" lon="25.997726">
<time>2020-09-12T12:43:45Z</time>
</trkpt>
<trkpt lat="61.110401" lon="25.997743">
<time>2020-09-12T12:43:46Z</time>
</trkpt>
<trkpt lat="61.11037" lon="25.997761">
<time>2020-09-12T12:43:47Z</time>
</trkpt>
<trkpt lat="61.11034" lon="25.997781">
<time>2020-09-12T12:43:48Z</time>
</trkpt>
<trkpt lat="61.110308" lon="25.9978">
<time>2020-09-12T12:43:49Z</time>
</trkpt>
<trkpt lat="61.11028" lon="25.997815">
<time>2020-09-12T12:43:50Z</time>
</trkpt>
<trkpt lat="61.110255" lon="25.997836">
<time>2020-09-12T12:43:51Z</time>
</trkpt>
<trkpt lat="61.110236" lon="25.997868">
<time>2020-09-12T12:43:52Z</time>
</trkpt>
<trkpt lat="61.110226" lon="25.997906">
<time>2020-09-12T12:43:53Z</time>
</trkpt>
<trkpt lat="61.11023" lon="25.997958">
<time>2020-09-12T12:43:54Z</time>
</trkpt>
<trkpt lat="61.110243" lon="25.998016">
<time>2020-09-12T12:43:55Z</time>
</trkpt>
<trkpt lat="61.110261" lon="25.998078">
<time>2020-09-12T12:43:56Z</time>
</trkpt>
<trkpt lat="61.11029" lon="25.998158">
<time>2020-09-12T12:43:57Z</time>
</trkpt>
<trkpt lat="61.110318" lon="25.998235">
<time>2020-09-12T12:43:58Z</time>
</trkpt>
<trkpt lat="61.110353" lon="25.998326">
<time>2020-09-12T12:43:59Z</time>
</trkpt>
<trkpt lat="61.110391" lon="25.998416">
<time>2020-09-12T12:44:00Z</time>
</trkpt>
<trkpt lat="61.11043" lon="25.99851">
<time>2020-09-12T12:44:01Z</time>
</trkpt>
<trkpt lat="61.110475" lon="25.998616">
<time>2020-09-12T12:44:02Z</time>
</trkpt>
<trkpt lat="61.110518" lon="25.998735">
<time>2020-09-12T12:44:03Z</time>
</trkpt>
<trkpt lat="61.110556" lon="25.998865">
<time>2020-09-12T12:44:04Z</time>
</trkpt>
<trkpt lat="61.110595" lon="25.999">
<time>2020-09-12T12:44:05Z</time>
</trkpt>
<trkpt lat="61.11063" lon="25.999111">
<time>2020-09-12T12:44:06Z</time>
</trkpt>
<trkpt lat="61.110668" lon="25.999211">
<time>2020-09-12T12:44:07Z</time>
</trkpt>
<trkpt lat="61.110706" lon="25.999296">
<time>2020-09-12T12:44:08Z</time>
</trkpt>
<trkpt lat="61.110743" lon="25.999371">
<time>2020-09-12T12:44:09Z</time>
</trkpt>
<trkpt lat="61.11078" lon="25.999441">
<time>2020-09-12T12:44:10Z</time>
</trkpt>
<trkpt lat="61.110811" lon="25.999513">
<time>2020-09-12T12:44:11Z</time>
</trkpt>
<trkpt lat="61.110833" lon="25.99959">
<time>2020-09-12T12:44:12Z</time>
</trkpt>
<trkpt lat="61.110846" lon="25.999675">
<time>2020-09-12T12:44:13Z</time>
</trkpt>
<trkpt lat="61.110846" lon="25.999763">
<time>2020-09-12T12:44:14Z</time>
</trkpt>
<trkpt lat="61.110835" lon="25.999856">
<time>2020-09-12T12:44:15Z</time>
</trkpt>
<trkpt lat="61.11081" lon="25.999963">
<time>2020-09-12T12:44:16Z</time>
</trkpt>
<trkpt lat="61.110785" lon="26.000065">
<time>2020-09-12T12:44:17Z</time>
</trkpt>
<trkpt lat="61.110763" lon="26.000168">
<time>2020-09-12T12:44:18Z</time>
</trkpt>
<trkpt lat="61.110743" lon="26.00028">
<time>2020-09-12T12:44:19Z</time>
</trkpt>
<trkpt lat="61.110723" lon="26.0004">
<time>2020-09-12T12:44:20Z</time>
</trkpt>
<trkpt lat="61.11071" lon="26.000536">
<time>2020-09-12T12:44:21Z</time>
</trkpt>
<trkpt lat="61.110701" lon="26.00068">
<time>2020-09-12T12:44:22Z</time>
</trkpt>
<trkpt lat="61.110698" lon="26.000818">
<time>2020-09-12T12:44:23Z</time>
</trkpt>
<trkpt lat="61.110703" lon="26.000953">
<time>2020-09-12T12:44:24Z</time>
</trkpt>
<trkpt lat="61.110711" lon="26.001088">
<time>2020-09-12T12:44:25Z</time>
</trkpt>
<trkpt lat="61.110716" lon="26.001223">
<time>2020-09-12T12:44:26Z</time>
</trkpt>
<trkpt lat="61.110725" lon="26.00135">
<time>2020-09-12T12:44:27Z</time>
</trkpt>
<trkpt lat="61.110735" lon="26.001478">
<time>2020-09-12T12:44:28Z</time>
</trkpt>
<trkpt lat="61.110746" lon="26.001606">
<time>2020-09-12T12:44:29Z</time>
</trkpt>
<trkpt lat="61.110761" lon="26.00173">
<time>2020-09-12T12:44:30Z</time>
</trkpt>
<trkpt lat="61.11078" lon="26.001846">
<time>2020-09-12T12:44:31Z</time>
</trkpt>
<trkpt lat="61.1108" lon="26.00196">
<time>2020-09-12T12:44:32Z</time>
</trkpt>
<trkpt lat="61.110818" lon="26.002071">
<time>2020-09-12T12:44:33Z</time>
</trkpt>
<trkpt lat="61.110833" lon="26.00218">
<time>2020-09-12T12:44:34Z</time>
</trkpt>
<trkpt lat="61.11085" lon="26.002286">
<time>2020-09-12T12:44:35Z</time>
</trkpt>
<trkpt lat="61.11087" lon="26.002391">
<time>2020-09-12T12:44:36Z</time>
</trkpt>
<trkpt lat="61.110893" lon="26.002495">
<time>2020-09-12T12:44:37Z</time>
</trkpt>
<trkpt lat="61.110918" lon="26.002605">
<time>2020-09-12T12:44:38Z</time>
</trkpt>
<trkpt lat="61.110945" lon="26.002725">
<time>2020-09-12T12:44:39Z</time>
</trkpt>
<trkpt lat="61.110968" lon="26.002845">
<time>2020-09-12T12:44:40Z</time>
</trkpt>
<trkpt lat="61.110986" lon="26.002973">
<time>2020-09-12T12:44:41Z</time>
</trkpt>
<trkpt lat="61.111001" lon="26.003103">
<time>2020-09-12T12:44:42Z</time>
</trkpt>
<trkpt lat="61.111021" lon="26.00323">
<time>2020-09-12T12:44:43Z</time>
</trkpt>
<trkpt lat="61.111045" lon="26.003351">
<time>2020-09-12T12:44:44Z</time>
</trkpt>
<trkpt lat="61.111075" lon="26.003465">
<time>2020-09-12T12:44:45Z</time>
</trkpt>
<trkpt lat="61.111103" lon="26.003573">
<time>2020-09-12T12:44:46Z</time>
</trkpt>
<trkpt lat="61.111133" lon="26.00368">
<time>2020-09-12T12:44:47Z</time>
</trkpt>
<trkpt lat="61.111163" lon="26.003785">
<time>2020-09-12T12:44:48Z</time>
</trkpt>
<trkpt lat="61.111195" lon="26.003883">
<time>2020-09-12T12:44:49Z</time>
</trkpt>
<trkpt lat="61.111228" lon="26.003971">
<time>2020-09-12T12:44:50Z</time>
</trkpt>
<trkpt lat="61.111265" lon="26.004048">
<time>2020-09-12T12:44:51Z</time>
</trkpt>
<trkpt lat="61.11131" lon="26.004105">
<time>2020-09-12T12:44:52Z</time>
</trkpt>
<trkpt lat="61.111361" lon="26.00415">
<time>2020-09-12T12:44:53Z</time>
</trkpt>
<trkpt lat="61.111415" lon="26.0042">
<time>2020-09-12T12:44:54Z</time>
</trkpt>
<trkpt lat="61.111463" lon="26.004273">
<time>2020-09-12T12:44:55Z</time>
</trkpt>
<trkpt lat="61.1115" lon="26.004363">
<time>2020-09-12T12:44:56Z</time>
</trkpt>
<trkpt lat="61.111531" lon="26.00447">
<time>2020-09-12T12:44:57Z</time>
</trkpt>
<trkpt lat="61.11156" lon="26.004586">
<time>2020-09-12T12:44:58Z</time>
</trkpt>
<trkpt lat="61.11159" lon="26.004715">
<time>2020-09-12T12:44:59Z</time>
</trkpt>
<trkpt lat="61.111623" lon="26.004873">
<time>2020-09-12T12:45:00Z</time>
</trkpt>
<trkpt lat="61.111655" lon="26.00501">
<time>2020-09-12T12:45:01Z</time>
</trkpt>
<trkpt lat="61.111696" lon="26.005175">
<time>2020-09-12T12:45:02Z</time>
</trkpt>
<trkpt lat="61.111745" lon="26.005321">
<time>2020-09-12T12:45:03Z</time>
</trkpt>
<trkpt lat="61.111798" lon="26.005458">
<time>2020-09-12T12:45:04Z</time>
</trkpt>
<trkpt lat="61.111853" lon="26.00558">
<time>2020-09-12T12:45:05Z</time>
</trkpt>
<trkpt lat="61.111918" lon="26.005683">
<time>2020-09-12T12:45:06Z</time>
</trkpt>
<trkpt lat="61.111988" lon="26.005786">
<time>2020-09-12T12:45:07Z</time>
</trkpt>
<trkpt lat="61.112056" lon="26.005881">
<time>2020-09-12T12:45:08Z</time>
</trkpt>
<trkpt lat="61.112128" lon="26.005973">
<time>2020-09-12T12:45:09Z</time>
</trkpt>
<trkpt lat="61.112195" lon="26.006066">
<time>2020-09-12T12:45:10Z</time>
</trkpt>
<trkpt lat="61.112256" lon="26.006171">
<time>2020-09-12T12:45:11Z</time>
</trkpt>
<trkpt lat="61.11231" lon="26.006295">
<time>2020-09-12T12:45:12Z</time>
</trkpt>
<trkpt lat="61.112355" lon="26.006436">
<time>2020-09-12T12:45:13Z</time>
</trkpt>
<trkpt lat="61.112381" lon="26.00659">
<time>2020-09-12T12:45:14Z</time>
</trkpt>
<trkpt lat="61.112393" lon="26.006751">
<time>2020-09-12T12:45:15Z</time>
</trkpt>
<trkpt lat="61.112395" lon="26.006915">
<time>2020-09-12T12:45:16Z</time>
</trkpt>
<trkpt lat="61.112378" lon="26.007068">
<time>2020-09-12T12:45:17Z</time>
</trkpt>
<trkpt lat="61.112348" lon="26.007201">
<time>2020-09-12T12:45:18Z</time>
</trkpt>
<trkpt lat="61.112321" lon="26.007305">
<time>2020-09-12T12:45:19Z</time>
</trkpt>
<trkpt lat="61.112301" lon="26.007398">
<time>2020-09-12T12:45:20Z</time>
</trkpt>
<trkpt lat="61.112296" lon="26.007476">
<time>2020-09-12T12:45:21Z</time>
</trkpt>
<trkpt lat="61.112313" lon="26.007528">
<time>2020-09-12T12:45:22Z</time>
</trkpt>
<trkpt lat="61.112348" lon="26.007551">
<time>2020-09-12T12:45:23Z</time>
</trkpt>
<trkpt lat="61.112415" lon="26.007593">
<time>2020-09-12T12:45:24Z</time>
</trkpt>
<trkpt lat="61.112478" lon="26.00763">
<time>2020-09-12T12:45:25Z</time>
</trkpt>
<trkpt lat="61.112548" lon="26.007685">
<time>2020-09-12T12:45:26Z</time>
</trkpt>
<trkpt lat="61.112618" lon="26.00777">
<time>2020-09-12T12:45:27Z</time>
</trkpt>
<trkpt lat="61.112676" lon="26.007888">
<time>2020-09-12T12:45:28Z</time>
</trkpt>
<trkpt lat="61.11272" lon="26.00803">
<time>2020-09-12T12:45:29Z</time>
</trkpt>
<trkpt lat="61.112743" lon="26.008196">
<time>2020-09-12T12:45:30Z</time>
</trkpt>
<trkpt lat="61.112741" lon="26.008338">
<time>2020-09-12T12:45:31Z</time>
</trkpt>
<trkpt lat="61.11272" lon="26.008553">
<time>2020-09-12T12:45:32Z</time>
</trkpt>
<trkpt lat="61.112686" lon="26.008731">
<time>2020-09-12T12:45:33Z</time>
</trkpt>
<trkpt lat="61.112641" lon="26.008901">
<time>2020-09-12T12:45:34Z</time>
</trkpt>
<trkpt lat="61.11259" lon="26.009068">
<time>2020-09-12T12:45:35Z</time>
</trkpt>
<trkpt lat="61.11254" lon="26.009225">
<time>2020-09-12T12:45:36Z</time>
</trkpt>
<trkpt lat="61.112486" lon="26.009361">
<time>2020-09-12T12:45:37Z</time>
</trkpt>
<trkpt lat="61.112446" lon="26.009476">
<time>2020-09-12T12:45:38Z</time>
</trkpt>
<trkpt lat="61.11242" lon="26.009566">
<time>2020-09-12T12:45:39Z</time>
</trkpt>
<trkpt lat="61.112413" lon="26.009611">
<time>2020-09-12T12:45:40Z</time>
</trkpt>
<trkpt lat="61.112428" lon="26.009626">
<time>2020-09-12T12:45:41Z</time>
</trkpt>
<trkpt lat="61.112445" lon="26.009623">
<time>2020-09-12T12:45:42Z</time>
</trkpt>
<trkpt lat="61.112463" lon="26.009616">
<time>2020-09-12T12:45:43Z</time>
</trkpt>
<trkpt lat="61.112486" lon="26.009611">
<time>2020-09-12T12:45:44Z</time>
</trkpt>
<trkpt lat="61.112503" lon="26.0096">
<time>2020-09-12T12:45:45Z</time>
</trkpt>
<trkpt lat="61.112511" lon="26.009586">
<time>2020-09-12T12:45:46Z</time>
</trkpt>
<trkpt lat="61.112516" lon="26.009571">
<time>2020-09-12T12:45:47Z</time>
</trkpt>
<trkpt lat="61.112516" lon="26.009565">
<time>2020-09-12T12:45:48Z</time>
</trkpt>
<trkpt lat="61.112518" lon="26.009558">
<time>2020-09-12T12:45:49Z</time>
</trkpt>
</trkseg>
<name>Piero</name>
</trk>
</gpx>